[[{"header":{"parameterUnit":"m.s-1","parameterCategory":1,"la1":30.6,"la2":29.2853,"lo1":-89.7004,"lo2":-87.6739,"dy":0.0162,"dx":0.0183,"nx":112,"ny":82,"refTime":"2023-05-14T06:00:00:Z","depth":0,"parameterNumber":2,"parameterNumberName":"U-component_of_WINDS"},"data":[0.0,0.0,0.0,0.0,0.0,0.0,0.0,0.0,0.0,0.0,0.0,0.0,0.0,0.0,0.0,0.0,0.0,0.0,0.0,0.0,0.0,0.0,0.0,0.0,0.0,0.0,0.0,0.0,0.0,0.0,0.0,0.0,0.0,0.0,0.0,0.0,0.0,0.0,0.0,0.0,0.0,0.0,0.0,0.0,0.0,0.0,0.0,0.0,0.0,0.0,0.0,0.0,0.0,0.0,0.0,0.0,0.0,0.0,0.0,0.0,0.0,0.0,0.0,0.0,0.0,0.0,0.0,0.0,0.0,0.0,0.0,0.0,0.0,0.0,0.0,0.0,0.0,0.0,0.0,0.0,0.0,0.0,0.0,0.0,0.0,0.0,0.0,0.0,0.0,0.0,1.6742,1.6506,1.913,2.0893,2.0892,2.0899,1.9413,1.5901,0.0,0.0,0.0,0.0,0.0,0.0,0.0,0.0,0.0,0.0,0.0,0.0,0.0,0.0,0.0,0.0,0.0,0.0,0.0,0.0,0.0,0.0,0.0,0.0,0.0,0.0,0.0,0.0,0.0,0.0,0.0,0.0,0.0,0.0,0.0,0.0,0.0,0.0,0.0,0.0,0.0,0.0,0.0,0.0,0.0,0.0,0.0,0.0,0.0,0.0,0.0,0.0,0.0,0.0,0.0,0.0,0.0,0.0,0.0,0.0,0.0,0.0,0.0,0.0,0.0,0.0,0.0,0.0,0.0,0.0,0.0,0.0,0.0,0.0,0.0,0.0,0.0,0.0,0.0,0.0,0.0,0.0,0.0,0.0,0.0,0.0,0.0,0.0,0.0,0.0,0.0,0.0,0.0,0.0,0.0,0.0,0.0,0.0,0.0,0.0,0.0,0.0,0.0,0.0,1.8584,2.1522,2.2364,2.268,2.2624,2.268,2.1184,1.7641,0.0,0.0,0.0,0.0,0.0,0.0,0.0,0.0,0.0,0.0,0.0,0.0,0.0,0.0,0.0,0.0,0.0,0.0,0.0,0.0,0.0,0.0,0.0,0.0,0.0,0.0,0.0,0.0,0.0,0.0,0.0,0.0,0.0,0.0,0.0,0.0,0.0,0.0,0.0,0.0,0.0,0.0,0.0,0.0,0.0,0.0,0.0,0.0,0.0,0.0,0.0,0.0,0.0,0.0,0.0,0.0,0.0,0.0,0.0,0.0,0.0,0.0,0.0,0.0,0.0,0.0,0.0,0.0,0.0,0.0,0.0,0.0,0.0,0.0,0.0,0.0,0.0,0.0,0.0,0.0,0.0,0.0,0.0,0.0,0.0,0.0,0.0,0.0,0.0,0.0,0.0,0.0,0.0,0.0,0.0,0.0,0.0,0.0,0.0,0.0,0.0,0.0,0.0,1.7531,1.8924,2.2555,2.2979,2.2989,2.2999,2.3032,2.1503,1.7864,1.6875,0.0,0.0,0.0,0.0,0.0,0.0,0.0,0.0,0.0,0.0,0.0,0.0,0.0,0.0,0.0,0.0,0.0,0.0,0.0,0.0,0.0,0.0,0.0,0.0,0.0,0.0,0.0,0.0,0.0,0.0,0.0,0.0,0.0,0.0,0.0,0.0,0.0,0.0,0.0,0.0,0.0,0.0,0.0,0.0,0.0,0.0,0.0,0.0,0.0,0.0,0.0,0.0,0.0,0.0,0.0,0.0,0.0,0.0,0.0,0.0,0.0,0.0,0.0,0.0,0.0,0.0,0.0,0.0,0.0,0.0,0.0,0.0,0.0,0.0,0.0,0.0,0.0,0.0,0.0,0.0,0.0,0.0,0.0,0.0,0.0,0.0,0.0,0.0,0.0,0.0,0.0,0.0,0.0,0.0,0.0,0.0,0.0,0.0,0.0,0.0,0.0,0.0,1.8811,2.0389,2.3156,2.3482,2.3508,2.3547,2.3562,2.2034,1.8378,1.788,0.0,0.0,0.0,0.0,0.0,0.0,0.0,0.0,0.0,0.0,0.0,0.0,0.0,0.0,0.0,0.0,0.0,0.0,0.0,0.0,0.0,0.0,0.0,0.0,0.0,0.0,0.0,0.0,0.0,0.0,0.0,0.0,0.0,0.0,0.0,0.0,0.0,0.0,0.0,0.0,0.0,0.0,0.0,0.0,0.0,0.0,0.0,0.0,0.0,0.0,0.0,0.0,0.0,0.0,0.0,0.0,0.0,0.0,0.0,0.0,0.0,0.0,0.0,0.0,0.0,0.0,0.0,0.0,0.0,0.0,0.0,0.0,0.0,0.0,0.0,0.0,0.0,0.0,0.0,0.0,0.0,0.0,0.0,0.0,0.0,0.0,0.0,0.0,0.0,0.0,0.0,0.0,0.0,0.0,0.0,0.0,0.0,0.0,0.0,0.0,0.0,0.0,2.2571,2.4753,2.5009,2.5158,2.52,2.5146,2.5251,2.3805,2.0238,1.9126,0.0,0.0,0.0,0.0,0.0,0.0,0.0,0.0,0.0,0.0,0.0,0.0,0.0,0.0,0.0,0.0,0.0,0.0,0.0,0.0,0.0,0.0,0.0,0.0,0.0,0.0,0.0,0.0,0.0,0.0,0.0,0.0,0.0,0.0,0.0,0.0,0.0,0.0,0.0,0.0,0.0,0.0,0.0,0.0,0.0,0.0,0.0,0.0,0.0,0.0,0.0,0.0,0.0,0.0,0.0,0.0,0.0,0.0,0.0,0.0,0.0,0.0,0.0,0.0,0.0,0.0,0.0,0.0,0.0,0.0,0.0,0.0,0.0,0.0,0.0,0.0,0.0,0.0,0.0,0.0,0.0,0.0,0.0,0.0,0.0,0.0,0.0,0.0,0.0,0.0,0.0,0.0,0.0,0.0,0.0,0.0,0.0,0.0,0.0,0.0,0.0,0.0,2.1803,2.3784,0.0,2.5192,2.5274,2.5303,2.5418,2.3887,2.0126,0.0,0.0,0.0,0.0,0.0,0.0,0.0,0.0,0.0,0.0,0.0,0.0,0.0,0.0,0.0,0.0,0.0,0.0,0.0,0.0,0.0,0.0,0.0,0.0,0.0,0.0,0.0,0.0,0.0,0.0,0.0,0.0,0.0,0.0,0.0,0.0,0.0,0.0,0.0,0.0,0.0,0.0,0.0,0.0,0.0,0.0,0.0,0.0,0.0,0.0,0.0,0.0,0.0,0.0,0.0,0.0,0.0,0.0,0.0,0.0,0.0,0.0,0.0,0.0,0.0,0.0,0.0,0.0,0.0,0.0,0.0,0.0,0.0,0.0,0.0,0.0,0.0,0.0,0.0,0.0,0.0,0.0,0.0,0.0,0.0,0.0,0.0,0.0,0.0,0.0,0.0,0.0,0.0,0.0,0.0,0.0,0.0,0.0,0.0,0.0,0.0,0.0,1.9391,2.1115,2.2891,0.0,2.4784,2.4809,2.5141,2.5303,2.3746,1.993,0.0,0.0,0.0,0.0,0.0,0.0,0.0,0.0,0.0,0.0,0.0,0.0,0.0,0.0,0.0,0.0,0.0,0.0,0.0,0.0,0.0,0.0,0.0,0.0,0.0,0.0,0.0,0.0,0.0,0.0,0.0,0.0,0.0,0.0,0.0,0.0,0.0,0.0,0.0,0.0,0.0,0.0,0.0,0.0,0.0,0.0,0.0,0.0,0.0,0.0,0.0,0.0,0.0,0.0,0.0,0.0,0.0,0.0,0.0,0.0,0.0,0.0,0.0,0.0,0.0,0.0,0.0,0.0,0.0,0.0,0.0,0.0,0.0,0.0,0.0,0.0,0.0,0.0,0.0,0.0,0.0,0.0,0.0,0.0,0.0,0.0,0.0,0.0,0.0,0.0,0.0,0.0,0.0,0.0,0.0,0.0,0.0,0.0,0.0,0.0,0.0,0.0,1.9397,2.1087,2.2857,2.4504,2.4035,2.3928,2.4807,2.4993,2.3545,0.0,0.0,0.0,0.0,0.0,0.0,0.0,0.0,0.0,0.0,0.0,0.0,0.0,0.0,0.0,0.0,0.0,0.0,0.0,0.0,0.0,0.0,0.0,0.0,0.0,0.0,0.0,0.0,0.0,0.0,0.0,0.0,0.0,0.0,0.0,0.0,0.0,0.0,0.0,0.0,0.0,0.0,0.0,0.0,0.0,0.0,0.0,0.0,0.0,0.0,0.0,0.0,0.0,0.0,0.0,0.0,0.0,0.0,0.0,0.0,0.0,0.0,0.0,0.0,0.0,0.0,0.0,0.0,0.0,0.0,0.0,0.0,0.0,0.0,0.0,0.0,0.0,0.0,0.0,0.0,0.0,0.0,0.0,0.0,0.0,0.0,0.0,0.0,0.0,0.0,0.0,0.0,0.0,0.0,0.0,0.0,0.0,0.0,0.0,0.0,0.0,0.0,0.0,1.9452,2.1537,2.3179,2.373,2.3117,2.2765,2.2984,2.3733,2.2619,1.8939,0.0,0.0,0.0,0.0,0.0,0.0,0.0,0.0,0.0,0.0,0.0,0.0,0.0,0.0,0.0,0.0,0.0,0.0,0.0,0.0,0.0,0.0,0.0,0.0,0.0,0.0,0.0,0.0,0.0,0.0,0.0,0.0,0.0,0.0,0.0,0.0,0.0,0.0,0.0,0.0,0.0,0.0,0.0,0.0,0.0,0.0,0.0,0.0,0.0,0.0,0.0,0.0,0.0,0.0,0.0,0.0,0.0,0.0,0.0,0.0,0.0,0.0,0.0,0.0,0.0,0.0,0.0,0.0,0.0,0.0,0.0,0.0,0.0,0.0,0.0,0.0,0.0,0.0,0.0,0.0,0.0,0.0,0.0,0.0,0.0,0.0,0.0,0.0,0.0,0.0,0.0,0.0,0.0,0.0,0.0,0.0,0.0,0.0,0.0,0.0,0.0,0.0,2.017,2.2268,2.3979,2.4718,2.4076,2.3715,2.4051,2.4053,2.2797,1.9884,0.0,0.0,0.0,0.0,0.0,0.0,0.0,0.0,0.0,0.0,0.0,0.0,0.0,0.0,0.0,0.0,0.0,0.0,0.0,0.0,0.0,0.0,0.0,0.0,0.0,0.0,0.0,0.0,0.0,0.0,0.0,0.0,0.0,0.0,0.0,0.0,0.0,0.0,0.0,0.0,0.0,0.0,0.0,0.0,0.0,0.0,0.0,0.0,0.0,0.0,0.0,0.0,0.0,0.0,0.0,0.0,0.0,0.0,0.0,0.0,0.0,0.0,0.0,0.0,0.0,0.0,0.0,0.0,0.0,0.0,0.0,0.0,0.0,0.0,0.0,0.0,0.0,0.0,0.0,0.0,0.0,0.0,0.0,0.0,0.0,0.0,0.0,0.0,0.0,0.0,0.0,0.0,0.0,0.0,0.0,0.0,0.0,0.0,0.0,0.0,0.0,0.0,2.1188,2.3143,2.5005,2.658,2.593,2.5725,2.6599,2.5337,2.3745,2.2001,0.0,0.0,0.0,0.0,0.0,0.0,0.0,0.0,0.0,0.0,0.0,0.0,0.0,0.0,0.0,0.0,0.0,0.0,0.0,0.0,0.0,0.0,0.0,0.0,0.0,0.0,0.0,0.0,0.0,0.0,0.0,0.0,0.0,0.0,0.0,0.0,0.0,0.0,0.0,0.0,0.0,0.0,0.0,0.0,0.0,0.0,0.0,0.0,0.0,0.0,0.0,0.0,0.0,0.0,0.0,0.0,0.0,0.0,0.0,0.0,1.8296,0.0,0.0,0.0,0.0,0.0,0.0,0.0,0.0,0.0,0.0,0.0,0.0,0.0,0.0,0.0,0.0,0.0,0.0,0.0,0.0,0.0,0.0,0.0,0.0,0.0,0.0,0.0,0.0,0.0,0.0,0.0,0.0,0.0,0.0,0.0,0.0,0.0,0.0,0.0,0.0,0.0,2.1062,2.3563,2.5393,2.5548,2.4946,2.4653,2.4838,2.5116,2.4524,2.2777,2.197,0.0,0.0,0.0,0.0,0.0,0.0,0.0,0.0,0.0,0.0,0.0,0.0,0.0,0.0,0.0,0.0,0.0,0.0,0.0,0.0,0.0,0.0,0.0,0.0,0.0,0.0,0.0,0.0,0.0,0.0,0.0,0.0,0.0,0.0,0.0,0.0,0.0,0.0,0.0,0.0,0.0,0.0,0.0,0.0,0.0,0.0,0.0,0.0,0.0,0.0,0.0,0.0,0.0,0.0,0.0,0.0,0.0,0.0,0.0,0.0,1.8453,0.0,0.0,0.0,0.0,0.0,0.0,0.0,0.0,0.0,0.0,0.0,0.0,0.0,0.0,0.0,0.0,0.0,0.0,0.0,0.0,0.0,0.0,0.0,0.0,0.0,0.0,0.0,0.0,0.0,0.0,0.0,0.0,0.0,0.0,0.0,0.0,0.0,0.0,0.0,0.0,2.1967,2.4932,2.694,2.6804,2.6593,2.642,2.6271,2.6012,2.5385,2.4371,2.2813,0.0,0.0,0.0,0.0,0.0,0.0,0.0,0.0,0.0,0.0,0.0,0.0,0.0,0.0,0.0,0.0,0.0,0.0,0.0,0.0,0.0,0.0,0.0,0.0,0.0,0.0,0.0,0.0,0.0,0.0,0.0,0.0,0.0,0.0,0.0,0.0,0.0,0.0,0.0,0.0,0.0,0.0,0.0,0.0,0.0,0.0,0.0,0.0,0.0,0.0,0.0,0.0,0.0,1.9885,2.0137,2.0065,2.0173,2.153,2.3659,2.1784,2.1529,2.2209,1.8869,0.0,0.0,0.0,0.0,0.0,0.0,0.0,0.0,0.0,0.0,0.0,0.0,0.0,0.0,0.0,0.0,0.0,0.0,0.0,0.0,0.0,0.0,0.0,0.0,2.3802,2.4315,2.1899,0.0,0.0,0.0,0.0,0.0,0.0,0.0,0.0,0.0,0.0,0.0,2.333,2.6405,2.8474,2.844,2.8626,2.8651,2.844,2.7296,2.6495,2.6269,2.3624,2.2176,0.0,0.0,0.0,0.0,0.0,0.0,0.0,0.0,0.0,0.0,0.0,0.0,0.0,0.0,0.0,0.0,0.0,0.0,0.0,0.0,0.0,0.0,0.0,0.0,0.0,0.0,0.0,0.0,0.0,0.0,0.0,0.0,1.7633,1.7807,0.0,0.0,0.0,0.0,0.0,0.0,0.0,0.0,0.0,0.0,0.0,0.0,0.0,1.812,1.9047,2.0873,2.2129,2.2754,2.4719,2.5745,2.5892,2.5926,2.6251,2.6789,2.6496,0.0,2.2977,2.1649,0.0,0.0,0.0,0.0,0.0,0.0,0.0,0.0,0.0,0.0,0.0,0.0,0.0,0.0,0.0,0.0,0.0,0.0,0.0,0.0,0.0,0.0,2.5764,2.5645,2.5859,2.6164,0.0,2.3968,2.1694,2.1486,2.2019,0.0,0.0,0.0,0.0,0.0,0.0,0.0,2.4739,2.7014,2.8402,2.8183,2.8378,2.8518,2.8492,2.8268,2.809,2.8065,2.6986,2.5703,2.4222,2.2444,0.0,0.0,0.0,0.0,0.0,0.0,0.0,0.0,0.0,0.0,0.0,0.0,0.0,0.0,0.0,0.0,0.0,0.0,0.0,0.0,0.0,0.0,0.0,0.0,0.0,0.0,0.0,0.0,0.0,1.4607,1.5125,1.5512,1.4781,1.389,0.0,0.0,0.0,0.0,0.0,0.0,0.0,0.0,0.0,1.9889,2.0483,2.1505,2.3081,2.4033,2.4715,2.515,2.6091,2.6585,2.6667,2.6628,2.6947,2.7491,2.7065,2.647,2.5671,2.4013,2.2434,2.0971,0.0,0.0,0.0,0.0,1.948,1.9386,2.1107,2.1426,2.0919,1.9766,0.0,0.0,0.0,0.0,0.0,0.0,0.0,0.0,0.0,0.0,2.6372,2.7199,2.7477,2.764,2.7825,2.6749,2.5427,0.0,2.3154,2.1703,1.9485,0.0,0.0,0.0,0.0,2.4326,2.5056,2.6859,2.7992,2.7897,2.812,2.8219,2.8055,2.8128,2.8027,2.7683,2.7227,2.6514,2.5497,2.3677,2.1725,0.0,0.0,0.0,0.0,0.0,0.0,0.0,0.0,0.0,0.0,0.0,0.0,0.0,0.0,0.0,0.0,0.0,0.0,0.0,0.0,0.0,0.0,0.0,0.0,0.0,0.0,0.0,0.0,1.3671,1.4121,1.4154,1.4554,1.4188,0.0,0.0,0.0,0.0,0.0,0.0,1.8852,1.9461,2.0694,2.2722,2.3548,2.4799,2.6577,2.6817,2.7096,2.7399,2.7357,2.7381,2.7434,2.7229,2.7495,2.8104,2.7382,2.7427,2.7816,2.5913,2.4836,2.4265,2.2772,2.1898,2.154,2.1856,2.1807,2.1819,2.3649,2.4035,2.3631,2.2994,2.2743,2.2544,2.158,0.0,0.0,0.0,0.0,2.3237,2.4769,2.5694,2.6508,2.779,2.8192,2.8264,2.8047,2.7736,2.7256,0.0,2.4932,2.3035,2.0884,0.0,0.0,0.0,0.0,2.5103,2.5675,2.6883,2.7672,2.776,2.7897,2.7897,2.7701,2.7725,2.753,2.7004,2.674,2.6488,2.6212,2.4466,2.3024,2.1916,0.0,0.0,0.0,0.0,0.0,0.0,0.0,0.0,0.0,0.0,0.0,0.0,0.0,0.0,0.0,0.0,0.0,0.0,0.0,0.0,0.0,0.0,0.0,0.0,0.0,0.0,0.0,0.0,0.0,1.5751,1.729,0.0,0.0,0.0,0.0,1.7913,1.8334,1.9692,2.2296,2.2598,2.3517,2.5332,2.6189,2.6929,2.7613,2.8511,2.9253,2.9822,2.9898,3.0047,3.0259,2.9683,2.9502,2.9559,2.8877,2.8543,2.8379,2.7259,2.6171,2.5214,2.4986,2.4263,2.3567,2.5129,2.5195,2.473,2.6343,2.616,2.4778,2.2246,2.0545,1.9918,2.1974,2.1937,0.0,0.0,2.3555,2.4,2.636,2.685,2.6884,2.743,2.7539,2.7539,2.7557,2.5738,2.498,0.0,2.8446,2.7882,2.5797,0.0,2.5296,2.4938,2.4879,2.553,2.7327,2.7517,2.7647,2.794,2.7836,2.7701,2.7617,2.7272,2.692,2.6657,2.6248,2.6073,2.6177,2.5038,2.3873,2.2686,2.1028,0.0,0.0,0.0,0.0,0.0,0.0,0.0,0.0,0.0,0.0,0.0,0.0,0.0,0.0,0.0,0.0,0.0,0.0,0.0,0.0,0.0,0.0,0.0,0.0,0.0,0.0,0.0,0.0,1.6562,1.8068,0.0,1.7515,1.8645,1.9844,2.0705,2.2324,2.3922,2.5407,2.626,2.7023,2.7747,2.8523,2.907,2.9352,2.9695,2.9978,3.018,3.0211,3.0287,3.0361,3.0155,3.0071,3.0076,2.9837,2.9397,2.8806,2.8582,2.8003,2.7212,2.7236,2.6958,2.6648,2.712,2.7129,2.6898,2.7091,2.6877,2.629,2.4852,2.3984,2.3652,2.4457,2.4384,2.4232,2.5107,2.5343,2.5562,2.6421,2.659,2.6539,2.659,2.6691,2.6724,2.659,2.6031,2.5945,2.7213,2.6541,2.5454,2.4531,2.5701,2.6133,2.4333,2.5382,2.664,2.7396,2.7496,2.7448,2.7303,2.7224,2.7098,2.6856,2.6707,2.6283,2.5538,2.526,2.4854,2.4287,2.3819,2.3396,2.3039,2.2551,2.0768,0.0,0.0,0.0,0.0,0.0,0.0,0.0,0.0,0.0,0.0,0.0,0.0,0.0,0.0,0.0,0.0,0.0,0.0,0.0,0.0,0.0,0.0,0.0,0.0,0.0,0.0,1.808,1.7334,1.952,2.0709,1.9758,2.1502,2.3128,2.4083,2.5725,2.7063,2.795,2.8633,2.9097,2.944,3.0073,3.0438,3.0473,3.0785,3.0785,3.049,3.0524,3.0609,3.0709,3.0512,3.0472,3.0554,3.0304,2.9849,2.9277,2.946,2.9242,2.8777,2.8434,2.8272,2.8192,2.7982,2.7869,2.7707,2.7034,2.6841,2.6724,2.6033,2.5721,2.561,2.5572,2.5535,2.5535,2.5815,2.5924,2.5944,2.6139,2.6123,2.6118,2.6419,2.6593,2.6695,2.6743,2.6942,2.7194,2.7315,2.6016,2.4856,2.4815,2.6165,2.6344,2.3706,2.5425,2.6779,2.6025,2.6573,2.6954,2.6822,2.674,2.6522,2.6057,2.5522,2.4997,2.4451,2.3838,2.3416,2.3201,2.2353,2.1961,2.2178,2.1768,2.0566,1.8577,0.0,0.0,0.0,0.0,0.0,0.0,0.0,0.0,0.0,0.0,0.0,0.0,0.0,0.0,0.0,0.0,0.0,0.0,0.0,0.0,0.0,0.0,0.0,1.5212,1.7555,1.9191,1.8245,2.1874,2.4076,2.3151,2.481,2.6538,2.798,2.8203,2.8799,2.9994,2.9644,2.9726,3.0392,3.0823,3.1015,3.0864,3.1773,3.178,3.0871,3.0992,3.1286,3.1614,3.1024,3.0872,3.1113,3.0374,2.9959,2.9843,2.9843,2.9826,2.9667,2.8581,2.8146,2.8119,2.7806,2.7478,2.7036,2.6333,2.6052,2.5997,2.5486,2.5326,2.5288,2.5194,2.5171,2.5171,2.5281,2.5187,2.5147,2.5578,2.5562,2.5686,2.6874,2.7151,2.7311,2.797,2.8207,2.8251,2.818,2.7284,2.6723,2.7132,2.7036,2.606,2.3614,2.5225,0.0,2.355,2.4946,2.6229,2.6438,2.6302,2.5922,2.5292,2.3763,2.3036,2.3473,2.2135,2.1865,2.3069,2.0839,1.9767,2.0203,1.8695,1.8423,1.9423,0.0,0.0,0.0,0.0,0.0,0.0,0.0,0.0,0.0,0.0,0.0,0.0,0.0,0.0,0.0,0.0,0.0,0.0,0.0,0.0,0.0,0.0,1.9307,1.875,2.0676,2.2554,2.3637,2.4815,2.5862,2.6604,2.7185,2.8089,2.9484,2.9982,3.0617,3.1473,3.1809,3.2092,3.2326,3.2462,3.2522,3.2547,3.2791,3.2791,3.253,3.2588,3.2655,3.272,3.1877,3.1776,3.2288,3.1384,3.0906,3.073,3.0812,3.0381,2.9624,2.9417,2.9257,2.9109,2.8343,2.7283,2.6139,2.5799,2.5519,2.5381,2.5807,2.5805,2.5746,2.6319,2.6451,2.6314,2.5852,2.5793,2.5805,2.5422,2.5378,2.5468,2.583,2.5905,2.5966,2.6135,2.619,2.6325,2.6698,2.6567,2.6547,2.7097,2.7169,2.6897,2.6247,2.6716,0.0,2.635,2.6678,2.6217,2.4186,2.39,2.3734,2.3434,2.2446,2.2349,2.3547,2.2622,2.1974,2.1908,2.1263,2.0778,2.0616,1.8947,1.7915,0.0,0.0,0.0,0.0,0.0,0.0,0.0,0.0,0.0,0.0,0.0,0.0,0.0,0.0,0.0,0.0,0.0,0.0,0.0,0.0,0.0,0.0,1.9207,2.1761,2.2937,2.4055,2.5218,2.6516,2.7321,2.8234,2.9388,2.9483,2.9909,3.1004,3.1362,3.1814,3.2438,3.2668,3.2934,3.3245,3.3188,3.3143,3.3155,3.3094,3.2883,3.2602,3.2557,3.263,3.2773,3.221,3.2269,3.2751,3.2229,3.1924,3.1802,3.1497,3.0991,0.0,0.0,0.0,0.0,0.0,2.7309,2.6487,2.623,2.6062,2.5996,2.6382,2.6393,2.634,2.6489,2.6437,2.6258,2.5741,2.5633,2.5603,2.5337,2.5352,2.5473,2.5804,2.5863,2.5938,2.6206,2.63,2.6474,2.6764,2.6916,0.0,2.7073,2.7331,2.7022,2.5564,2.6409,2.6769,2.5422,2.5998,2.5819,2.4045,2.3569,2.3284,2.2922,2.1766,0.0,0.0,0.0,2.0941,2.0244,2.0317,0.0,0.0,0.0,1.8241,1.8726,1.7513,0.0,0.0,1.7257,1.623,0.0,0.0,0.0,0.0,0.0,0.0,0.0,0.0,0.0,0.0,0.0,0.0,0.0,0.0,0.0,0.0,2.2072,2.4496,2.6777,2.7145,2.7384,2.7881,2.9286,3.0559,3.1451,3.158,3.1774,3.2409,3.2455,3.2656,3.3095,0.0,0.0,0.0,0.0,3.3145,3.3047,3.2899,3.243,3.1725,3.1691,3.1855,3.2236,3.2217,3.243,3.2829,3.2746,3.2713,3.275,3.2014,3.1639,3.1331,2.9791,2.9022,2.8641,2.7802,2.7442,2.7253,2.6961,0.0,0.0,2.6842,2.6826,2.6691,2.6138,2.5858,2.5625,2.5305,2.516,2.5112,2.5272,2.5368,2.553,2.6204,2.6387,2.6564,2.7179,2.7354,2.744,2.7515,2.7655,2.7527,2.6913,2.7366,2.6757,2.3568,2.5339,2.6018,2.2964,2.428,2.5272,2.4751,0.0,0.0,2.309,2.1408,2.072,2.148,2.0558,1.9643,1.8944,1.9141,1.9032,1.8482,1.8232,1.9072,2.1031,2.0665,2.055,2.0604,1.7132,1.6012,0.0,0.0,0.0,0.0,0.0,0.0,0.0,0.0,0.0,0.0,0.0,0.0,0.0,0.0,0.0,2.0419,2.3568,2.6084,2.6496,2.8336,2.9726,3.0083,3.0313,3.0989,3.2332,3.2446,3.2736,3.3398,3.353,3.363,3.3729,3.3795,3.3843,3.3989,3.394,3.3556,3.2767,3.2767,3.2299,3.145,0.0,0.0,3.2426,3.2215,3.2513,3.3168,3.236,3.2311,3.2784,3.265,3.178,3.0577,3.0084,2.9288,2.8349,2.7838,2.7065,2.6153,2.6032,2.5694,2.5441,2.6168,2.6046,2.566,2.6265,2.636,0.0,2.5643,2.559,2.5551,2.5053,2.508,2.5258,2.5437,2.5602,2.5807,2.6122,2.6026,2.5965,2.6318,2.6564,2.6564,2.6146,2.647,2.6578,2.5995,2.6191,2.6171,2.5622,2.5857,2.5246,2.3213,2.2339,2.1938,2.2059,2.0588,2.045,2.2244,2.153,2.0978,2.0839,2.0884,2.073,2.031,2.0225,2.0268,2.0367,2.0309,2.0309,2.0447,2.0573,2.017,0.0,0.0,0.0,0.0,0.0,0.0,0.0,0.0,0.0,0.0,0.0,1.7055,0.0,0.0,2.1716,2.3406,2.554,2.7245,2.7878,2.9057,2.998,3.0356,3.1136,3.1826,3.2371,3.2958,3.3528,3.4068,3.439,3.4575,3.4718,3.4718,3.4558,3.4218,3.4093,3.3786,3.3393,3.3207,3.2846,3.2436,3.2266,3.2231,3.2273,3.1734,3.1689,3.2058,3.1473,3.1461,3.1695,3.1197,3.031,2.9301,2.9204,2.8732,2.8082,2.7605,2.7009,2.6461,2.6088,2.5806,2.5713,2.6221,2.6155,2.594,2.6058,2.5997,2.5795,2.5329,2.5161,2.5119,2.5048,2.5118,2.523,2.5313,2.5244,2.523,2.5729,2.5558,2.535,2.5577,2.5785,2.5749,2.5287,2.5217,2.553,2.6279,2.6287,2.6089,2.574,2.5342,2.4567,2.3175,2.2458,2.2088,2.2242,2.1266,2.1079,2.2101,2.1406,2.1172,2.1558,2.0875,2.056,2.0705,2.0255,1.9935,1.9761,1.9761,2.0008,2.0488,2.0736,2.0558,0.0,0.0,0.0,0.0,0.0,0.0,0.0,0.0,1.6322,1.9189,1.9179,1.953,2.2255,2.2999,2.4035,2.6515,2.7515,2.828,2.9421,2.9609,2.9798,3.0147,3.1531,3.2408,3.2181,3.3129,3.3922,3.4212,3.4683,3.5058,3.5212,3.5074,3.4732,3.4206,3.4013,3.3879,3.3683,3.338,3.3196,3.301,3.2355,3.2029,3.1953,3.1485,3.1175,3.11,3.0909,3.0704,3.0367,2.9406,2.8656,2.8095,2.7869,2.7738,2.7665,2.7381,2.7257,2.713,2.6688,2.6543,2.6515,2.6569,2.6515,2.642,2.5883,2.5617,2.5404,2.4909,2.4651,2.4553,2.4734,2.4765,2.4821,2.5018,2.4765,2.4624,2.5258,2.5133,2.4894,2.4951,2.5007,2.4881,2.4412,2.4008,2.4182,2.5481,2.5686,2.5439,2.4838,2.4137,2.3669,2.3433,2.2745,2.2234,2.2129,2.1663,2.1311,2.1248,2.0726,2.0676,2.121,2.0118,1.9791,2.0366,1.9694,1.9299,1.9288,1.9288,1.9607,2.0235,1.9648,1.966,1.3118,1.3885,1.5898,1.7959,1.8278,1.9161,0.0,0.0,2.1439,2.3498,2.4099,2.454,2.5317,2.6153,2.7066,2.8038,2.8871,2.9407,2.961,3.0103,3.0466,3.0526,3.1028,3.1649,3.2275,3.2971,3.3398,3.3454,3.386,3.4158,3.4176,3.3983,3.3848,3.3743,3.3743,3.335,3.248,3.2416,3.1997,3.1216,3.1724,3.1797,3.1559,3.2115,3.2198,3.1936,3.1435,3.0611,2.958,2.8627,2.8065,2.7683,2.6706,2.6406,2.6635,2.7641,2.7853,2.7666,2.7711,2.7393,2.6968,2.7086,2.6685,2.6142,2.6203,2.6155,2.5805,2.4806,2.4542,2.4304,2.3384,2.3233,2.3399,2.3569,2.3662,2.38,2.4137,2.3975,2.3859,2.4079,2.3975,2.38,2.3682,2.3289,2.3204,2.4124,2.4021,2.3859,2.3741,2.317,2.2737,2.2737,2.1498,2.0553,1.9955,1.9846,1.9771,1.9608,1.9477,1.9509,1.9562,1.9441,1.9431,1.9607,1.9541,1.9399,1.9323,1.9323,1.918,1.8895,1.8731,1.9283,1.6886,1.6866,0.0,0.0,2.0601,2.0843,2.326,2.2649,2.2379,2.5279,2.6014,2.6161,2.6394,2.7497,2.8237,0.0,2.8926,2.9554,2.9123,2.9668,2.9986,2.9628,3.0141,3.0911,3.1694,3.2612,3.3303,3.3744,3.4181,3.45,3.4643,3.4483,3.4243,3.382,3.3154,3.2656,3.2344,3.136,3.0806,3.054,3.0058,3.0086,3.0465,3.0378,3.0568,3.0932,3.0682,3.0214,2.9508,2.8853,2.8469,2.8208,2.752,2.7073,2.6867,2.6992,2.695,2.6889,2.695,2.6512,2.5946,2.6008,2.5558,2.4937,2.4988,2.5001,2.4823,2.4405,2.4355,2.4368,2.4029,2.4017,2.4192,2.4416,2.4279,2.4267,2.4722,2.4489,2.4103,2.3492,2.3245,2.2836,2.1765,2.1393,2.1318,2.1694,2.1918,2.2091,2.2091,2.1557,2.1141,2.1141,2.0493,1.9987,1.9759,1.9628,1.942,1.9145,1.8305,1.7939,1.8044,1.6968,1.6624,1.7067,1.6693,1.6651,1.6936,1.6886,1.7005,1.7076,1.712,1.712,1.83,0.0,0.0,2.2103,2.2844,2.3087,2.377,2.337,2.3485,2.5873,2.6448,2.643,2.6347,2.753,2.8278,2.7751,2.8699,2.9378,2.9153,2.9539,2.9714,2.9274,2.9907,3.061,3.135,3.2229,3.2991,3.3697,3.42,3.446,3.4336,3.4095,3.363,3.2903,3.1915,3.1523,3.1742,3.0517,2.9986,3.0266,2.9366,2.9189,2.9651,2.9094,2.9143,2.9529,2.9444,2.9048,2.8524,2.8099,2.7842,2.7593,2.7237,2.6867,2.6506,2.6244,2.6077,2.5944,2.5944,2.5614,2.5152,2.5152,2.4993,2.4723,2.4723,2.4723,2.4644,2.4352,2.4171,2.4068,2.4001,2.403,2.4083,2.4006,2.3976,2.4042,2.4177,2.394,2.3436,2.2585,2.2306,2.1861,2.061,2.0126,1.9831,1.9533,1.9628,1.9889,2.0362,1.9695,1.9135,1.8946,1.8649,1.8496,1.8496,1.8295,1.8016,1.7755,1.6711,1.62,1.6294,1.4947,1.4466,1.4915,1.4482,1.4378,1.4807,1.4752,1.4942,1.5151,1.5377,1.4969,0.0,0.0,1.9982,2.2706,2.5026,2.663,2.6608,2.6339,2.6007,2.5467,2.5512,2.5555,2.5299,2.6114,2.7154,2.8036,2.8502,2.9038,2.9946,3.0111,3.0111,3.0083,3.0577,3.119,0.0,3.1925,3.2262,3.2892,3.3346,3.3269,3.2506,3.1901,3.1241,3.0417,2.9935,2.9757,2.9974,2.9897,2.9986,3.0266,3.0253,3.0025,2.9679,2.9266,2.8762,2.8041,2.7775,2.7019,2.5912,2.546,2.5154,2.4886,2.472,2.472,2.4921,2.5528,2.5499,2.511,2.511,2.511,2.511,2.511,2.5672,2.6327,2.6327,2.6339,2.6115,2.5093,2.408,2.312,2.2331,2.208,2.1862,2.1015,2.1793,2.2434,2.1446,2.1247,2.1167,2.1156,2.0924,2.0854,2.1064,2.0136,1.9143,1.8165,1.7143,1.7101,1.8818,1.7813,1.6609,1.5877,1.5517,1.5367,1.5367,1.4996,1.4641,1.4442,1.4371,1.4299,1.4076,1.4004,1.4004,1.4076,1.4004,1.3947,1.3745,1.3745,1.36,1.3302,1.352,1.3382,0.0,0.0,2.2452,2.5668,2.6117,2.5888,2.6344,2.5384,2.4359,2.4172,2.3384,2.2573,2.1979,2.3114,2.403,2.3574,2.5866,2.763,2.7402,2.8466,2.9108,2.8705,2.982,0.0,0.0,0.0,0.0,3.3085,3.2051,3.1549,3.1756,3.0843,3.0151,3.0075,2.9241,2.8682,2.8464,2.8072,2.7695,2.7325,2.8243,2.8493,2.8267,2.8652,2.8621,2.8192,2.8102,2.7753,2.7263,2.6919,2.6517,2.6177,2.5812,2.5471,2.5055,2.5291,2.458,2.3697,2.5135,2.511,2.4437,2.4234,2.3802,2.3467,2.3559,2.4024,2.426,2.3219,2.3176,2.3223,2.2269,2.2237,2.2299,2.2007,2.2382,2.2528,2.1271,2.1028,2.0565,1.8836,1.8414,1.8181,1.7432,1.7011,1.655,1.6057,1.5736,1.5711,1.6018,1.5896,1.557,1.5005,1.4728,1.4593,1.4593,1.4371,1.4083,1.381,1.3295,1.2858,1.2498,1.205,1.1903,1.1903,1.1983,1.2204,1.2586,1.2732,1.2586,1.2218,1.2945,1.2579,2.0244,2.2207,2.3854,2.6862,2.629,2.5034,2.5328,2.3975,2.2611,2.2255,2.087,1.9486,1.8826,2.0183,2.1069,2.0134,2.2971,2.531,2.5165,2.6459,2.7517,2.8015,2.9405,3.0254,0.0,0.0,0.0,3.1901,3.0944,3.0342,3.0405,2.9449,2.8917,2.8851,2.7763,2.7105,2.6896,2.6235,2.5579,2.5031,2.5764,2.6014,2.5931,2.6464,2.6606,2.6431,2.6266,2.6113,2.6041,2.5628,2.5273,2.5005,2.4773,2.4422,2.4048,2.4048,2.3458,2.2777,2.4049,2.397,2.3125,2.2834,2.241,2.2029,2.2124,2.255,2.2894,2.2211,2.2209,2.2227,2.1538,2.1573,2.1562,2.0931,2.1227,2.1217,1.9684,1.9362,1.8819,1.7175,1.6905,1.6681,1.5953,1.5506,1.5157,1.4804,1.4582,1.4433,1.4178,1.4155,1.4091,1.3787,1.3281,1.291,1.291,1.2464,1.2024,1.1822,1.1304,1.0864,1.0657,1.0282,1.0056,1.0056,1.0207,1.0432,1.0807,1.095,1.1031,1.1037,1.1694,1.1471,2.2328,2.3453,2.4182,2.6365,2.5582,2.4184,2.364,2.231,2.0865,1.9703,1.7786,1.6289,0.0,0.0,1.8441,1.7856,2.021,2.2468,2.3478,2.4349,2.5696,0.0,0.0,0.0,0.0,0.0,0.0,2.9462,0.0,2.9576,2.8426,2.79,2.736,2.6891,2.5622,2.5094,2.54,2.4467,2.3943,2.372,2.3201,2.3027,2.294,2.294,2.294,2.294,2.2522,2.2356,2.2356,2.1863,2.1695,2.1695,2.1695,2.1863,2.2031,2.2031,2.2199,2.237,2.2098,2.1764,2.1507,2.1134,2.1507,2.2056,2.2138,2.2148,2.2159,2.1979,2.1252,2.0481,2.0213,2.0098,1.9627,1.7806,1.8256,1.8621,1.6706,1.6229,1.6229,1.6229,1.6221,1.6288,1.6503,1.5589,1.4721,1.4245,1.3581,1.3142,1.3286,1.27,1.2271,1.2197,1.1123,1.0432,1.0432,0.9377,0.8703,0.8703,0.8703,0.8703,0.8703,0.8703,0.8703,0.8703,0.8703,0.8699,0.8699,0.8699,0.9079,0.9765,0.9765,0.9992,2.4327,2.5262,2.5574,2.5858,2.4518,2.2648,2.1135,1.9543,1.7823,1.6085,1.4064,1.2212,0.0,0.0,0.0,1.5526,2.0031,0.0,2.3921,2.5012,0.0,0.0,0.0,2.8562,2.8336,2.857,0.0,0.0,2.7476,2.7706,2.8176,2.7151,2.6351,2.5841,2.5505,2.4819,2.3694,2.3086,2.3163,2.372,2.3201,2.2853,2.2522,2.2522,2.2444,2.2287,2.2031,2.1943,2.212,2.1774,2.1784,2.1952,2.1952,2.2041,2.2306,2.2306,2.2205,2.2035,2.1671,2.1381,2.1149,2.0847,2.0636,2.0543,2.0682,2.1134,2.153,2.0719,2.0746,2.078,1.9181,1.8895,1.8718,1.7437,1.7507,1.7483,1.606,1.5901,1.5741,1.471,1.4529,1.4388,1.425,1.3988,1.3425,1.248,1.2116,1.1915,1.1818,1.1848,1.1534,1.0518,1.0042,0.9787,0.9632,0.9173,0.8851,0.8703,0.8703,0.8703,0.8703,0.8703,0.8703,0.8703,0.8703,0.8542,0.8219,0.838,0.8456,0.8376,0.8461,0.8618,2.5368,2.5921,2.5795,2.4665,2.3089,2.1169,1.8651,1.7022,1.5291,1.2831,1.0798,0.0,0.0,0.0,0.0,0.0,0.0,0.0,2.1789,2.3271,2.486,0.0,2.714,0.0,2.7945,2.8021,2.7799,0.0,2.6787,2.6857,2.7244,2.6622,2.6135,2.6019,2.5242,2.4029,2.2227,2.1695,2.1587,2.1906,2.1373,2.1025,2.0863,2.0953,2.0863,2.0791,0.0,2.043,1.9943,2.0529,2.0051,1.9074,2.0133,2.0314,2.0017,2.0494,2.0364,1.9932,1.9703,1.951,1.9573,2.0238,2.0286,2.0096,1.9724,1.9951,2.0077,1.8914,1.8921,1.9022,1.7676,1.747,1.728,1.6316,1.6309,1.6125,1.5006,1.5013,1.5019,1.4327,1.4193,1.4121,1.4141,1.3659,1.2997,1.2334,1.1793,1.1248,1.07,1.0827,1.0616,0.9897,0.9385,0.9152,0.8997,0.8568,0.8269,0.8111,0.8115,0.8115,0.8115,0.8115,0.8032,0.7791,0.7791,0.7624,0.7141,0.7304,0.7383,0.7537,0.762,0.7861,2.5405,2.5478,2.4802,2.2969,2.1385,1.9412,1.6359,1.4678,1.2952,0.9966,0.0,0.6974,0.6091,0.8682,1.0812,1.0193,0.0,1.8144,1.9092,2.0852,2.3006,2.5593,2.6434,2.722,2.8152,2.7603,2.7185,2.7267,2.7044,2.6727,2.6313,2.6313,2.6313,2.6207,2.4563,2.2824,2.0907,2.0464,2.0011,1.9546,1.9096,1.8827,1.8827,1.9096,1.9096,1.8996,1.9296,1.8535,1.7196,1.8627,1.7576,1.5292,1.7677,1.777,1.6901,1.7963,1.787,1.7296,1.7196,1.7196,1.7576,1.9255,1.982,1.982,1.888,1.8603,1.8356,1.715,1.6803,1.6646,1.6274,1.6106,1.5934,1.4967,1.496,1.496,1.417,1.4261,1.4508,1.4656,1.4553,1.4546,1.4784,1.3754,1.288,1.2792,1.1871,1.085,0.9897,0.9817,0.9741,0.9659,0.8895,0.8383,0.83,0.7541,0.7116,0.7116,0.712,0.712,0.7202,0.7289,0.7123,0.6795,0.6705,0.6453,0.604,0.604,0.6284,0.685,0.7019,0.7349,2.3444,2.3078,2.203,2.0777,1.8911,1.6868,1.4719,1.2429,0.0,0.0,0.0,0.5381,0.4147,0.6952,0.9843,1.095,0.0,0.0,0.0,0.0,2.2237,0.0,0.0,0.0,0.0,0.0,0.0,0.0,2.7126,2.6891,2.6809,2.6809,2.6019,2.4361,2.2473,2.1168,2.0473,1.992,1.9646,1.9637,1.9279,1.9096,1.9096,1.892,1.8527,1.794,1.8257,0.0,1.5758,1.6734,1.6438,1.5468,1.6706,1.6706,1.6041,1.7095,1.739,1.7196,1.6525,1.6915,1.7584,1.7001,1.7561,1.8326,1.7468,1.7375,1.7468,1.723,1.7216,1.7015,1.6126,1.5832,1.5645,1.4918,1.4735,1.4829,1.4842,1.5119,1.5324,1.5272,1.4562,1.3915,1.3701,1.2808,1.1877,1.1059,1.0595,1.0013,0.9131,0.9551,0.9584,0.8905,0.7811,0.713,0.6963,0.5924,0.5446,0.5618,0.5538,0.571,0.6299,0.6725,0.6993,0.7261,0.6562,0.6139,0.5987,0.5987,0.5728,0.5126,0.5886,0.6306,2.1873,2.1691,2.0857,1.9065,1.7683,1.5839,1.2319,0.0,0.0,0.0,0.0,0.4116,0.3293,0.0,0.0,0.0,0.0,0.0,0.0,0.0,0.0,0.0,0.0,0.0,0.0,0.0,0.0,0.0,2.6467,2.6561,2.6891,2.6196,2.4882,2.2795,2.1836,2.0881,1.992,1.9828,1.9646,1.9371,1.9379,1.9288,1.9004,1.9012,1.8719,1.8141,1.835,1.749,1.6048,1.6727,1.5772,1.4148,1.5386,1.5197,1.4244,1.5494,1.588,1.5778,1.5019,1.5406,1.6082,1.4644,1.5589,1.7109,1.6163,1.5974,1.5981,1.5615,1.552,1.5425,1.4962,1.4771,1.4771,1.4586,1.4783,1.5166,1.5458,1.4956,1.4429,1.4395,1.3305,1.24,1.2388,1.1526,1.0618,1.0336,0.9709,0.9042,0.859,0.8326,0.8207,0.8228,0.7516,0.7034,0.7138,0.6897,0.6423,0.5551,0.5907,0.582,0.5201,0.5376,0.6082,0.7249,0.5912,0.4865,0.4355,0.4355,0.4177,0.374,0.4175,0.5048,1.9826,1.9878,1.9192,1.7311,1.6329,1.4653,1.0196,0.8691,0.0,0.0,0.0,0.3078,0.2821,0.0,0.0,0.0,0.0,0.0,0.0,0.0,0.0,0.0,0.0,0.0,0.0,0.0,0.0,0.0,2.5717,2.5779,2.6362,2.5147,2.3567,2.156,2.1391,2.0692,1.9554,1.9646,1.9563,1.9288,1.9579,1.9387,1.892,1.8812,1.8527,1.8064,1.8164,1.7311,1.6069,1.6445,1.5108,1.2823,1.4064,1.3872,1.292,1.3986,1.4465,1.4459,1.3414,1.38,1.4376,1.2845,1.3986,1.5886,1.4854,1.4663,1.4573,1.4022,1.3835,1.3835,1.3835,1.3835,1.3829,1.401,1.4573,1.4956,1.4949,1.3968,1.3091,1.2995,1.1925,1.0951,1.1146,1.025,0.9581,0.9769,0.8961,0.8298,0.8012,0.7032,0.6557,0.6985,0.6668,0.6462,0.6716,0.7074,0.6624,0.5275,0.5641,0.546,0.4648,0.3838,0.4109,0.5563,0.4928,0.3849,0.224,0.224,0.224,0.224,0.2418,0.3405,1.6354,1.6155,1.5352,1.5534,1.4013,1.1796,0.9426,0.0,0.0,0.0,0.2724,0.2288,0.229,0.0,0.0,0.0,0.0,0.0,0.0,0.0,0.0,0.0,0.0,0.0,0.0,0.0,0.0,2.5895,2.5062,2.4522,2.4596,2.377,2.2551,2.1025,2.0249,1.9637,1.9279,1.9279,1.9379,1.9587,1.9754,1.9654,1.9096,1.7956,1.7203,1.6633,1.6264,1.5507,0.0,1.4555,1.3782,1.2732,1.3119,1.3216,1.3119,1.3216,1.3788,1.4364,1.2452,1.2452,1.3119,1.2262,1.3136,1.4388,1.3528,1.3437,1.363,1.3539,1.3539,1.3539,1.3539,1.3539,1.3437,1.3227,1.3301,1.3091,1.241,1.192,1.1628,1.1336,1.0863,1.0386,1.019,0.9395,0.8898,0.8898,0.8766,0.8179,0.7208,0.614,0.5214,0.4725,0.4278,0.3926,0.3942,0.3226,0.2959,0.3496,0.251,0.3051,0.5497,0.2241,0.0448,0.0629,0.3868,0.3778,0.0269,0.0269,0.0269,0.0269,0.0717,0.0984,1.405,1.4214,1.3803,1.3447,1.1983,1.0059,0.7886,0.0,0.0,0.2884,0.2328,0.2109,0.2239,0.0,0.0,0.0,0.0,0.0,0.0,0.0,0.0,0.0,0.0,0.0,0.0,0.0,0.0,2.4231,2.3867,2.3153,2.1994,2.1826,2.1123,1.9704,1.9455,1.9279,1.9188,1.9188,1.9288,1.9387,1.9288,1.9012,1.8542,1.7978,1.7124,1.6075,1.5893,1.5609,0.0,1.4076,1.3698,1.389,1.3511,1.3318,1.3318,1.3318,1.398,1.4543,1.2549,1.2457,1.3221,1.2268,1.2559,1.3141,1.2759,1.2856,1.3055,1.3249,1.3346,1.334,1.2549,1.1955,1.1653,1.1546,1.1736,1.1823,1.1531,1.0658,0.9878,0.9976,0.9004,0.8326,0.8528,0.8333,0.8137,0.8333,0.7687,0.7156,0.6662,0.5136,0.3919,0.3681,0.371,0.3544,0.3199,0.3194,0.2906,0.2243,0.1435,0.1525,0.2604,0.0987,0.009,0.0449,0.2155,0.2244,0.0449,0.0449,0.0449,0.0449,-0.0,-0.0179,1.2117,1.2486,1.2263,1.1879,1.054,0.869,0.0,0.0,0.3699,0.2364,0.2064,0.2109,0.2239,0.2237,0.0,0.0,0.0,0.576,0.0,0.0,0.0,0.0,0.0,0.0,0.0,0.0,2.4166,2.3008,2.2833,2.212,2.0619,2.0331,1.9886,1.8912,1.9096,1.9279,1.9371,1.9371,1.9371,1.9279,1.9096,1.8535,1.7606,1.7606,1.6936,1.5798,1.5609,1.5609,0.0,1.398,1.3698,1.428,1.342,1.3323,1.3516,1.313,1.3596,1.4256,1.2452,1.2262,1.2743,1.2073,1.2078,1.237,1.2467,1.2662,1.2958,1.3152,1.3044,1.2651,1.137,1.0676,1.0177,0.9985,1.0079,1.0266,1.007,0.9193,0.8414,0.8612,0.7829,0.7244,0.7547,0.7444,0.7341,0.754,0.6634,0.5832,0.5532,0.4126,0.3107,0.2771,0.2929,0.2877,0.2525,0.2891,0.2595,0.1463,0.1097,0.0911,0.0905,0.0634,0.0541,0.0718,0.1166,0.1076,0.0448,0.0448,0.0448,0.0448,-0.0179,-0.0628,1.0408,1.052,1.0235,1.1086,0.9583,0.7531,0.0,0.0,0.3918,0.2177,0.202,0.2201,0.2201,0.1884,0.1837,0.2595,0.0,0.0,0.0,0.0,0.0,0.0,0.0,0.0,0.0,2.3443,2.4241,2.257,2.2129,0.0,2.0988,1.9637,1.892,1.9188,1.9188,1.9463,1.9936,1.9928,1.9837,1.9637,1.9546,1.8511,1.6539,1.6539,1.6264,1.5798,1.5038,1.5235,0.0,1.4274,1.3511,1.3414,1.2457,1.2748,1.3709,1.2165,1.2452,1.3318,1.1775,1.1198,1.1292,1.1487,1.198,1.2467,1.2764,1.2953,1.3147,1.3443,1.2549,1.1268,0.9998,0.9805,0.9805,0.9019,0.8616,0.8315,0.7726,0.7434,0.7238,0.7235,0.7637,0.7942,0.7646,0.6942,0.6437,0.6437,0.5529,0.4425,0.3324,0.3224,0.2822,0.1717,0.1616,0.1592,0.153,0.1525,0.1525,0.1525,0.1525,0.1417,0.1389,0.1388,0.1191,0.0718,0.1166,0.0897,-0.0,-0.0,-0.0,-0.0,-0.0,-0.0538,0.7196,0.7248,0.7005,0.7546,0.6322,0.4846,0.4419,0.0,0.2231,0.1742,0.1658,0.1703,0.1794,0.1748,0.1882,0.237,0.2909,0.0,0.0,0.0,0.0,0.0,0.0,0.0,0.0,0.0,2.2736,2.1489,2.0692,1.9886,1.9088,1.7963,1.7785,1.892,1.8819,1.8427,1.7848,1.7662,1.7188,1.6425,1.6149,1.5589,1.5026,1.5222,1.4746,1.398,1.389,1.4088,1.4274,1.3232,1.3136,1.3806,1.3619,1.3811,1.41,1.342,1.342,1.3613,1.2462,1.1878,1.178,1.2078,1.2273,1.2467,1.2764,1.3055,1.3244,1.2646,1.0872,0.9106,0.881,0.812,0.7425,0.7232,0.7232,0.7238,0.7138,0.7138,0.7036,0.6531,0.6531,0.6431,0.5829,0.5427,0.5327,0.5327,0.4425,0.332,0.2211,0.2116,0.1716,0.0605,0.1212,0.16,0.1561,0.1557,0.1548,0.1528,0.1526,0.1522,0.1512,0.0945,0.0753,0.0655,0.0281,-0.0,-0.0094,-0.0094,-0.0187,-0.0561,-0.0553,-0.0916,0.0,0.5364,0.5428,0.57,0.4556,0.0,0.0,0.0,0.1505,0.1499,0.1478,0.1523,0.1569,0.1569,0.1746,0.237,0.2733,0.0,0.0,0.0,0.0,0.0,0.0,0.0,0.0,2.2015,2.1489,2.024,1.9894,1.9072,1.7878,1.7023,1.6828,1.7498,1.739,1.7095,1.6425,1.6236,1.5772,1.5013,1.4829,1.4459,1.3884,1.4561,1.4178,1.2926,1.3221,1.3318,0.0,1.2559,1.2754,1.3528,1.3528,1.3528,1.3426,1.3232,1.3136,1.2942,1.2462,1.2175,1.1975,1.1873,1.1678,1.1575,1.1765,1.2355,1.2646,1.1068,0.9399,0.812,0.7723,0.7129,0.6539,0.6539,0.6739,0.6942,0.7045,0.6939,0.6634,0.6232,0.5829,0.5427,0.4924,0.4423,0.4022,0.3616,0.2716,0.1711,0.1106,0.0806,0.0606,0.0303,0.0707,0.1006,0.0994,0.1191,0.1185,0.0976,0.0975,0.0971,0.0965,0.0482,0.0288,0.0381,-0.0095,-0.0381,-0.0381,-0.0572,-0.0763,-0.1049,-0.1035,-0.1217,0.0,0.0,0.0,0.0,0.0,0.0,0.0,0.0,0.0,0.0,0.1433,0.1569,0.1569,0.1346,0.1527,0.2563,0.2658,0.0,0.0,0.0,0.0,0.0,0.0,0.0,1.8244,1.998,2.0593,1.8912,1.9355,1.9055,1.739,1.6727,1.6069,1.5406,1.5197,1.5279,1.5563,1.5563,1.5285,1.4727,1.5019,1.4358,1.2926,1.4184,1.3986,0.0,1.2829,1.2926,1.2926,1.2262,1.2273,1.2662,1.237,1.2175,1.198,1.198,1.1883,1.1688,1.1975,1.2078,1.1878,1.1082,1.0489,0.9998,1.0177,1.0965,1.1263,0.9004,0.8315,0.8021,0.6734,0.6539,0.6642,0.6642,0.6736,0.6936,0.7241,0.6534,0.5829,0.6032,0.5227,0.4522,0.442,0.3521,0.2516,0.1405,0.0503,-0.0101,-0.0202,-0.0504,-0.0403,0.0505,0.0202,-0.0,-0.0202,0.0404,0.0505,-0.0,-0.0,-0.0,-0.0,-0.0,-0.0098,-0.0192,-0.0191,-0.0383,-0.0862,-0.1341,-0.1532,-0.1532,-0.153,-0.1529,0.1141,0.0,0.2015,0.234,0.2226,0.0,0.0,0.0,0.0,0.0,0.0,0.1344,0.1254,0.156,0.2061,0.2667,0.3529,0.0,0.0,0.0,0.0,0.0,0.0,2.1117,1.9653,2.0123,1.996,1.8888,1.8249,1.7792,1.7613,1.5988,1.5134,1.5134,1.3601,1.3216,1.398,1.3782,1.3204,1.2052,1.2155,1.1765,1.1091,1.1575,1.1575,1.1287,1.1482,1.1678,1.1678,1.1487,1.1487,1.159,1.1487,1.159,1.1688,1.1688,1.1878,1.2175,1.2273,1.2467,1.2467,1.1468,1.0489,0.9505,0.881,0.8905,0.9103,0.851,0.7624,0.6833,0.6739,0.5837,0.5031,0.5229,0.4522,0.3817,0.3917,0.3915,0.3613,0.2914,0.2514,0.181,0.0201,-0.0302,-0.0804,-0.1905,-0.1608,-0.1509,-0.2313,-0.1108,-0.0404,-0.1009,-0.0404,-0.0505,-0.1713,-0.0605,0.0101,-0.0,-0.0,-0.0,-0.0,-0.0401,-0.0601,-0.0598,-0.0997,-0.1296,-0.1396,-0.1496,-0.1596,-0.1595,-0.1572,-0.1561,-0.0224,0.0221,0.0706,0.0851,0.1169,0.1425,0.0,0.0,0.0,0.0,0.0,0.0,0.1698,0.0,0.0,0.0,0.5198,0.0,0.0,0.0,0.0,0.0,0.0,2.108,0.0,2.0171,1.9521,1.8527,1.7978,1.7419,1.6857,1.5324,1.4274,1.3806,1.216,1.1775,1.284,1.2452,1.1868,1.1194,1.1096,1.09,1.0605,1.09,1.0806,1.0605,1.0806,1.0801,1.0801,1.0998,1.1194,1.1389,1.1487,1.1487,1.1487,1.1688,1.1785,1.1883,1.2175,1.1673,1.0783,0.9895,0.881,0.7826,0.7428,0.7329,0.7329,0.7627,0.6933,0.6139,0.5934,0.5129,0.4323,0.3919,0.3414,0.3012,0.3012,0.2711,0.2109,0.1104,0.0502,-0.0402,-0.201,-0.2311,-0.2711,-0.3815,-0.3015,-0.2514,-0.3116,-0.2015,-0.111,-0.1211,-0.1412,-0.1814,-0.2719,-0.2416,-0.2215,-0.2215,-0.2215,-0.2215,-0.2215,-0.2518,-0.2418,-0.1917,-0.222,-0.212,-0.1617,-0.1617,-0.1617,-0.1819,-0.18,-0.1891,-0.0896,-0.0226,0.0397,0.0225,0.0713,0.1181,0.0,0.0,0.0,0.0,0.0,0.0,0.0,0.0,0.0,0.0,0.0,0.0,0.0,0.0,0.0,0.0,0.0,0.0,2.0704,1.9901,1.8988,1.7986,1.7893,1.7326,1.6089,1.4841,1.3794,1.2754,1.1292,1.1002,1.1883,1.1389,1.1096,1.1096,1.0806,1.0708,1.0605,1.0904,1.0806,1.0314,1.0408,0.0,1.0413,1.0609,1.0998,1.1487,1.1683,1.1487,1.1194,1.1688,1.1585,1.1292,1.1683,1.0391,0.8609,0.7826,0.6836,0.6139,0.6337,0.6239,0.6139,0.6439,0.6139,0.5536,0.4924,0.4219,0.3616,0.2712,0.2309,0.2206,0.2206,0.1405,0.0402,-0.0601,-0.1506,-0.2412,-0.3512,-0.3712,-0.4014,-0.5125,-0.4221,-0.3417,-0.3417,-0.292,-0.2118,-0.101,-0.242,-0.3423,-0.3423,-0.4425,-0.5127,-0.5327,-0.5024,-0.4824,-0.4824,-0.4824,-0.4323,-0.3423,-0.3525,-0.3024,-0.212,-0.2221,-0.2322,-0.2624,-0.2424,-0.2624,-0.089,-0.0175,0.048,0.0114,0.0892,0.1666,0.0,0.0,0.0,0.0,0.0,0.0,0.0,0.0,0.0,0.0,0.0,0.0,0.0,0.0,0.0,0.0,0.0,2.0395,1.8543,1.8701,1.8334,1.6958,1.6864,1.6871,1.6784,1.4956,1.3992,1.3986,1.2355,1.1487,1.1688,1.1096,1.0703,1.0511,1.0511,1.0216,0.9821,1.0019,1.0117,1.0117,0.0,1.0413,1.0413,1.0413,1.0507,1.0605,1.0605,1.0708,1.09,1.0998,1.1198,1.1487,1.0886,0.9698,0.8315,0.7521,0.683,0.6337,0.6437,0.6337,0.6234,0.5625,0.4924,0.4325,0.4422,0.2715,0.1007,0.1107,-0.0603,-0.2213,-0.2213,-0.3015,-0.3815,-0.4016,-0.4219,-0.4624,-0.5729,-0.5929,-0.6232,-0.7335,-0.5827,-0.4524,-0.4524,-0.3723,-0.2621,-0.1616,-0.3323,-0.4524,-0.4524,-0.5529,-0.6534,-0.7434,-0.5827,-0.4824,-0.4824,-0.4824,-0.4724,-0.4524,-0.4826,-0.4828,-0.4628,-0.4924,-0.5122,-0.532,-0.4427,-0.4227,-0.0889,-0.029,0.0602,0.1754,0.266,0.0,0.0,0.0,0.0,0.0,0.0,0.0,0.0,0.0,0.0,0.0,0.0,0.0,0.0,0.0,0.0,0.0,0.0,2.0202,1.955,1.9594,1.9072,1.7893,1.7037,1.6567,1.6386,1.437,1.3221,1.3028,1.1678,1.0998,1.0998,1.0703,1.0703,1.0801,1.0511,1.0314,1.0019,1.0117,1.0216,1.0216,0.0,1.0413,1.0413,1.0609,1.0609,1.0605,1.0806,1.09,1.1002,1.1002,1.1194,1.1189,0.9604,0.8711,0.7918,0.6531,0.5937,0.5739,0.5937,0.5434,0.483,0.4425,0.4026,0.3624,0.2714,0.0904,-0.0804,-0.1207,-0.2715,-0.3924,-0.3323,-0.4024,-0.4624,-0.4024,-0.4423,-0.4924,-0.5429,-0.6032,-0.6537,-0.7039,-0.6334,-0.5629,-0.5629,-0.4726,-0.3925,-0.3425,-0.4728,-0.5629,-0.5629,-0.6634,-0.7437,-0.7939,-0.7033,-0.6628,-0.6728,-0.6725,-0.6623,-0.6318,-0.642,-0.6321,-0.5819,-0.6016,-0.6216,-0.6415,-0.5919,-0.5625,-0.0833,-0.0231,0.0902,0.3022,0.0,0.0,0.0,0.0,0.0,0.0,0.0,0.0,0.0,0.0,0.0,0.0,0.0,0.0,0.0,1.6794,1.7309,1.8507,1.9376,2.007,2.0567,1.9977,1.9155,1.7978,1.6936,1.5988,1.5317,1.3499,1.2355,1.198,1.0998,1.0511,1.0511,1.0609,1.0708,1.0998,1.0609,1.0413,1.0413,1.0511,1.0511,1.0511,1.0609,1.0605,1.0609,1.0806,1.0703,1.0605,1.0998,1.1096,1.09,1.09,1.0699,1.0301,0.8319,0.7627,0.7329,0.5636,0.5037,0.4935,0.5133,0.4329,0.3222,0.3021,0.282,0.2417,0.1006,-0.0503,-0.181,-0.262,-0.3823,-0.4624,-0.3725,-0.4626,-0.5327,-0.4526,-0.5027,-0.5527,-0.5527,-0.6232,-0.6736,-0.6736,-0.6537,-0.6437,-0.6437,-0.5729,-0.5125,-0.4926,-0.6129,-0.6933,-0.6933,-0.7733,-0.8237,-0.8237,-0.8237,-0.8233,-0.8531,-0.8531,-0.8326,-0.7915,-0.8014,-0.7813,-0.7111,-0.7307,-0.7505,-0.771,-0.7512,-0.7217,-0.0889,0.0235,0.1596,0.2575,0.0,0.0,0.0,0.0,0.0,0.0,0.0,0.0,0.0,0.0,0.0,0.0,0.0,0.0,1.9036,0.0,2.0624,2.0766,2.0433,2.0099,1.9679,1.8326,1.6943,1.5432,1.5242,1.4758,1.3703,1.2651,1.2078,1.198,1.1194,1.0806,1.0806,1.1002,1.09,1.0413,1.0413,1.0413,1.0413,1.0708,1.0806,1.0801,1.0998,1.1096,1.1096,1.1194,1.06,0.9805,1.0797,1.0703,1.0019,0.9809,0.9209,0.8414,0.703,0.6537,0.6334,0.5236,0.4529,0.4124,0.4124,0.3317,0.2311,0.1307,0.0604,0.0202,0.0101,-0.0807,-0.1616,-0.1717,-0.3324,-0.4824,-0.4724,-0.6329,-0.7736,-0.7637,-0.7736,-0.7736,-0.7736,-0.7839,-0.7839,-0.7839,-0.7036,-0.6437,-0.6437,-0.6531,-0.6229,-0.5229,-0.7226,-0.8627,-0.8627,-0.8726,-0.8726,-0.8726,-0.8726,-0.8726,-0.8726,-0.8726,-0.8726,-0.8722,-0.9225,-0.9426,-0.9324,-0.9916,-1.0207,-1.0502,-0.9509,-0.9114,0.0056,0.1444,0.2908,0.3565,0.0,0.0,0.0,0.0,0.0,0.0,0.0,0.0,0.0,0.0,0.0,0.0,0.0,1.9096,1.9943,2.0382,2.0555,2.0555,2.0374,2.0184,1.9812,1.8234,1.7023,1.6257,1.474,1.3703,1.3318,1.2457,1.198,1.198,1.1683,1.1585,1.1585,1.1688,1.1585,1.1389,1.11,1.0904,1.09,1.0998,1.11,1.1292,1.1389,1.1585,1.1688,1.1688,1.1096,1.0109,0.9813,0.9517,0.9221,0.9118,0.8984,0.8571,0.7256,0.6799,0.6543,0.4525,0.3792,0.3477,0.273,0.1711,0.0805,0.0403,-0.0302,-0.1009,-0.1009,-0.1816,-0.2722,-0.3423,-0.4728,-0.5832,-0.5832,-0.6933,-0.7736,-0.6728,-0.7027,-0.7226,-0.6423,-0.7123,-0.7627,-0.7036,-0.7534,-0.7928,-0.7928,-0.8028,-0.7925,-0.7524,-0.8226,-0.8825,-0.8825,-0.8928,-0.9031,-0.9031,-0.8928,-0.8825,-0.9031,-0.9031,-0.9229,-0.9521,-0.9723,-1.0019,-1.0314,-1.0507,-1.0801,-1.0998,-1.06,-1.0105,0.2322,0.3162,0.403,0.0,0.0,0.0,0.0,0.0,0.0,0.0,0.0,0.0,0.0,0.0,0.0,0.0,1.8113,1.9446,1.982,1.982,1.9911,2.0292,2.0102,1.992,1.9654,1.8056,1.6828,1.6344,1.4358,1.3125,1.2737,1.2262,1.198,1.198,1.198,1.198,1.198,1.198,1.198,1.198,1.1585,1.1487,1.1487,1.1487,1.1585,1.1688,1.1688,1.1683,1.1487,1.1487,1.09,0.9821,0.8777,0.8399,0.8507,0.8456,0.8337,0.8014,0.6981,0.6623,0.625,0.4164,0.3003,0.2271,0.1419,0.0302,-0.0504,-0.0504,-0.1009,-0.1617,-0.1718,-0.2522,-0.3423,-0.4321,-0.5627,-0.6731,-0.6828,-0.773,-0.8131,-0.7123,-0.7425,-0.7524,-0.662,-0.7316,-0.7822,-0.7232,-0.8127,-0.8825,-0.8825,-0.8825,-0.8928,-0.9027,-0.9027,-0.9027,-0.9027,-0.9229,-0.9335,-0.9335,-0.913,-0.913,-0.9331,-0.9335,-0.9529,-0.9821,-0.992,-1.0216,-1.0507,-1.0605,-1.0806,-1.1096,-1.1096,-1.0699,0.5868,0.5255,0.0,0.0,0.0,0.0,0.0,0.0,0.0,0.0,0.0,0.0,0.0,0.0,0.0,0.0,1.669,1.7669,1.8696,1.8796,1.9163,2.0102,1.9646,1.9188,1.9188,1.7606,1.6103,1.5045,1.4088,1.3033,1.2073,1.198,1.198,1.1975,1.1975,1.1975,1.1975,1.198,1.198,1.1975,1.198,1.198,1.198,1.198,1.198,1.198,1.198,1.1389,1.0408,1.0413,0.9719,0.8741,0.7782,0.7536,0.7763,0.7688,0.7109,0.6373,0.6061,0.5854,0.5417,0.4165,0.2277,0.0413,0.0101,-0.0807,-0.1617,-0.1617,-0.1617,-0.1718,-0.2123,-0.2725,-0.3323,-0.3917,-0.5617,-0.7319,-0.7908,-0.8817,-0.9628,-0.9628,-0.943,-0.9236,-0.9236,-0.9031,-0.8825,-0.8825,-0.8825,-0.8825,-0.8825,-0.9031,-0.9331,-0.9529,-0.9628,-0.9628,-0.9628,-0.9628,-0.9628,-0.9628,-0.9628,-0.9628,-0.9628,-0.9628,-0.9628,-0.9628,-0.9821,-1.0019,-1.0019,-1.0314,-1.0511,-1.0801,-1.0801,-1.09,0.5906,0.0,0.0,0.0,0.0,0.0,0.0,0.0,0.0,0.0,0.0,0.0,0.0,0.0,0.0,1.6428,1.7094,1.7584,1.7762,1.7762,1.7762,1.7662,1.7569,1.7475,1.7102,1.5785,1.4752,1.4286,1.3329,1.2262,1.1179,1.1375,1.1082,1.0301,1.0297,1.0297,1.0297,1.1082,1.1082,1.0297,1.1082,1.1673,1.198,1.198,1.2078,1.2273,1.2273,1.2175,1.1975,1.0498,0.9287,0.8292,0.7214,0.6981,0.7066,0.7103,0.6959,0.6821,0.6496,0.6335,0.6044,0.4264,0.2639,0.1156,-0.0612,-0.1515,-0.2022,-0.2022,-0.2121,-0.2321,-0.3225,-0.4124,-0.5022,-0.5318,-0.6515,-0.772,-0.8623,-0.8924,-0.9126,-0.9529,-0.9529,-0.9426,-0.9225,-0.9422,-0.9422,-0.8924,-0.9126,-0.9327,-0.9327,-0.943,-0.9529,-0.9628,-0.9628,-0.9628,-0.9628,-0.9628,-0.9628,-0.9628,-0.9628,-0.9628,-0.9628,-0.9628,-0.9628,-0.9628,-0.9727,-0.9826,-1.0019,-1.0117,-1.0314,-1.0801,-1.0609,-1.0801,0.8006,0.0,0.0,0.0,0.0,0.0,0.0,0.0,0.0,0.0,0.0,0.0,0.0,0.0,0.0,1.7136,1.7189,1.7117,1.6929,1.6734,1.6727,1.6626,1.6626,1.6532,1.625,1.5032,1.4088,1.3499,1.2446,1.1477,1.0391,1.0489,1.0293,0.9608,0.9608,0.9608,0.9608,1.0194,1.0194,0.9608,1.0293,1.069,1.1086,1.1086,1.1086,1.1282,1.0886,1.0783,1.0788,0.9084,0.8066,0.7548,0.6934,0.6809,0.688,0.6926,0.6989,0.7051,0.6829,0.6853,0.6413,0.397,0.1906,0.021,-0.1426,-0.2121,-0.2323,-0.2425,-0.2825,-0.3527,-0.4331,-0.6034,-0.7335,-0.6915,-0.7614,-0.8619,-0.9525,-0.9521,-0.9521,-0.9821,-0.9821,-0.9723,-0.9517,-0.9719,-0.9723,-0.9225,-0.9426,-0.9628,-0.9628,-0.9628,-0.9628,-0.9628,-0.9628,-0.9628,-0.9628,-0.9628,-0.9628,-0.9628,-0.9628,-0.9628,-0.9628,-0.9628,-0.9628,-0.9628,-0.9628,-0.9727,-0.9821,-0.9821,-1.0019,-1.0314,-1.0314,-1.0413,0.0,0.0,0.0,0.0,0.0,0.0,0.0,0.0,0.0,0.0,0.0,0.0,0.0,0.0,1.6821,1.7755,1.7102,1.6358,1.6096,1.5805,1.5886,1.6525,1.6156,1.5873,1.5873,1.4752,1.3601,1.2608,1.1648,1.0583,0.9505,0.941,0.941,0.9308,0.9312,0.9312,0.9312,0.9509,0.9509,0.941,0.9509,0.9509,0.941,0.9509,0.9608,0.9509,0.8616,0.812,0.7935,0.7074,0.6727,0.666,0.6893,0.6991,0.7013,0.7116,0.7154,0.7152,0.703,0.6971,0.633,0.3305,0.042,-0.1863,-0.2334,-0.2522,-0.2522,-0.2724,-0.3729,-0.4937,-0.534,-0.7756,-0.9669,-0.8418,-0.8916,-0.9727,-1.0216,-1.0314,-1.0314,-1.0314,-1.0117,-0.992,-0.992,-0.9727,-0.9628,-0.9628,-0.9628,-0.9628,-0.9628,-0.9628,-0.9628,-0.9628,-0.9628,-0.9628,-0.9628,-0.9628,-0.9628,-0.9628,-0.9628,-0.9628,-0.9628,-0.9628,-0.9628,-0.9628,-0.9529,-0.9529,-0.9529,-0.9529,-0.9529,-0.9529,-0.9821,-0.992,0.0,0.0,0.0,0.0,0.0,0.0,0.0,0.0,0.0,0.0,0.0,0.0,0.0,1.7117,1.7037,1.7412,1.6473,1.5534,1.5064,1.4771,1.4478,1.3998,1.3806,1.3709,1.3522,1.2538,1.1755,1.1556,1.0583,0.9505,0.8418,0.8319,0.7922,0.7132,0.7335,0.7437,0.7437,0.8425,0.8524,0.773,0.8524,0.8524,0.773,0.9015,0.9608,0.9608,0.9312,0.8814,0.8035,0.7883,0.7395,0.6779,0.6929,0.704,0.7122,0.7146,0.7154,0.703,0.5612,0.4813,0.4126,0.2208,-0.0415,-0.2896,-0.2944,-0.3029,-0.3029,-0.313,-0.3932,-0.5033,-0.5929,-0.7329,-0.863,-0.9126,-0.962,-0.992,-1.0019,-0.992,-0.9727,-0.9727,-0.9727,-0.9727,-0.9727,-0.9628,-0.9628,-0.9628,-0.9628,-0.9628,-0.9628,-0.9628,-0.9628,-0.9628,-0.9628,-0.9628,-0.9628,-0.9628,-0.9628,-0.9628,-0.9628,-0.9628,-0.9628,-0.9628,-0.9628,-0.9628,-0.943,-0.9335,-0.9335,-0.9027,-0.913,-0.9236,-0.9126,-0.9422,0.0,0.0,0.0,0.0,0.0,0.0,0.0,0.0,0.0,0.0,0.0,0.0,1.7684,1.7318,1.7138,1.7232,1.6567,1.5717,1.4981,1.4304,1.3727,1.3346,1.2651,1.216,1.2063,1.1179,1.0391,0.9903,0.9509,0.8722,0.7534,0.7531,0.7332,0.6639,0.6842,0.7042,0.7042,0.7733,0.7733,0.7238,0.7733,0.7733,0.7235,0.8028,0.8421,0.8421,0.8326,0.7928,0.7444,0.748,0.717,0.6725,0.685,0.6934,0.6986,0.6769,0.666,0.6433,0.4751,0.3211,0.1802,0.0728,-0.1235,-0.3169,-0.324,-0.323,-0.3331,-0.3831,-0.4732,-0.5829,-0.6924,-0.7922,-0.8924,-0.9426,-0.9727,-0.9826,-0.9826,-0.9727,-0.9628,-0.9628,-0.9628,-0.9628,-0.9628,-0.9628,-0.9628,-0.9628,-0.9628,-0.9628,-0.9628,-0.9628,-0.9628,-0.9628,-0.9628,-0.9628,-0.9628,-0.9628,-0.9628,-0.9628,-0.9628,-0.9628,-0.9628,-0.9628,-0.9628,-0.9628,-0.943,-0.943,-0.943,-0.9229,-0.9229,-0.9236,-0.9229,-0.9327,0.0,0.0,0.0,0.0,0.0,0.0,0.0,0.0,0.0,0.0,0.0,1.787,1.787,1.7412,1.7044,1.6951,1.656,1.5994,1.507,1.4214,1.3534,1.3244,1.2058,1.1175,1.0974,1.0194,0.9312,0.8432,0.8428,0.8031,0.6942,0.7039,0.7138,0.6842,0.7141,0.7238,0.7238,0.7338,0.7338,0.7338,0.7338,0.7338,0.7338,0.7338,0.7338,0.7238,0.6942,0.6842,0.6853,0.6774,0.6722,0.6632,0.686,0.6801,0.659,0.5953,0.5636,0.5314,0.3493,0.1675,-0.0103,-0.0825,-0.204,-0.323,-0.323,-0.323,-0.343,-0.4533,-0.5529,-0.6623,-0.772,-0.8825,-0.9628,-0.9727,-0.9727,-0.9727,-0.9628,-0.9628,-0.9628,-0.9628,-0.9628,-0.9628,-0.9628,-0.9628,-0.9628,-0.9628,-0.9628,-0.9628,-0.9628,-0.9628,-0.9628,-0.9628,-0.9628,-0.9628,-0.9727,-0.9628,-0.9628,-0.9727,-0.9628,-0.9628,-0.9727,-0.9628,-0.9628,-0.9727,-0.9628,-0.9529,-0.9529,-0.9529,-0.9331,-0.9133,-0.9327,-0.9331,0.0,0.0,0.0,0.0,0.0,0.0,0.0,0.0,0.0,0.0,1.5094,1.5642,1.5818,1.592,1.5832,1.5458,1.5547,1.535,1.449,1.4298,1.3715,1.2349,1.1858,1.1072,0.9899,0.9118,0.8528,0.8432,0.7836,0.7338,0.7138,0.7138,0.7138,0.7138,0.7441,0.7547,0.7547,0.7739,0.7939,0.7939,0.7939,0.7939,0.7939,0.7939,0.764,0.7238,0.7138,0.7138,0.7147,0.7283,0.7138,0.6947,0.7066,0.6693,0.5955,0.499,0.4353,0.3497,0.0834,-0.0207,-0.0722,-0.2339,-0.3034,-0.323,-0.323,-0.323,-0.343,-0.4533,-0.5529,-0.6623,-0.772,-0.8825,-0.9727,-1.0216,-1.0314,-1.0216,-0.9723,-0.9628,-0.9628,-0.9628,-0.9628,-0.9628,-0.9628,-0.9628,-0.9628,-0.9628,-0.9628,-0.9628,-0.9628,-0.9628,-0.9628,-0.9628,-0.9628,-0.9821,-1.0216,-0.9821,-0.9821,-1.0216,-0.9826,-0.9826,-1.0314,-0.9826,-0.9826,-1.0314,-0.9628,-0.9236,-0.9236,-0.9027,-0.8924,-0.8825,-0.8924,-0.9027,0.0,0.0,0.0,0.0,0.0,0.0,0.0,0.0,0.0,0.0,1.4478,1.4798,1.5419,1.554,1.554,1.5356,1.5166,1.4975,1.4592,1.3516,1.2635,1.2052,1.0578,0.9304,0.8715,0.8127,0.7736,0.7736,0.7637,0.754,0.7444,0.754,0.754,0.7444,0.7643,0.7842,0.7842,0.7939,0.8038,0.8038,0.8038,0.8038,0.8038,0.8038,0.7839,0.764,0.7441,0.7444,0.7447,0.7302,0.7024,0.6628,0.6779,0.5872,0.4536,0.3813,0.2885,0.175,-0.0409,-0.1122,-0.1426,-0.2732,-0.323,-0.323,-0.323,-0.3632,-0.4332,-0.5429,-0.6426,-0.7521,-0.8623,-0.9422,-1.0019,-0.992,-1.0216,-1.0216,-0.9727,-0.9821,-0.992,-0.9628,-0.9628,-0.9628,-0.9628,-0.9628,-0.9628,-0.9628,-0.9628,-0.9727,-1.0019,-1.0019,-1.0117,-1.0507,-1.0511,-1.0605,-1.0801,-1.0605,-1.0609,-1.0801,-1.0605,-1.0609,-1.0801,-1.0605,-1.0609,-1.0801,-0.992,-0.943,-0.943,-0.9327,-0.9225,-0.9225,-0.9225,-0.9327,0.0,0.0,0.0,0.0,0.0,0.0,0.0,0.0,0.0,0.0,1.4001,1.4247,1.4918,1.521,1.5255,1.5064,1.4783,1.44,1.4004,1.2635,1.1658,1.1165,0.93,0.8021,0.7726,0.7434,0.7238,0.7338,0.7739,0.7942,0.7743,0.7842,0.7942,0.7743,0.7942,0.8038,0.8038,0.8038,0.8038,0.8038,0.8038,0.7839,0.7637,0.7637,0.7437,0.7235,0.7543,0.7743,0.7643,0.7036,0.6531,0.6029,0.5629,0.4522,0.3017,0.2314,0.1308,0.0101,-0.1411,-0.1917,-0.2118,-0.2927,-0.323,-0.323,-0.3531,-0.4133,-0.5033,-0.6426,-0.7422,-0.8223,-0.9324,-0.9924,-1.0117,-0.9821,-1.0216,-1.0413,-0.9723,-0.992,-1.0117,-0.9727,-0.9727,-0.9826,-0.9826,-0.992,-1.0019,-1.0019,-1.0019,-1.0117,-1.0507,-1.0609,-1.0801,-1.1194,-1.1194,-1.1296,-1.1389,-1.1292,-1.1296,-1.1389,-1.1292,-1.1292,-1.1389,-1.1292,-1.1292,-1.1389,-1.0314,-0.9826,-0.9826,-0.9826,-0.9727,-0.9628,-0.9628,-0.9628,0.0,0.0,0.0,0.0,0.0,0.0,0.0,0.0,0.0,1.3157,1.3191,1.3344,1.3643,1.423,1.4496,1.3732,1.4016,1.3709,1.1955,1.2047,1.1356,0.8905,0.8513,0.8024,0.6942,0.7039,0.7341,0.7547,0.7842,0.8038,0.7942,0.8038,0.8038,0.7942,0.8038,0.8038,0.8038,0.8038,0.8038,0.8038,0.8038,0.7437,0.6437,0.6437,0.5932,0.5125,0.7132,0.7942,0.7839,0.6326,0.5522,0.5118,0.3615,0.2412,0.161,0.0503,-0.0403,-0.121,-0.2321,-0.2927,-0.313,-0.323,-0.323,-0.3432,-0.4435,-0.4734,-0.5233,-0.7325,-0.7922,-0.8223,-0.9324,-0.9628,-0.9727,-1.0216,-1.0806,-1.09,-0.9821,-0.9628,-0.9628,-0.9628,-1.0019,-1.0314,-1.0314,-1.0801,-1.1096,-1.1096,-1.1096,-1.1096,-1.1194,-1.1194,-1.1194,-1.1194,-1.1194,-1.1389,-1.1883,-1.1487,-1.1394,-1.1883,-1.1487,-1.1389,-1.198,-1.1487,-1.1487,-1.198,-1.09,-1.0314,-1.0314,-1.0314,-1.0117,-0.9628,-0.9628,-0.9628,0.0,0.0,0.0,0.0,0.0,0.0,0.0,0.0,1.0685,1.1013,1.099,1.0963,1.1203,1.2858,1.3908,1.2931,1.2931,1.2533,1.1058,1.0275,0.9493,0.851,0.7826,0.7235,0.6842,0.7244,0.7543,0.7547,0.7842,0.8038,0.8038,0.8038,0.8038,0.8038,0.8038,0.8038,0.8038,0.8038,0.7637,0.6936,0.6936,0.6232,0.482,0.482,0.4418,0.3814,0.4614,0.5116,0.532,0.4414,0.3814,0.3313,0.2812,0.1609,0.0302,-0.0101,-0.1008,-0.2017,-0.2422,-0.2725,-0.2927,-0.2927,-0.353,-0.4232,-0.4431,-0.5629,-0.6927,-0.7332,-0.8131,-0.8928,-0.9624,-1.0117,-1.0507,-1.1296,-1.1292,-1.1096,-1.0703,-1.0605,-1.0605,-1.0605,-1.0801,-1.09,-1.09,-1.1096,-1.1194,-1.1194,-1.1194,-1.1292,-1.1683,-1.1683,-1.1883,-1.2175,-1.2273,-1.2273,-1.2473,-1.237,-1.2273,-1.2467,-1.237,-1.2273,-1.2467,-1.198,-1.1785,-1.198,-1.1292,-1.0703,-1.0413,-1.0019,-0.9821,-0.9628,-0.9628,-0.9628,0.0,0.0,0.0,0.0,0.0,0.0,0.0,0.0,0.9185,0.9804,0.9741,0.9655,0.9793,1.1392,1.2331,1.1535,1.1512,1.1068,0.9784,0.9,0.8414,0.7925,0.7335,0.6942,0.7045,0.7347,0.7646,0.7746,0.754,0.764,0.7939,0.7637,0.764,0.7939,0.8038,0.8038,0.8038,0.7637,0.7135,0.6437,0.5829,0.4822,0.3416,0.3316,0.2813,0.211,0.1909,0.2611,0.3613,0.281,0.2209,0.1809,0.1307,0.0302,-0.0807,-0.0807,-0.1412,-0.2221,-0.2221,-0.2423,-0.2725,-0.3127,-0.3528,-0.413,-0.4628,-0.5924,-0.7223,-0.7229,-0.823,-0.943,-0.9727,-1.0216,-1.0806,-1.1585,-1.1492,-1.1292,-1.1585,-1.1389,-1.1194,-1.1194,-1.1389,-1.1487,-1.1487,-1.159,-1.1785,-1.1785,-1.1785,-1.1878,-1.2175,-1.2273,-1.237,-1.2764,-1.2764,-1.2764,-1.2764,-1.2764,-1.2764,-1.2764,-1.2764,-1.2764,-1.2764,-1.2467,-1.2175,-1.198,-1.1487,-1.0904,-1.0413,-1.0019,-0.9826,-0.9628,-0.9628,-0.9628,0.0,0.0,0.0,0.0,0.0,0.0,0.0,0.0,0.8665,0.9551,0.9641,0.9435,0.953,0.9683,0.9775,0.9668,0.9862,0.9497,0.812,0.8414,0.8315,0.6942,0.7039,0.7238,0.7543,0.7543,0.7643,0.7839,0.6936,0.6836,0.7839,0.6936,0.6836,0.7839,0.7939,0.7939,0.7939,0.6836,0.6334,0.6234,0.472,0.3316,0.2316,0.1812,0.0907,-0.0101,-0.0606,0.0604,0.2909,0.1407,0.0704,0.0604,-0.1009,-0.1617,-0.1617,-0.1617,-0.1718,-0.2022,-0.2022,-0.2222,-0.2623,-0.363,-0.3327,-0.2923,-0.4924,-0.5625,-0.5922,-0.6921,-0.8421,-0.9628,-0.9628,-1.0019,-1.0609,-1.11,-1.1194,-1.1394,-1.2186,-1.179,-1.1203,-1.1292,-1.1683,-1.1975,-1.1975,-1.2467,-1.2764,-1.2764,-1.2764,-1.2764,-1.2764,-1.2764,-1.2764,-1.2764,-1.2764,-1.2764,-1.2764,-1.2764,-1.2764,-1.2764,-1.2764,-1.2764,-1.2764,-1.2759,-1.2565,-1.198,-1.1487,-1.09,-1.0408,-1.0413,-1.0117,-0.9628,-0.9628,-0.9628,-0.0,0.0,0.0,0.0,0.0,0.0,0.0,0.0,0.5909,0.6214,0.6245,0.657,0.7382,0.6956,0.6599,0.6632,0.7974,0.8582,0.7617,0.7531,0.7531,0.7138,0.6634,0.6331,0.6431,0.5929,0.5627,0.5727,0.5427,0.5327,0.5627,0.5427,0.5427,0.5627,0.5727,0.5727,0.5727,0.502,0.432,0.3521,0.2614,0.1509,0.0101,-0.0101,-0.0505,-0.1212,-0.1314,-0.0908,-0.0302,-0.0706,-0.0908,-0.1009,-0.1414,-0.1617,-0.1617,-0.1617,-0.1617,-0.1819,-0.2623,-0.3025,-0.3325,-0.3629,-0.4126,-0.4824,-0.5227,-0.6221,-0.7512,-0.812,-0.9122,-1.0019,-1.0413,-1.0998,-1.1585,-1.178,-1.1785,-1.1923,-1.2292,-1.2129,-1.2078,-1.2304,-1.2467,-1.257,-1.257,-1.2662,-1.2764,-1.2764,-1.2764,-1.2764,-1.2764,-1.2764,-1.2764,-1.2764,-1.2764,-1.2764,-1.2764,-1.2764,-1.2764,-1.2764,-1.2764,-1.2764,-1.2764,-1.2467,-1.2175,-1.198,-1.1487,-1.1096,-1.1002,-1.0216,-0.9723,-0.9628,-0.9628,-0.9628,0.0,0.0,0.0,0.0,0.0,0.0,0.1594,0.3016,0.4208,0.461,0.4704,0.4917,0.563,0.5235,0.484,0.5062,0.6101,0.6617,0.5879,0.5935,0.6062,0.6062,0.5499,0.5122,0.5122,0.452,0.4117,0.4117,0.3717,0.3417,0.3417,0.3917,0.4117,0.4117,0.4117,0.4117,0.4117,0.3416,0.2714,0.2013,0.1108,0.0101,-0.0808,-0.101,-0.1314,-0.1617,-0.1617,-0.1617,-0.1617,-0.1617,-0.1617,-0.1617,-0.1617,-0.1617,-0.1617,-0.212,-0.2019,-0.1717,-0.2822,-0.3024,-0.2924,-0.3827,-0.4524,-0.512,-0.5824,-0.6918,-0.8107,-0.8414,-0.9316,-1.0332,-1.0911,-1.143,-1.1845,-1.1934,-1.1959,-1.1993,-1.2228,-1.2253,-1.2314,-1.2683,-1.2757,-1.2757,-1.2757,-1.2757,-1.2757,-1.2757,-1.2678,-1.262,-1.2718,-1.2731,-1.2667,-1.2764,-1.2764,-1.2764,-1.2764,-1.2764,-1.2764,-1.2764,-1.2764,-1.2764,-1.2764,-1.2473,-1.2273,-1.198,-1.1688,-1.1389,-1.1194,-1.0314,-0.9826,-0.9628,-0.9821,-0.9826,0.0,0.0,0.0,0.0,0.0,0.0,0.0787,0.1735,0.277,0.3601,0.3767,0.3784,0.3871,0.3873,0.3809,0.4064,0.4002,0.3869,0.3885,0.4149,0.4291,0.4291,0.3954,0.3791,0.3791,0.3198,0.2801,0.2801,0.2008,0.1409,0.1208,0.2311,0.281,0.281,0.281,0.281,0.281,0.181,0.1308,0.1308,-0.0202,-0.0909,-0.0909,-0.1415,-0.1617,-0.1617,-0.1717,-0.1818,-0.1818,-0.1919,-0.1918,-0.1818,-0.1818,-0.1818,-0.1918,-0.2822,-0.2521,-0.1717,-0.2822,-0.2622,-0.2221,-0.4124,-0.452,-0.4616,-0.662,-0.7614,-0.8103,-0.8305,-0.9308,-1.0555,-1.1262,-1.152,-1.1567,-1.177,-1.1817,-1.1822,-1.2161,-1.2166,-1.2274,-1.2506,-1.2575,-1.2643,-1.2643,-1.2643,-1.2638,-1.2612,-1.2446,-1.2414,-1.2589,-1.2501,-1.2467,-1.2667,-1.2662,-1.2662,-1.2662,-1.2662,-1.2662,-1.2662,-1.2764,-1.2764,-1.2764,-1.2759,-1.257,-1.2078,-1.2078,-1.178,-1.1292,-1.0703,-1.0216,-0.9821,-1.0314,-1.0216,0.0,0.0,0.0,0.0,0.0,0.0,-0.2412,-0.2003,-0.1434,-0.0,0.0384,0.0639,0.1435,0.0958,0.064,0.1208,0.0583,0.0963,0.3574,0.4001,0.3915,0.3531,0.2682,0.2112,0.2112,0.1268,0.0591,0.0591,0.04,-0.0101,-0.0908,-0.0,0.0605,0.0605,0.0605,0.0605,0.0605,-0.0,-0.0303,-0.0303,-0.1111,-0.1415,-0.1415,-0.1516,-0.1617,-0.1617,-0.2521,-0.2923,-0.2923,-0.3823,-0.3624,-0.2923,-0.2923,-0.2923,-0.2923,-0.3123,-0.2521,-0.1717,-0.2822,-0.3324,-0.3624,-0.4524,-0.5322,-0.6121,-0.6921,-0.7915,-0.8901,-1.0199,-1.0502,-1.0555,-1.1262,-1.152,-1.1567,-1.177,-1.1817,-1.1865,-1.2039,-1.2077,-1.223,-1.2393,-1.2575,-1.2643,-1.2643,-1.2643,-1.2587,-1.241,-1.2349,-1.2258,-1.217,-1.2103,-1.2078,-1.2175,-1.2175,-1.2175,-1.2175,-1.2175,-1.2175,-1.2175,-1.237,-1.2467,-1.2467,-1.2667,-1.2764,-1.2667,-1.2662,-1.237,-1.1883,-1.1292,-1.0998,-1.0904,-1.0998,-1.0998,0.0,0.0,0.0,-0.441,0.0,0.0,0.0,-0.2818,-0.2355,-0.1371,-0.1205,-0.109,-0.0467,-0.0778,-0.1013,-0.0624,-0.0732,-0.0507,0.0517,0.145,0.1873,0.1685,0.0945,0.0476,0.0476,-0.0288,-0.0774,-0.0774,-0.0788,-0.0996,-0.1594,-0.1106,-0.0808,-0.0808,-0.0808,-0.0808,-0.0808,-0.1111,-0.1212,-0.1212,-0.1516,-0.1918,-0.2422,-0.2422,-0.2722,-0.3224,-0.3725,-0.3725,-0.3224,-0.3825,-0.4024,-0.3924,-0.3423,-0.2923,-0.2421,-0.3022,-0.2822,-0.2622,-0.3924,-0.4423,-0.4624,-0.5622,-0.6321,-0.6921,-0.7723,-0.8715,-0.9805,-1.0605,-1.0801,-1.0973,-1.1484,-1.1666,-1.1746,-1.2054,-1.2129,-1.2157,-1.2266,-1.229,-1.2318,-1.2417,-1.2486,-1.2553,-1.2553,-1.2465,-1.2362,-1.226,-1.2059,-1.1878,-1.1969,-1.1855,-1.1883,-1.198,-1.198,-1.198,-1.198,-1.198,-1.2078,-1.2175,-1.237,-1.2467,-1.2565,-1.2764,-1.2764,-1.2764,-1.2764,-1.2662,-1.237,-1.2175,-1.1683,-1.1194,-1.1487,-1.1492,0.0,0.0,0.0,0.0,0.0,-0.3826,0.0,0.0,0.0,-0.2421,-0.2546,-0.2584,0.0,0.0,0.0,-0.2128,0.0,0.0,0.0,-0.1519,0.0,-0.0628,-0.0739,-0.0939,-0.1304,-0.1682,-0.1977,-0.2094,-0.2017,-0.2037,-0.2158,-0.1992,-0.1912,-0.1919,-0.1718,-0.1617,-0.1617,-0.1818,-0.1919,-0.1919,-0.212,-0.2622,-0.3524,-0.3524,-0.3825,-0.4524,-0.4926,-0.4526,-0.3524,-0.3925,-0.4526,-0.5024,-0.3924,-0.3124,-0.2623,-0.3525,-0.3725,-0.3725,-0.5024,-0.5225,-0.5227,-0.6625,-0.7322,-0.7822,-0.8821,-0.9719,-1.0408,-1.0511,-1.0801,-1.1194,-1.1709,-1.1817,-1.1921,-1.2337,-1.2441,-1.2441,-1.2441,-1.2441,-1.2441,-1.2441,-1.2441,-1.2441,-1.2441,-1.2271,-1.2124,-1.2082,-1.1761,-1.1601,-1.1764,-1.1599,-1.159,-1.178,-1.1883,-1.1883,-1.1883,-1.1883,-1.198,-1.2273,-1.2273,-1.2467,-1.2662,-1.2764,-1.2764,-1.2764,-1.2764,-1.2764,-1.2764,-1.2764,-1.237,-1.1487,-1.198,-1.1883,0.0,0.0,0.0,0.0,-0.5121,0.0,0.0,0.0,-0.5007,-0.4956,0.0,-0.4981,0.0,0.0,0.0,0.0,0.0,0.0,-0.2866,-0.2934,-0.3037,-0.3037,-0.198,-0.1868,-0.3333,-0.3552,-0.3767,-0.4071,-0.3781,-0.3798,-0.4197,-0.3335,-0.2871,-0.3021,-0.212,-0.1617,-0.1617,-0.2521,-0.3022,-0.3022,-0.4024,-0.4524,-0.4624,-0.4624,-0.4124,-0.3525,-0.5432,-0.5629,-0.4724,-0.6631,-0.6936,-0.6134,-0.5027,-0.5129,-0.5834,-0.6034,-0.5429,-0.4624,-0.4824,-0.5127,-0.5634,-0.6234,-0.773,-0.9426,-1.0015,-1.0314,-1.0511,-1.1002,-1.0806,-1.0699,-1.1606,-1.1817,-1.1921,-1.2337,-1.2441,-1.2441,-1.2441,-1.2441,-1.2441,-1.2441,-1.2441,-1.2441,-1.2441,-1.2271,-1.2077,-1.1883,-1.1661,-1.1449,-1.1255,-1.1311,-1.1296,-1.1292,-1.1292,-1.1292,-1.1292,-1.1292,-1.1389,-1.1683,-1.1878,-1.2175,-1.2467,-1.2662,-1.2764,-1.2764,-1.2764,-1.2764,-1.2764,-1.2764,-1.2764,-1.2667,-1.2667,-1.2667,0.0,0.0,0.0,0.0,0.0,0.0,-0.5094,0.0,-0.5335,0.0,0.0,0.0,0.0,0.0,0.0,0.0,-0.3935,-0.3884,0.0,0.0,-0.3597,-0.3446,-0.316,-0.3325,-0.4101,-0.4407,-0.4457,-0.4393,-0.4472,-0.451,-0.4438,-0.4157,-0.3929,-0.3961,-0.3604,-0.3423,-0.3423,-0.3924,-0.4124,-0.4124,-0.4624,-0.5127,-0.5729,-0.5729,-0.5829,-0.6032,-0.6936,-0.693,-0.6224,-0.6833,-0.7033,-0.6828,-0.6029,-0.5629,-0.5429,-0.5429,-0.5629,-0.5829,-0.6418,-0.7021,-0.7528,-0.8131,-0.8829,-0.9628,-0.9821,-1.0117,-1.0413,-1.0703,-1.0801,-1.0969,-1.1461,-1.1728,-1.1893,-1.2195,-1.2356,-1.2441,-1.2441,-1.2441,-1.2441,-1.2441,-1.2441,-1.2403,-1.2285,-1.2091,-1.1883,-1.1676,-1.1468,-1.1298,-1.1208,-1.1194,-1.1194,-1.1194,-1.1194,-1.1194,-1.1194,-1.1194,-1.1389,-1.1785,-1.2273,-1.2467,-1.2662,-1.2759,-1.2764,-1.2764,-1.2764,-1.2667,-1.237,-1.237,-1.2175,-1.1883,-1.2467,-1.2764,-0.4751,0.0,0.0,0.0,0.0,0.0,0.0,0.0,0.0,0.0,0.0,0.0,0.0,0.0,0.0,0.0,0.0,-0.483,0.0,-0.5425,0.0,0.0,0.0,0.0,0.0,-0.5569,-0.562,-0.5339,-0.5513,-0.5425,-0.5156,-0.5023,-0.4936,-0.5085,-0.4856,-0.48,-0.4824,-0.5125,-0.5227,-0.5227,-0.5527,-0.6129,-0.6836,-0.6836,-0.7135,-0.7836,-0.8134,-0.7829,-0.7223,-0.7129,-0.7229,-0.7428,-0.7132,-0.6628,-0.5924,-0.5724,-0.6229,-0.7129,-0.7915,-0.8616,-0.9126,-0.943,-0.9727,-0.9826,-0.9826,-1.0216,-1.0605,-1.0413,-1.0703,-1.1049,-1.1258,-1.1462,-1.1666,-1.1981,-1.229,-1.2332,-1.2223,-1.2332,-1.2332,-1.2223,-1.2285,-1.229,-1.2087,-1.1921,-1.1751,-1.1548,-1.1335,-1.1194,-1.1194,-1.1194,-1.1194,-1.1194,-1.1194,-1.1194,-1.1194,-1.1292,-1.159,-1.2078,-1.2565,-1.2764,-1.2764,-1.2764,-1.2764,-1.2764,-1.2764,-1.257,-1.198,-1.198,-1.1683,-1.1198,-1.198,-1.237,0.0,0.0,0.0,-0.5445,0.0,0.0,0.0,0.0,-0.5359,0.0,0.0,0.0,0.0,0.0,0.0,0.0,0.0,0.0,0.0,0.0,0.0,0.0,0.0,0.0,0.0,-0.7621,-0.7791,-0.7902,-0.7368,-0.7079,-0.7255,-0.6276,-0.5922,-0.6149,-0.5187,-0.4642,-0.4822,-0.5832,-0.6334,-0.6334,-0.7437,-0.7939,-0.7939,-0.7939,-0.7733,-0.7322,-0.8322,-0.8223,-0.7322,-0.8322,-0.8432,-0.8038,-0.8528,-0.8722,-0.8623,-0.8134,-0.8233,-0.8726,-0.8722,-0.9126,-0.9529,-0.9628,-0.992,-1.0413,-1.0413,-1.0703,-1.1096,-1.0507,-1.0413,-1.0457,-1.0641,-1.0839,-1.125,-1.1981,-1.229,-1.2223,-1.1787,-1.2005,-1.2223,-1.1678,-1.1855,-1.2082,-1.1865,-1.1822,-1.1751,-1.1548,-1.1335,-1.1194,-1.1194,-1.1194,-1.1194,-1.1194,-1.1194,-1.1194,-1.1194,-1.1487,-1.1785,-1.237,-1.2667,-1.2764,-1.2764,-1.2764,-1.2764,-1.2764,-1.2764,-1.257,-1.198,-1.198,-1.1683,-1.1194,-1.1194,-1.1292,0.0,0.0,-0.4779,-0.4405,0.0,0.0,0.0,0.0,0.0,0.0,0.0,0.0,0.0,0.0,0.0,0.0,0.0,0.0,0.0,0.0,0.0,0.0,0.0,0.0,0.0,0.0,0.0,-0.7983,-0.772,-0.7494,-0.721,-0.695,-0.6863,-0.6954,-0.6843,-0.676,-0.6801,-0.7189,-0.7437,-0.7437,-0.7839,-0.8237,-0.8531,-0.8531,-0.8428,-0.8322,-0.8623,-0.8623,-0.8322,-0.8623,-0.8928,-0.9031,-0.9229,-0.9327,-0.9327,-0.913,-0.913,-0.9426,-0.9719,-1.0212,-1.0708,-1.0708,-1.0801,-1.09,-1.09,-1.11,-1.1194,-1.0998,-1.09,-1.0918,-1.0982,-1.1157,-1.1434,-1.1611,-1.1992,-1.2135,-1.1921,-1.213,-1.2295,-1.1944,-1.1972,-1.203,-1.168,-1.1619,-1.1548,-1.1335,-1.1241,-1.1194,-1.1194,-1.1194,-1.1194,-1.1194,-1.1194,-1.1194,-1.1194,-1.159,-1.198,-1.237,-1.3481,-1.4154,-1.4154,-1.5011,-1.54,-1.54,-1.54,-1.5109,-1.4332,-1.4332,-1.394,-1.3188,-1.3188,-1.2431,-0.0483,-0.1723,0.0,-0.3467,-0.345,0.0,-0.4554,0.0,-0.4766,0.0,0.0,0.0,0.0,0.0,0.0,0.0,0.0,0.0,0.0,-0.9454,0.0,0.0,0.0,0.0,0.0,0.0,-0.8677,-0.8057,-0.7801,-0.7639,-0.7401,-0.7506,-0.7583,-0.764,-0.7976,-0.8044,-0.7911,-0.8262,-0.8439,-0.8439,-0.8535,-0.8733,-0.9126,-0.8924,-0.9023,-0.932,-0.9122,-0.9225,-0.9418,-0.9418,-0.9422,-0.9628,-0.9826,-0.992,-0.9821,-0.9628,-0.9727,-0.992,-1.0314,-1.0703,-1.1194,-1.1002,-1.0998,-1.1194,-1.1194,-1.1194,-1.1194,-1.0998,-1.09,-1.09,-1.09,-1.1051,-1.1309,-1.1414,-1.1775,-1.192,-1.1709,-1.1912,-1.207,-1.1732,-1.1759,-1.1831,-1.1567,-1.1453,-1.1354,-1.1217,-1.1194,-1.1194,-1.1194,-1.1292,-1.1292,-1.1292,-1.1292,-1.1609,-1.217,-1.2469,-1.3101,-1.3877,-1.4918,-1.5505,-1.5505,-1.6183,-1.6626,-1.6626,-1.6525,-1.6071,-1.528,-1.528,-1.4896,-1.4226,-1.4423,-1.3669]},{"header":{"parameterUnit":"m.s-1","parameterCategory":1,"la1":30.6,"la2":29.2853,"lo1":-89.7004,"lo2":-87.6739,"dy":0.0162,"dx":0.0183,"nx":112,"ny":82,"refTime":"2023-05-14T06:00:00:Z","depth":0,"parameterNumber":3,"parameterNumberName":"V-component_of_WINDS"},"data":[0.0,0.0,0.0,0.0,0.0,0.0,0.0,0.0,0.0,0.0,0.0,0.0,0.0,0.0,0.0,0.0,0.0,0.0,0.0,0.0,0.0,0.0,0.0,0.0,0.0,0.0,0.0,0.0,0.0,0.0,0.0,0.0,0.0,0.0,0.0,0.0,0.0,0.0,0.0,0.0,0.0,0.0,0.0,0.0,0.0,0.0,0.0,0.0,0.0,0.0,0.0,0.0,0.0,0.0,0.0,0.0,0.0,0.0,0.0,0.0,0.0,0.0,0.0,0.0,0.0,0.0,0.0,0.0,0.0,0.0,0.0,0.0,0.0,0.0,0.0,0.0,0.0,0.0,0.0,0.0,0.0,0.0,0.0,0.0,0.0,0.0,0.0,0.0,0.0,0.0,-0.1575,-0.1589,-0.138,-0.1369,-0.1644,-0.1553,-0.1528,-0.1741,0.0,0.0,0.0,0.0,0.0,0.0,0.0,0.0,0.0,0.0,0.0,0.0,0.0,0.0,0.0,0.0,0.0,0.0,0.0,0.0,0.0,0.0,0.0,0.0,0.0,0.0,0.0,0.0,0.0,0.0,0.0,0.0,0.0,0.0,0.0,0.0,0.0,0.0,0.0,0.0,0.0,0.0,0.0,0.0,0.0,0.0,0.0,0.0,0.0,0.0,0.0,0.0,0.0,0.0,0.0,0.0,0.0,0.0,0.0,0.0,0.0,0.0,0.0,0.0,0.0,0.0,0.0,0.0,0.0,0.0,0.0,0.0,0.0,0.0,0.0,0.0,0.0,0.0,0.0,0.0,0.0,0.0,0.0,0.0,0.0,0.0,0.0,0.0,0.0,0.0,0.0,0.0,0.0,0.0,0.0,0.0,0.0,0.0,0.0,0.0,0.0,0.0,0.0,0.0,-0.2488,-0.2072,-0.1858,-0.1835,-0.2029,-0.1835,-0.19,-0.2322,0.0,0.0,0.0,0.0,0.0,0.0,0.0,0.0,0.0,0.0,0.0,0.0,0.0,0.0,0.0,0.0,0.0,0.0,0.0,0.0,0.0,0.0,0.0,0.0,0.0,0.0,0.0,0.0,0.0,0.0,0.0,0.0,0.0,0.0,0.0,0.0,0.0,0.0,0.0,0.0,0.0,0.0,0.0,0.0,0.0,0.0,0.0,0.0,0.0,0.0,0.0,0.0,0.0,0.0,0.0,0.0,0.0,0.0,0.0,0.0,0.0,0.0,0.0,0.0,0.0,0.0,0.0,0.0,0.0,0.0,0.0,0.0,0.0,0.0,0.0,0.0,0.0,0.0,0.0,0.0,0.0,0.0,0.0,0.0,0.0,0.0,0.0,0.0,0.0,0.0,0.0,0.0,0.0,0.0,0.0,0.0,0.0,0.0,0.0,0.0,0.0,0.0,0.0,-0.3368,-0.2997,-0.252,-0.2415,-0.2315,-0.2215,-0.2066,-0.226,-0.2949,-0.2824,0.0,0.0,0.0,0.0,0.0,0.0,0.0,0.0,0.0,0.0,0.0,0.0,0.0,0.0,0.0,0.0,0.0,0.0,0.0,0.0,0.0,0.0,0.0,0.0,0.0,0.0,0.0,0.0,0.0,0.0,0.0,0.0,0.0,0.0,0.0,0.0,0.0,0.0,0.0,0.0,0.0,0.0,0.0,0.0,0.0,0.0,0.0,0.0,0.0,0.0,0.0,0.0,0.0,0.0,0.0,0.0,0.0,0.0,0.0,0.0,0.0,0.0,0.0,0.0,0.0,0.0,0.0,0.0,0.0,0.0,0.0,0.0,0.0,0.0,0.0,0.0,0.0,0.0,0.0,0.0,0.0,0.0,0.0,0.0,0.0,0.0,0.0,0.0,0.0,0.0,0.0,0.0,0.0,0.0,0.0,0.0,0.0,0.0,0.0,0.0,0.0,0.0,-0.3742,-0.3595,-0.3357,-0.3144,-0.2939,-0.2787,-0.2476,-0.2608,-0.3406,-0.3516,0.0,0.0,0.0,0.0,0.0,0.0,0.0,0.0,0.0,0.0,0.0,0.0,0.0,0.0,0.0,0.0,0.0,0.0,0.0,0.0,0.0,0.0,0.0,0.0,0.0,0.0,0.0,0.0,0.0,0.0,0.0,0.0,0.0,0.0,0.0,0.0,0.0,0.0,0.0,0.0,0.0,0.0,0.0,0.0,0.0,0.0,0.0,0.0,0.0,0.0,0.0,0.0,0.0,0.0,0.0,0.0,0.0,0.0,0.0,0.0,0.0,0.0,0.0,0.0,0.0,0.0,0.0,0.0,0.0,0.0,0.0,0.0,0.0,0.0,0.0,0.0,0.0,0.0,0.0,0.0,0.0,0.0,0.0,0.0,0.0,0.0,0.0,0.0,0.0,0.0,0.0,0.0,0.0,0.0,0.0,0.0,0.0,0.0,0.0,0.0,0.0,0.0,-0.4849,-0.47,-0.4918,-0.421,-0.3822,-0.4039,-0.3324,-0.3081,-0.366,-0.3761,0.0,0.0,0.0,0.0,0.0,0.0,0.0,0.0,0.0,0.0,0.0,0.0,0.0,0.0,0.0,0.0,0.0,0.0,0.0,0.0,0.0,0.0,0.0,0.0,0.0,0.0,0.0,0.0,0.0,0.0,0.0,0.0,0.0,0.0,0.0,0.0,0.0,0.0,0.0,0.0,0.0,0.0,0.0,0.0,0.0,0.0,0.0,0.0,0.0,0.0,0.0,0.0,0.0,0.0,0.0,0.0,0.0,0.0,0.0,0.0,0.0,0.0,0.0,0.0,0.0,0.0,0.0,0.0,0.0,0.0,0.0,0.0,0.0,0.0,0.0,0.0,0.0,0.0,0.0,0.0,0.0,0.0,0.0,0.0,0.0,0.0,0.0,0.0,0.0,0.0,0.0,0.0,0.0,0.0,0.0,0.0,0.0,0.0,0.0,0.0,0.0,0.0,-0.5791,-0.5765,0.0,-0.4897,-0.4457,-0.4405,-0.3685,-0.3623,-0.4508,0.0,0.0,0.0,0.0,0.0,0.0,0.0,0.0,0.0,0.0,0.0,0.0,0.0,0.0,0.0,0.0,0.0,0.0,0.0,0.0,0.0,0.0,0.0,0.0,0.0,0.0,0.0,0.0,0.0,0.0,0.0,0.0,0.0,0.0,0.0,0.0,0.0,0.0,0.0,0.0,0.0,0.0,0.0,0.0,0.0,0.0,0.0,0.0,0.0,0.0,0.0,0.0,0.0,0.0,0.0,0.0,0.0,0.0,0.0,0.0,0.0,0.0,0.0,0.0,0.0,0.0,0.0,0.0,0.0,0.0,0.0,0.0,0.0,0.0,0.0,0.0,0.0,0.0,0.0,0.0,0.0,0.0,0.0,0.0,0.0,0.0,0.0,0.0,0.0,0.0,0.0,0.0,0.0,0.0,0.0,0.0,0.0,0.0,0.0,0.0,0.0,0.0,-0.6114,-0.6355,-0.6402,0.0,-0.5608,-0.5217,-0.5058,-0.4405,-0.4347,-0.5154,0.0,0.0,0.0,0.0,0.0,0.0,0.0,0.0,0.0,0.0,0.0,0.0,0.0,0.0,0.0,0.0,0.0,0.0,0.0,0.0,0.0,0.0,0.0,0.0,0.0,0.0,0.0,0.0,0.0,0.0,0.0,0.0,0.0,0.0,0.0,0.0,0.0,0.0,0.0,0.0,0.0,0.0,0.0,0.0,0.0,0.0,0.0,0.0,0.0,0.0,0.0,0.0,0.0,0.0,0.0,0.0,0.0,0.0,0.0,0.0,0.0,0.0,0.0,0.0,0.0,0.0,0.0,0.0,0.0,0.0,0.0,0.0,0.0,0.0,0.0,0.0,0.0,0.0,0.0,0.0,0.0,0.0,0.0,0.0,0.0,0.0,0.0,0.0,0.0,0.0,0.0,0.0,0.0,0.0,0.0,0.0,0.0,0.0,0.0,0.0,0.0,0.0,-0.6349,-0.6447,-0.6662,-0.7084,-0.644,-0.6077,-0.6185,-0.5655,-0.5328,0.0,0.0,0.0,0.0,0.0,0.0,0.0,0.0,0.0,0.0,0.0,0.0,0.0,0.0,0.0,0.0,0.0,0.0,0.0,0.0,0.0,0.0,0.0,0.0,0.0,0.0,0.0,0.0,0.0,0.0,0.0,0.0,0.0,0.0,0.0,0.0,0.0,0.0,0.0,0.0,0.0,0.0,0.0,0.0,0.0,0.0,0.0,0.0,0.0,0.0,0.0,0.0,0.0,0.0,0.0,0.0,0.0,0.0,0.0,0.0,0.0,0.0,0.0,0.0,0.0,0.0,0.0,0.0,0.0,0.0,0.0,0.0,0.0,0.0,0.0,0.0,0.0,0.0,0.0,0.0,0.0,0.0,0.0,0.0,0.0,0.0,0.0,0.0,0.0,0.0,0.0,0.0,0.0,0.0,0.0,0.0,0.0,0.0,0.0,0.0,0.0,0.0,0.0,-0.6556,-0.6842,-0.7087,-0.7086,-0.6465,-0.6047,-0.6212,-0.5643,-0.543,-0.5655,0.0,0.0,0.0,0.0,0.0,0.0,0.0,0.0,0.0,0.0,0.0,0.0,0.0,0.0,0.0,0.0,0.0,0.0,0.0,0.0,0.0,0.0,0.0,0.0,0.0,0.0,0.0,0.0,0.0,0.0,0.0,0.0,0.0,0.0,0.0,0.0,0.0,0.0,0.0,0.0,0.0,0.0,0.0,0.0,0.0,0.0,0.0,0.0,0.0,0.0,0.0,0.0,0.0,0.0,0.0,0.0,0.0,0.0,0.0,0.0,0.0,0.0,0.0,0.0,0.0,0.0,0.0,0.0,0.0,0.0,0.0,0.0,0.0,0.0,0.0,0.0,0.0,0.0,0.0,0.0,0.0,0.0,0.0,0.0,0.0,0.0,0.0,0.0,0.0,0.0,0.0,0.0,0.0,0.0,0.0,0.0,0.0,0.0,0.0,0.0,0.0,0.0,-0.7341,-0.7559,-0.7733,-0.7794,-0.7361,-0.7137,-0.7239,-0.6671,-0.6376,-0.6557,0.0,0.0,0.0,0.0,0.0,0.0,0.0,0.0,0.0,0.0,0.0,0.0,0.0,0.0,0.0,0.0,0.0,0.0,0.0,0.0,0.0,0.0,0.0,0.0,0.0,0.0,0.0,0.0,0.0,0.0,0.0,0.0,0.0,0.0,0.0,0.0,0.0,0.0,0.0,0.0,0.0,0.0,0.0,0.0,0.0,0.0,0.0,0.0,0.0,0.0,0.0,0.0,0.0,0.0,0.0,0.0,0.0,0.0,0.0,0.0,0.0,0.0,0.0,0.0,0.0,0.0,0.0,0.0,0.0,0.0,0.0,0.0,0.0,0.0,0.0,0.0,0.0,0.0,0.0,0.0,0.0,0.0,0.0,0.0,0.0,0.0,0.0,0.0,0.0,0.0,0.0,0.0,0.0,0.0,0.0,0.0,0.0,0.0,0.0,0.0,0.0,0.0,-0.8507,-0.8481,-0.8549,-0.8829,-0.8802,-0.8795,-0.8771,-0.8294,-0.7945,-0.7791,0.0,0.0,0.0,0.0,0.0,0.0,0.0,0.0,0.0,0.0,0.0,0.0,0.0,0.0,0.0,0.0,0.0,0.0,0.0,0.0,0.0,0.0,0.0,0.0,0.0,0.0,0.0,0.0,0.0,0.0,0.0,0.0,0.0,0.0,0.0,0.0,0.0,0.0,0.0,0.0,0.0,0.0,0.0,0.0,0.0,0.0,0.0,0.0,0.0,0.0,0.0,0.0,0.0,0.0,0.0,0.0,0.0,0.0,0.0,0.0,-0.6434,0.0,0.0,0.0,0.0,0.0,0.0,0.0,0.0,0.0,0.0,0.0,0.0,0.0,0.0,0.0,0.0,0.0,0.0,0.0,0.0,0.0,0.0,0.0,0.0,0.0,0.0,0.0,0.0,0.0,0.0,0.0,0.0,0.0,0.0,0.0,0.0,0.0,0.0,0.0,0.0,0.0,-0.9213,-0.881,-0.8682,-0.9299,-0.8895,-0.8549,-0.8553,-0.8587,-0.8564,-0.8403,-0.8105,0.0,0.0,0.0,0.0,0.0,0.0,0.0,0.0,0.0,0.0,0.0,0.0,0.0,0.0,0.0,0.0,0.0,0.0,0.0,0.0,0.0,0.0,0.0,0.0,0.0,0.0,0.0,0.0,0.0,0.0,0.0,0.0,0.0,0.0,0.0,0.0,0.0,0.0,0.0,0.0,0.0,0.0,0.0,0.0,0.0,0.0,0.0,0.0,0.0,0.0,0.0,0.0,0.0,0.0,0.0,0.0,0.0,0.0,0.0,0.0,-0.6399,0.0,0.0,0.0,0.0,0.0,0.0,0.0,0.0,0.0,0.0,0.0,0.0,0.0,0.0,0.0,0.0,0.0,0.0,0.0,0.0,0.0,0.0,0.0,0.0,0.0,0.0,0.0,0.0,0.0,0.0,0.0,0.0,0.0,0.0,0.0,0.0,0.0,0.0,0.0,0.0,-1.0244,-1.0137,-1.0207,-1.0558,-1.0075,-0.9812,-1.015,-0.979,-0.9681,-0.9909,-0.9333,0.0,0.0,0.0,0.0,0.0,0.0,0.0,0.0,0.0,0.0,0.0,0.0,0.0,0.0,0.0,0.0,0.0,0.0,0.0,0.0,0.0,0.0,0.0,0.0,0.0,0.0,0.0,0.0,0.0,0.0,0.0,0.0,0.0,0.0,0.0,0.0,0.0,0.0,0.0,0.0,0.0,0.0,0.0,0.0,0.0,0.0,0.0,0.0,0.0,0.0,0.0,0.0,0.0,-0.8186,-0.8085,-0.8209,-0.8099,-0.7889,-0.7516,-0.6504,-0.6123,-0.6159,-0.6451,0.0,0.0,0.0,0.0,0.0,0.0,0.0,0.0,0.0,0.0,0.0,0.0,0.0,0.0,0.0,0.0,0.0,0.0,0.0,0.0,0.0,0.0,0.0,0.0,-0.8022,-0.79,-0.8461,0.0,0.0,0.0,0.0,0.0,0.0,0.0,0.0,0.0,0.0,0.0,-1.1379,-1.1618,-1.1794,-1.1926,-1.1421,-1.1358,-1.1926,-1.1167,-1.0907,-1.149,-1.0518,-1.0165,0.0,0.0,0.0,0.0,0.0,0.0,0.0,0.0,0.0,0.0,0.0,0.0,0.0,0.0,0.0,0.0,0.0,0.0,0.0,0.0,0.0,0.0,0.0,0.0,0.0,0.0,0.0,0.0,0.0,0.0,0.0,0.0,-1.4535,-1.4165,0.0,0.0,0.0,0.0,0.0,0.0,0.0,0.0,0.0,0.0,0.0,0.0,0.0,-1.0096,-1.0396,-0.9678,-0.945,-0.9776,-0.9119,-0.8614,-0.8164,-0.7988,-0.7652,-0.7178,-0.6914,0.0,-0.708,-0.6878,0.0,0.0,0.0,0.0,0.0,0.0,0.0,0.0,0.0,0.0,0.0,0.0,0.0,0.0,0.0,0.0,0.0,0.0,0.0,0.0,0.0,0.0,-0.9505,-1.0037,-0.9862,-0.9717,0.0,-0.8842,-0.7364,-0.7608,-0.7798,0.0,0.0,0.0,0.0,0.0,0.0,0.0,-1.2537,-1.2027,-1.1764,-1.2328,-1.1973,-1.174,-1.1802,-1.1781,-1.1851,-1.1913,-1.1455,-1.1176,-1.1231,-1.1871,0.0,0.0,0.0,0.0,0.0,0.0,0.0,0.0,0.0,0.0,0.0,0.0,0.0,0.0,0.0,0.0,0.0,0.0,0.0,0.0,0.0,0.0,0.0,0.0,0.0,0.0,0.0,0.0,0.0,-1.3861,-1.3264,-1.2901,-1.2736,-1.2507,0.0,0.0,0.0,0.0,0.0,0.0,0.0,0.0,0.0,-1.052,-1.0606,-1.0664,-1.058,-1.0263,-1.0048,-0.9907,-0.969,-0.9414,-0.9182,-0.9234,-0.9147,-0.8933,-0.8664,-0.8664,-0.8714,-0.7629,-0.7615,-0.8314,0.0,0.0,0.0,0.0,-0.9291,-0.9351,-0.9731,-0.9878,-0.981,-0.9641,0.0,0.0,0.0,0.0,0.0,0.0,0.0,0.0,0.0,0.0,-1.0588,-1.1197,-1.1032,-1.0888,-1.1525,-1.0537,-0.957,0.0,-0.9532,-0.9549,-1.0197,0.0,0.0,0.0,0.0,-1.2529,-1.2905,-1.2739,-1.2757,-1.3009,-1.252,-1.2343,-1.2712,-1.2597,-1.2773,-1.3502,-1.3501,-1.3656,-1.3988,-1.4368,-1.4312,0.0,0.0,0.0,0.0,0.0,0.0,0.0,0.0,0.0,0.0,0.0,0.0,0.0,0.0,0.0,0.0,0.0,0.0,0.0,0.0,0.0,0.0,0.0,0.0,0.0,0.0,0.0,0.0,-1.3087,-1.2659,-1.2088,-1.2159,-1.1958,0.0,0.0,0.0,0.0,0.0,0.0,-1.0666,-1.0899,-1.1003,-1.1021,-1.1422,-1.1564,-1.1418,-1.1452,-1.1293,-1.107,-1.1122,-1.1063,-1.0876,-1.0863,-1.083,-1.0718,-1.0306,-1.0186,-1.0262,-0.8482,-0.813,-0.8652,-0.8856,-0.9295,-0.9817,-1.025,-1.0401,-1.0466,-1.0653,-1.089,-1.1019,-1.0906,-1.1463,-1.2304,-1.2966,0.0,0.0,0.0,0.0,-1.2748,-1.2215,-1.2049,-1.215,-1.2445,-1.2258,-1.2143,-1.2634,-1.2132,-1.1569,0.0,-1.1036,-1.068,-1.1104,0.0,0.0,0.0,0.0,-1.3277,-1.3153,-1.3403,-1.3571,-1.339,-1.3009,-1.3009,-1.3511,-1.3373,-1.3726,-1.4815,-1.5206,-1.5603,-1.6063,-1.6503,-1.6423,-1.5923,0.0,0.0,0.0,0.0,0.0,0.0,0.0,0.0,0.0,0.0,0.0,0.0,0.0,0.0,0.0,0.0,0.0,0.0,0.0,0.0,0.0,0.0,0.0,0.0,0.0,0.0,0.0,0.0,0.0,-1.3042,-1.3208,0.0,0.0,0.0,0.0,-1.1577,-1.1125,-1.1085,-1.1607,-1.1576,-1.1661,-1.1947,-1.2282,-1.2772,-1.3468,-1.3447,-1.3797,-1.4465,-1.4261,-1.3852,-1.3236,-1.26,-1.2069,-1.1718,-1.1157,-1.11,-1.125,-0.932,-0.882,-0.9302,-0.9466,-0.9864,-1.0308,-1.0731,-1.0825,-1.0817,-1.1318,-1.1784,-1.2152,-1.1828,-1.2223,-1.2935,-1.3999,-1.4451,0.0,0.0,-1.5224,-1.529,-1.4687,-1.473,-1.4749,-1.4052,-1.3881,-1.3881,-1.389,-1.3114,-1.2184,0.0,-1.1133,-1.0913,-1.1351,0.0,-1.1931,-1.2706,-1.3159,-1.3432,-1.3476,-1.3795,-1.3709,-1.3103,-1.3277,-1.3511,-1.3769,-1.4273,-1.4845,-1.5313,-1.5928,-1.6213,-1.612,-1.7532,-1.7746,-1.6558,-1.8441,0.0,0.0,0.0,0.0,0.0,0.0,0.0,0.0,0.0,0.0,0.0,0.0,0.0,0.0,0.0,0.0,0.0,0.0,0.0,0.0,0.0,0.0,0.0,0.0,0.0,0.0,0.0,0.0,-1.3592,-1.399,0.0,-1.3684,-1.3547,-1.3575,-1.3835,-1.3282,-1.3124,-1.358,-1.338,-1.3253,-1.3235,-1.3605,-1.3865,-1.4,-1.4005,-1.4138,-1.4395,-1.4329,-1.4123,-1.3916,-1.3663,-1.3467,-1.3312,-1.3129,-1.3012,-1.29,-1.1839,-1.1243,-1.1063,-1.1004,-1.1167,-1.1449,-1.1933,-1.2008,-1.2046,-1.3067,-1.3547,-1.3832,-1.4493,-1.4987,-1.5433,-1.5807,-1.6063,-1.6115,-1.5842,-1.5759,-1.5665,-1.5486,-1.5507,-1.5555,-1.5507,-1.5332,-1.5274,-1.5584,-1.5029,-1.4308,-1.3791,-1.2588,-1.187,-1.2298,-1.2884,-1.3243,-1.3143,-1.371,-1.409,-1.4034,-1.401,-1.4061,-1.4213,-1.4323,-1.456,-1.504,-1.5264,-1.5871,-1.6903,-1.728,-1.7893,-1.872,-1.9374,-1.9458,-1.8908,-1.9517,-1.9197,0.0,0.0,0.0,0.0,0.0,0.0,0.0,0.0,0.0,0.0,0.0,0.0,0.0,0.0,0.0,0.0,0.0,0.0,0.0,0.0,0.0,0.0,0.0,0.0,0.0,0.0,-1.5037,-1.474,-1.5114,-1.5324,-1.5093,-1.5126,-1.5164,-1.5269,-1.4778,-1.4542,-1.4705,-1.4747,-1.4826,-1.4839,-1.5406,-1.5677,-1.5695,-1.5686,-1.5686,-1.5619,-1.5553,-1.5428,-1.5227,-1.4964,-1.478,-1.4655,-1.4454,-1.4317,-1.42,-1.3816,-1.3404,-1.2963,-1.229,-1.2074,-1.2258,-1.2826,-1.307,-1.3364,-1.4678,-1.5108,-1.5274,-1.6425,-1.6944,-1.7112,-1.7168,-1.7224,-1.7224,-1.6765,-1.6595,-1.6528,-1.6255,-1.6244,-1.64,-1.6508,-1.6376,-1.6359,-1.6873,-1.6591,-1.6098,-1.593,-1.4421,-1.3286,-1.3403,-1.3985,-1.4229,-1.3549,-1.4239,-1.4615,-1.4204,-1.4503,-1.4864,-1.5021,-1.5129,-1.5467,-1.6203,-1.6026,-1.6623,-1.8342,-1.8374,-1.8878,-2.0169,-1.995,-1.986,-1.9969,-2.0388,-2.0034,-1.8822,0.0,0.0,0.0,0.0,0.0,0.0,0.0,0.0,0.0,0.0,0.0,0.0,0.0,0.0,0.0,0.0,0.0,0.0,0.0,0.0,0.0,0.0,0.0,-1.6313,-1.6371,-1.6536,-1.6573,-1.6634,-1.6624,-1.6514,-1.6656,-1.6502,-1.5911,-1.5633,-1.5313,-1.4955,-1.5679,-1.6308,-1.676,-1.7706,-1.8269,-1.8637,-1.8715,-1.8626,-1.8549,-1.8347,-1.7881,-1.7254,-1.6496,-1.5986,-1.5512,-1.4979,-1.4937,-1.5124,-1.5124,-1.5115,-1.4953,-1.3252,-1.2605,-1.2666,-1.3338,-1.4001,-1.4756,-1.5901,-1.6358,-1.6482,-1.7434,-1.7734,-1.7789,-1.7888,-1.7954,-1.7954,-1.7867,-1.7965,-1.802,-1.7334,-1.7323,-1.7489,-1.7286,-1.7214,-1.7399,-1.7819,-1.7626,-1.7482,-1.778,-1.6556,-1.5196,-1.4579,-1.4756,-1.4744,-1.3979,-1.4785,0.0,-1.4011,-1.5287,-1.6073,-1.5418,-1.5648,-1.6198,-1.706,-1.6562,-1.7202,-1.9609,-1.9073,-1.9175,-2.0231,-1.9264,-1.9006,-1.9595,-2.1038,-2.138,-2.0557,0.0,0.0,0.0,0.0,0.0,0.0,0.0,0.0,0.0,0.0,0.0,0.0,0.0,0.0,0.0,0.0,0.0,0.0,0.0,0.0,0.0,0.0,-1.8808,-1.7409,-1.7503,-1.786,-1.8219,-1.8278,-1.8532,-1.924,-1.9301,-1.9577,-2.0169,-1.9564,-1.9225,-1.9476,-1.9113,-1.8904,-1.8852,-1.9122,-1.9252,-1.9171,-1.9219,-1.9219,-1.9162,-1.91,-1.8948,-1.8796,-1.8497,-1.7887,-1.6988,-1.6775,-1.6175,-1.5405,-1.5195,-1.523,-1.5339,-1.4667,-1.4507,-1.4672,-1.4754,-1.5358,-1.6255,-1.6754,-1.7213,-1.769,-1.8239,-1.8577,-1.8792,-1.9034,-1.9218,-1.9471,-2.0017,-2.0061,-1.9981,-2.0404,-2.0459,-2.044,-2.0362,-2.033,-2.0378,-2.0511,-1.9735,-1.9126,-1.9576,-1.8516,-1.7323,-1.6524,-1.6406,-1.6402,-1.6005,-1.6212,0.0,-1.5911,-1.6348,-1.6462,-1.6008,-1.612,-1.6773,-1.8226,-1.7934,-1.867,-2.1017,-2.0729,-2.0852,-2.1623,-2.1356,-2.1422,-2.182,-2.1701,-2.1732,0.0,0.0,0.0,0.0,0.0,0.0,0.0,0.0,0.0,0.0,0.0,0.0,0.0,0.0,0.0,0.0,0.0,0.0,0.0,0.0,0.0,0.0,-1.9545,-2.0651,-2.0204,-1.9918,-1.997,-2.0531,-2.0309,-2.0419,-2.1156,-2.1225,-2.1334,-2.1508,-2.1054,-2.0759,-2.0765,-2.0512,-2.038,-2.0472,-2.0638,-2.071,-2.0617,-2.0679,-2.0648,-2.0471,-2.0542,-2.0389,-2.0083,-2.0029,-1.9485,-1.8624,-1.8514,-1.8062,-1.7357,-1.7101,-1.709,0.0,0.0,0.0,0.0,0.0,-1.7147,-1.7698,-1.8111,-1.8419,-1.8714,-1.908,-1.9264,-1.9402,-2.0052,-2.0377,-2.0607,-2.1219,-2.1319,-2.1294,-2.164,-2.1652,-2.166,-2.1844,-2.1895,-2.1958,-2.2185,-2.1584,-2.1058,-2.1384,-2.0747,0.0,-1.9222,-1.8262,-1.7632,-1.7734,-1.7813,-1.7802,-1.7801,-1.8374,-1.8759,-1.8618,-1.8497,-1.8855,-2.0102,-1.9257,0.0,0.0,0.0,-2.178,-2.2483,-2.2863,0.0,0.0,0.0,-2.3348,-2.3861,-2.3559,0.0,0.0,-2.1311,-2.1151,0.0,0.0,0.0,0.0,0.0,0.0,0.0,0.0,0.0,0.0,0.0,0.0,0.0,0.0,0.0,0.0,-2.1315,-2.2644,-2.3586,-2.298,-2.2573,-2.2983,-2.2472,-2.2203,-2.2434,-2.2422,-2.2146,-2.1349,-2.1278,-2.1005,-2.038,0.0,0.0,0.0,0.0,-2.2462,-2.2606,-2.2717,-2.2708,-2.2421,-2.2501,-2.2201,-2.1539,-2.1426,-2.096,-2.0216,-2.0165,-2.0145,-1.9971,-1.9715,-1.9579,-1.9483,-1.7461,-1.6841,-1.7294,-1.8577,-1.9037,-1.9171,-1.9678,0.0,0.0,-2.0135,-2.0123,-2.0205,-2.1166,-2.1506,-2.1693,-2.2095,-2.226,-2.2315,-2.2163,-2.2052,-2.2193,-2.2579,-2.2636,-2.2789,-2.3213,-2.3157,-2.3025,-2.3088,-2.2797,-2.2491,-2.2284,-2.0249,-1.8823,-1.9342,-1.9531,-1.9606,-1.9787,-2.0921,-2.1776,-2.1897,0.0,0.0,-2.22,-2.0764,-2.0629,-2.2536,-2.2435,-2.2597,-2.3186,-2.3956,-2.4142,-2.3656,-2.4752,-2.554,-2.5971,-2.6213,-2.6303,-2.6136,-2.2942,-2.2141,0.0,0.0,0.0,0.0,0.0,0.0,0.0,0.0,0.0,0.0,0.0,0.0,0.0,0.0,0.0,-2.0598,-2.2463,-2.4006,-2.4279,-2.4741,-2.4613,-2.3293,-2.3155,-2.3036,-2.2745,-2.2719,-2.2816,-2.3061,-2.2937,-2.2791,-2.2644,-2.2581,-2.2613,-2.2711,-2.2785,-2.3279,-2.4246,-2.4246,-2.4672,-2.5468,0.0,0.0,-2.4213,-2.3513,-2.2555,-2.1437,-2.1317,-2.0783,-1.9992,-1.991,-2.0344,-2.0819,-1.9444,-1.902,-1.9302,-2.0133,-2.0488,-2.071,-2.0893,-2.1275,-2.1729,-2.1958,-2.2344,-2.2903,-2.334,-2.3527,0.0,-2.4334,-2.439,-2.446,-2.5053,-2.508,-2.4929,-2.4997,-2.494,-2.4813,-2.4681,-2.3953,-2.3585,-2.4328,-2.3296,-2.2789,-2.4169,-2.2808,-2.1522,-2.1524,-2.1686,-2.1863,-2.1787,-2.2084,-2.2043,-2.127,-2.1572,-2.2227,-2.3144,-2.3067,-2.3629,-2.5253,-2.5097,-2.5001,-2.5168,-2.5334,-2.5485,-2.5647,-2.5887,-2.6176,-2.6543,-2.6588,-2.6588,-2.6408,-2.4957,-2.4908,0.0,0.0,0.0,0.0,0.0,0.0,0.0,0.0,0.0,0.0,0.0,-1.9619,0.0,0.0,-2.1622,-2.2407,-2.3817,-2.4965,-2.5546,-2.6048,-2.5946,-2.4801,-2.4326,-2.3874,-2.3197,-2.3077,-2.3043,-2.2979,-2.3306,-2.3762,-2.431,-2.431,-2.4536,-2.4975,-2.5113,-2.546,-2.5973,-2.6178,-2.6599,-2.7097,-2.6598,-2.6334,-2.6251,-2.5583,-2.4981,-2.4377,-2.4369,-2.4032,-2.356,-2.3508,-2.3574,-2.3622,-2.3023,-2.2549,-2.2237,-2.2857,-2.317,-2.3206,-2.2979,-2.3033,-2.3253,-2.3301,-2.355,-2.3874,-2.4406,-2.467,-2.491,-2.5439,-2.5605,-2.5673,-2.5825,-2.5784,-2.5674,-2.5647,-2.5688,-2.5674,-2.5174,-2.4789,-2.4695,-2.5134,-2.4469,-2.4222,-2.5398,-2.4998,-2.4227,-2.3558,-2.3462,-2.3594,-2.4003,-2.4366,-2.446,-2.4103,-2.4083,-2.4317,-2.481,-2.468,-2.5121,-2.6456,-2.6671,-2.6857,-2.7224,-2.7703,-2.7913,-2.7854,-2.8136,-2.8339,-2.8485,-2.8485,-2.8311,-2.7942,-2.7146,-2.6791,0.0,0.0,0.0,0.0,0.0,0.0,0.0,0.0,-1.7813,-1.9698,-2.0034,-2.0401,-2.1966,-2.221,-2.2709,-2.4403,-2.5103,-2.5801,-2.6607,-2.6895,-2.6831,-2.6438,-2.5647,-2.4755,-2.3921,-2.3849,-2.3642,-2.3185,-2.3949,-2.4777,-2.5701,-2.5954,-2.6411,-2.7087,-2.7299,-2.7434,-2.7643,-2.8009,-2.8227,-2.8443,-2.8126,-2.7965,-2.8022,-2.749,-2.734,-2.7395,-2.7346,-2.7165,-2.6985,-2.6828,-2.6374,-2.5858,-2.6102,-2.5641,-2.4909,-2.5422,-2.5641,-2.5633,-2.5105,-2.486,-2.4834,-2.4776,-2.4834,-2.4962,-2.5547,-2.5841,-2.6078,-2.6363,-2.6551,-2.6562,-2.6179,-2.6096,-2.6042,-2.5907,-2.6096,-2.6176,-2.5591,-2.5687,-2.5892,-2.5837,-2.5783,-2.5877,-2.6293,-2.6663,-2.6505,-2.537,-2.5022,-2.5218,-2.5946,-2.6573,-2.699,-2.7195,-2.6986,-2.6853,-2.6965,-2.6514,-2.6672,-2.7566,-2.8009,-2.8458,-2.9059,-2.9826,-3.0044,-2.9633,-3.0038,-3.0293,-3.0276,-3.0276,-3.0048,-2.9581,-2.913,-2.834,-1.3233,-1.3764,-1.4567,-1.5271,-1.568,-1.651,0.0,0.0,-2.0167,-2.1912,-2.2869,-2.3595,-2.4449,-2.4818,-2.513,-2.5805,-2.6225,-2.6594,-2.6661,-2.7105,-2.7432,-2.7365,-2.6854,-2.6089,-2.5216,-2.5529,-2.5743,-2.567,-2.6454,-2.6928,-2.7063,-2.7274,-2.741,-2.757,-2.757,-2.7984,-2.8989,-2.906,-2.9578,-3.0542,-2.9843,-2.9651,-2.9818,-2.9044,-2.8864,-2.9009,-2.8428,-2.7562,-2.6518,-2.6347,-2.5717,-2.5035,-2.613,-2.6406,-2.6175,-2.623,-2.6432,-2.66,-2.6412,-2.6685,-2.7086,-2.6968,-2.7393,-2.7912,-2.7854,-2.7926,-2.8038,-2.7915,-2.7861,-2.7836,-2.7622,-2.7444,-2.7276,-2.7233,-2.71,-2.6901,-2.6573,-2.6745,-2.6849,-2.6625,-2.6745,-2.6901,-2.7004,-2.7268,-2.7289,-2.6558,-2.6678,-2.6849,-2.6953,-2.7369,-2.7705,-2.7705,-2.8529,-2.9217,-2.9724,-2.9702,-2.9729,-2.9907,-2.9992,-3.0041,-3.0123,-3.0225,-3.0208,-3.0048,-3.0091,-3.0159,-3.0185,-3.0185,-3.0252,-3.0385,-3.0418,-2.9978,-1.5541,-1.5591,0.0,0.0,-1.744,-1.8767,-2.0042,-2.0845,-2.1896,-2.4094,-2.4794,-2.5374,-2.6279,-2.6437,-2.6679,0.0,-2.757,-2.756,-2.7277,-2.7666,-2.7841,-2.7508,-2.7499,-2.7108,-2.6126,-2.6174,-2.6372,-2.6602,-2.7433,-2.8187,-2.8812,-2.9063,-2.9376,-2.9921,-3.0513,-3.0989,-3.1371,-3.2192,-3.2748,-3.3183,-3.2803,-3.2405,-3.2103,-3.1457,-3.0971,-3.0663,-3.0416,-3.0083,-2.9767,-2.9233,-2.8844,-2.858,-2.8623,-2.8779,-2.8811,-2.783,-2.7544,-2.7603,-2.7544,-2.7938,-2.8439,-2.8382,-2.8761,-2.9327,-2.9258,-2.9273,-2.9322,-2.9214,-2.9154,-2.9041,-2.8892,-2.8749,-2.8576,-2.8462,-2.8553,-2.8538,-2.8067,-2.8296,-2.8472,-2.8246,-2.8324,-2.8454,-2.8622,-2.8779,-2.881,-2.8529,-2.8307,-2.8148,-2.8148,-2.8607,-2.8965,-2.8965,-2.9403,-2.9772,-2.9995,-3.0081,-3.0192,-3.0344,-3.0767,-3.0915,-3.0785,-3.1414,-3.1597,-3.1271,-3.156,-3.1649,-3.1519,-3.1591,-3.1482,-3.1288,-3.0885,-3.0885,-1.619,0.0,0.0,-1.7581,-1.9597,-2.1435,-2.1877,-2.2865,-2.432,-2.6329,-2.6914,-2.7369,-2.8254,-2.826,-2.8401,-2.8862,-2.8699,-2.837,-2.7786,-2.8032,-2.8074,-2.7659,-2.8011,-2.8172,-2.7614,-2.7404,-2.756,-2.8025,-2.8824,-2.9693,-3.0781,-3.1106,-3.1636,-3.2475,-3.3339,-3.3656,-3.3449,-3.4493,-3.4955,-3.4817,-3.4688,-3.448,-3.4109,-3.3765,-3.3231,-3.2651,-3.2701,-3.2689,-3.2526,-3.2041,-3.1748,-3.1602,-3.1057,-3.1043,-3.1172,-3.0057,-2.9345,-2.8941,-2.8941,-2.9207,-2.958,-2.958,-2.9918,-3.0394,-3.0394,-3.0394,-3.0433,-3.0342,-3.0387,-3.0394,-3.0173,-3.0075,-3.0007,-3.0044,-3.0143,-3.009,-2.9856,-3.0097,-3.0269,-3.0107,-3.0145,-3.0228,-3.0412,-3.0407,-3.0391,-3.0514,-3.0081,-2.9626,-2.9351,-2.9897,-3.0327,-3.0468,-3.0583,-3.063,-3.063,-3.0751,-3.0892,-3.1065,-3.1595,-3.1794,-3.1636,-3.2423,-3.2684,-3.2353,-3.2719,-3.2872,-3.2681,-3.2749,-3.2598,-3.2307,-3.1702,-3.1918,0.0,0.0,-1.7293,-1.9307,-2.1851,-2.4189,-2.536,-2.6803,-2.8011,-2.8659,-2.9478,-3.0186,-3.0554,-3.0711,-3.0557,-2.9803,-2.9386,-2.8911,-2.817,-2.8079,-2.8079,-2.8052,-2.8639,-2.9213,0.0,-2.9771,-2.9954,-3.0538,-3.1368,-3.2128,-3.2791,-3.3325,-3.3945,-3.4684,-3.505,-3.515,-3.494,-3.5005,-3.4955,-3.4817,-3.4802,-3.4999,-3.537,-3.5661,-3.5518,-3.5095,-3.5232,-3.4583,-3.3465,-3.3786,-3.338,-3.2579,-3.2656,-3.2656,-3.2625,-3.3119,-3.2201,-3.0734,-3.0734,-3.0734,-3.0734,-3.0734,-3.1005,-3.1375,-3.1375,-3.139,-3.1399,-3.1125,-3.1523,-3.1969,-3.1597,-3.1534,-3.1662,-3.2207,-3.1709,-3.1307,-3.1945,-3.2101,-3.2131,-3.2115,-3.222,-3.2266,-3.2128,-3.1913,-3.1859,-3.227,-3.2073,-3.1497,-3.041,-3.1009,-3.1737,-3.2196,-3.235,-3.24,-3.24,-3.253,-3.2692,-3.2822,-3.2854,-3.2885,-3.296,-3.2991,-3.2991,-3.296,-3.2991,-3.3057,-3.3184,-3.3184,-3.3243,-3.3343,-3.3255,-3.3332,0.0,0.0,-2.1028,-2.251,-2.5111,-2.74,-2.7882,-2.933,-3.0761,-3.1502,-3.0752,-3.0092,-3.0672,-3.0123,-2.9674,-3.0038,-3.0152,-3.0021,-2.9514,-2.9094,-2.873,-2.8332,-2.8923,0.0,0.0,0.0,0.0,-3.1672,-3.3045,-3.3685,-3.3463,-3.4254,-3.4838,-3.4904,-3.5631,-3.6058,-3.6106,-3.6584,-3.6919,-3.7097,-3.6477,-3.6306,-3.6508,-3.6182,-3.5982,-3.5922,-3.5968,-3.5843,-3.553,-3.5081,-3.4872,-3.4737,-3.4254,-3.4265,-3.4643,-3.481,-3.4143,-3.3069,-3.2609,-3.2431,-3.2282,-3.1725,-3.1587,-3.1569,-3.1549,-3.1737,-3.2048,-3.2403,-3.2793,-3.3166,-3.3486,-3.3437,-3.3372,-3.3566,-3.334,-3.3242,-3.3876,-3.3981,-3.4058,-3.4333,-3.445,-3.4375,-3.4213,-3.4119,-3.3933,-3.3477,-3.2808,-3.2213,-3.1952,-3.2057,-3.2281,-3.2548,-3.2695,-3.2777,-3.2777,-3.2854,-3.2978,-3.3136,-3.3325,-3.3496,-3.3652,-3.3795,-3.3847,-3.3847,-3.3839,-3.376,-3.3662,-3.3606,-3.3662,-3.3797,-3.3504,-3.3643,-1.9721,-2.2014,-2.3958,-2.5603,-2.7826,-2.9834,-3.0453,-3.1529,-3.2593,-3.3307,-3.1531,-3.0149,-3.1024,-3.0206,-2.9402,-2.9295,-2.9937,-3.0163,-2.9595,-2.9002,-2.887,-2.9393,-2.9923,-3.0787,0.0,0.0,0.0,-3.3325,-3.4216,-3.4751,-3.467,-3.5409,-3.5869,-3.5948,-3.6843,-3.7306,-3.7361,-3.7994,-3.8463,-3.8728,-3.8197,-3.8028,-3.8084,-3.762,-3.7472,-3.7572,-3.7687,-3.7817,-3.789,-3.7464,-3.7469,-3.7601,-3.7075,-3.7073,-3.7387,-3.7387,-3.6999,-3.6274,-3.4828,-3.4074,-3.3804,-3.3695,-3.3697,-3.3761,-3.3745,-3.3909,-3.4102,-3.4202,-3.4529,-3.4889,-3.4975,-3.4861,-3.4844,-3.5182,-3.4981,-3.4964,-3.5694,-3.5847,-3.5959,-3.6211,-3.6252,-3.6184,-3.6041,-3.5874,-3.5493,-3.4666,-3.4146,-3.3593,-3.3001,-3.2947,-3.2996,-3.3082,-3.3288,-3.3413,-3.3413,-3.3561,-3.3721,-3.3854,-3.4031,-3.4195,-3.4321,-3.4435,-3.4502,-3.4502,-3.4458,-3.439,-3.4274,-3.4208,-3.4203,-3.4221,-3.3961,-3.4037,-2.1751,-2.397,-2.616,-2.8397,-3.0086,-3.1517,-3.299,-3.3389,-3.3553,-3.3955,-3.1922,-3.0315,0.0,0.0,-2.9656,-2.7761,-2.8862,-2.9681,-2.8864,-2.8134,-2.8664,0.0,0.0,0.0,0.0,0.0,0.0,-3.5424,0.0,-3.5404,-3.6384,-3.6691,-3.7144,-3.77,-3.8528,-3.8827,-3.8557,-3.9156,-3.9456,-3.9476,-3.9784,-3.9884,-3.9935,-3.9935,-3.9935,-3.9935,-4.0217,-4.0331,-4.0331,-4.0689,-4.0802,-4.0802,-4.0802,-4.0689,-4.0577,-4.0577,-4.0463,-3.9944,-3.7328,-3.5866,-3.5268,-3.6422,-3.7064,-3.7444,-3.7396,-3.7412,-3.7246,-3.6398,-3.6624,-3.6949,-3.6093,-3.5888,-3.6148,-3.7122,-3.6816,-3.6545,-3.7523,-3.7774,-3.7774,-3.7774,-3.7756,-3.7685,-3.7506,-3.7176,-3.6667,-3.5932,-3.6083,-3.5622,-3.3728,-3.3744,-3.3944,-3.397,-3.4234,-3.439,-3.439,-3.4693,-3.4908,-3.4908,-3.4908,-3.4908,-3.4908,-3.4908,-3.4908,-3.4908,-3.4908,-3.4889,-3.4889,-3.4889,-3.4792,-3.4626,-3.4626,-3.4561,-2.5082,-2.7209,-2.9034,-3.0544,-3.2098,-3.342,-3.3822,-3.4542,-3.4606,-3.2617,-3.0508,-2.8425,0.0,0.0,0.0,-2.7165,-2.9978,0.0,-3.2034,-3.1165,0.0,0.0,0.0,-3.3295,-3.4681,-3.5597,0.0,0.0,-3.7131,-3.6935,-3.6554,-3.737,-3.7985,-3.8311,-3.8535,-3.8957,-3.9629,-3.9986,-3.9919,-3.9476,-3.9784,-3.9985,-4.0217,-4.0217,-4.0283,-4.0414,-4.0577,-4.0625,-4.0528,-4.0737,-4.0754,-4.0642,-4.0642,-4.0594,-4.0449,-4.0449,-4.0058,-3.9549,-3.9705,-3.8772,-3.7381,-3.7036,-3.6661,-3.631,-3.6186,-3.6422,-3.6734,-3.6996,-3.7427,-3.7877,-3.8472,-3.8526,-3.8591,-3.9165,-3.9091,-3.9037,-3.9749,-3.9855,-3.9961,-4.0414,-3.9918,-3.9263,-3.8627,-3.8432,-3.8177,-3.7571,-3.7567,-3.7221,-3.6103,-3.5929,-3.6031,-3.6381,-3.5907,-3.5593,-3.5635,-3.5151,-3.4851,-3.4908,-3.4908,-3.4908,-3.4908,-3.4908,-3.4908,-3.4908,-3.4908,-3.4908,-3.4905,-3.4906,-3.4888,-3.4887,-3.4907,-3.4889,-2.7085,-2.917,-3.0878,-3.1713,-3.3283,-3.4376,-3.3475,-3.3589,-3.3168,-3.0412,-2.7947,0.0,0.0,0.0,0.0,0.0,0.0,0.0,-3.2609,-3.1593,-3.1535,0.0,-3.3665,0.0,-3.5768,-3.6353,-3.689,0.0,-3.7727,-3.7653,-3.7326,-3.7844,-3.8205,-3.8214,-3.8684,-3.9404,-4.0514,-4.0802,-4.0814,-4.0556,-4.0839,-4.1041,-4.1168,-4.1122,-4.1168,-4.1248,0.0,-4.1428,-4.1578,-4.1401,-4.1569,-4.1855,-4.1508,-4.142,-4.1499,-4.1331,-4.1068,-4.0867,-4.1541,-4.1135,-4.013,-3.9294,-3.8762,-3.8399,-3.8503,-3.8738,-3.8981,-3.9212,-3.9447,-3.9658,-3.9935,-3.994,-3.998,-4.0383,-4.0365,-4.0418,-4.095,-4.0969,-4.0987,-4.1317,-4.0929,-4.0437,-3.9933,-3.9667,-3.9416,-3.9117,-3.8876,-3.8589,-3.8258,-3.7451,-3.7024,-3.7263,-3.6952,-3.6708,-3.6767,-3.6388,-3.6176,-3.6212,-3.6231,-3.6231,-3.6231,-3.6231,-3.623,-3.6262,-3.6262,-3.6258,-3.6316,-3.6304,-3.6288,-3.6236,-3.6239,-3.6207,-2.8715,-3.0633,-3.2323,-3.2652,-3.4057,-3.484,-3.2633,-3.1838,-3.07,-2.7757,0.0,-2.3356,-2.3985,-2.5393,-2.6428,-2.6381,0.0,-3.1427,-3.2412,-3.1356,-3.1665,-3.4904,-3.4763,-3.4997,-3.6523,-3.7134,-3.7417,-3.7358,-3.7567,-3.7817,-3.8107,-3.8107,-3.8107,-3.8132,-3.9119,-4.0136,-4.1255,-4.1498,-4.1719,-4.1917,-4.2145,-4.2287,-4.2287,-4.2145,-4.2145,-4.2169,-4.2097,-4.2374,-4.2829,-4.2333,-4.2696,-4.3483,-4.2675,-4.2637,-4.2905,-4.2577,-4.2616,-4.281,-4.2829,-4.2829,-4.2696,-4.2008,-4.1788,-4.1788,-4.2157,-4.2279,-4.2217,-4.192,-4.185,-4.1724,-4.1052,-4.0887,-4.0975,-4.1401,-4.1383,-4.1383,-4.1743,-4.1711,-4.1544,-4.1388,-4.1383,-4.1364,-4.1176,-4.0811,-4.0542,-4.057,-4.0076,-3.9797,-4.0065,-3.8656,-3.7667,-3.7688,-3.7775,-3.7812,-3.7831,-3.791,-3.7932,-3.7932,-3.7951,-3.7951,-3.7936,-3.7939,-3.797,-3.805,-3.8027,-3.805,-3.8138,-3.8138,-3.8059,-3.7882,-3.7871,-3.7808,-3.212,-3.3267,-3.4249,-3.4751,-3.538,-3.5168,-3.2485,-3.1756,0.0,0.0,0.0,-2.2852,-2.0383,-2.2219,-2.4671,-2.6435,0.0,0.0,0.0,0.0,-3.4905,0.0,0.0,0.0,0.0,0.0,0.0,0.0,-3.7508,-3.77,-3.7759,-3.7759,-3.8214,-3.9176,-4.0334,-4.11,-4.1515,-4.1762,-4.1892,-4.1874,-4.2061,-4.2145,-4.2145,-4.2246,-4.2356,-4.2523,-4.2494,0.0,-4.3296,-4.3032,-4.3105,-4.3379,-4.296,-4.296,-4.3191,-4.2848,-4.2772,-4.2829,-4.305,-4.2941,-4.2714,-4.2886,-4.2659,-4.24,-4.2698,-4.2736,-4.2698,-4.2647,-4.2611,-4.2649,-4.2847,-4.2915,-4.2983,-4.3324,-4.3407,-4.3375,-4.3412,-4.3295,-4.2975,-4.2246,-4.229,-4.2198,-4.1549,-4.1568,-4.1762,-4.2006,-4.134,-4.0921,-4.1187,-4.0169,-3.9539,-3.9757,-3.927,-3.8942,-3.8992,-3.8492,-3.8148,-3.8163,-3.8194,-3.8208,-3.8155,-3.8142,-3.8193,-3.8243,-3.819,-3.8221,-3.8344,-3.8344,-3.8324,-3.8291,-3.8241,-3.8194,-3.3046,-3.4049,-3.4885,-3.5297,-3.5661,-3.4958,-3.1274,0.0,0.0,0.0,0.0,-2.1425,-1.9945,0.0,0.0,0.0,0.0,0.0,0.0,0.0,0.0,0.0,0.0,0.0,0.0,0.0,0.0,0.0,-3.7976,-3.7934,-3.77,-3.8116,-3.887,-4.0085,-4.0638,-4.1202,-4.1762,-4.1805,-4.1892,-4.2019,-4.2037,-4.2079,-4.2187,-4.2205,-4.2292,-4.248,-4.2454,-4.2752,-4.321,-4.3014,-4.3332,-4.3869,-4.345,-4.3517,-4.3838,-4.3453,-4.3334,-4.3351,-4.3619,-4.3505,-4.3301,-4.3767,-4.3419,-4.2885,-4.323,-4.33,-4.3318,-4.3493,-4.3526,-4.356,-4.3763,-4.3828,-4.3828,-4.391,-4.3865,-4.3734,-4.3652,-4.3744,-4.3757,-4.3336,-4.3519,-4.3603,-4.32,-4.3014,-4.2985,-4.3054,-4.2479,-4.2086,-4.2221,-4.1856,-4.1262,-4.0441,-4.0063,-3.9892,-3.9973,-3.9619,-3.9441,-3.9495,-3.9522,-3.9535,-3.9503,-3.9499,-3.9515,-3.9596,-3.9561,-3.9624,-3.9762,-3.9762,-3.9742,-3.9746,-3.9723,-3.968,-3.3657,-3.4779,-3.5717,-3.5691,-3.583,-3.4731,-3.0035,-2.8428,0.0,0.0,0.0,-2.0295,-2.0392,0.0,0.0,0.0,0.0,0.0,0.0,0.0,0.0,0.0,0.0,0.0,0.0,0.0,0.0,0.0,-3.8488,-3.8399,-3.8001,-3.8723,-3.9613,-4.0763,-4.0874,-4.1276,-4.1934,-4.1892,-4.1952,-4.2079,-4.1987,-4.2055,-4.2246,-4.2251,-4.2356,-4.2555,-4.2534,-4.2846,-4.3265,-4.3123,-4.3568,-4.4355,-4.3937,-4.3998,-4.4327,-4.4023,-4.3868,-4.3849,-4.4221,-4.4102,-4.3918,-4.443,-4.4023,-4.3353,-4.3758,-4.3823,-4.3873,-4.4135,-4.4214,-4.4214,-4.4214,-4.4214,-4.4195,-4.4097,-4.3873,-4.3744,-4.3726,-4.3967,-4.4195,-4.4224,-4.4504,-4.4754,-4.4706,-4.4398,-4.4128,-4.4067,-4.356,-4.3194,-4.3229,-4.3181,-4.2604,-4.1189,-4.0945,-4.08,-4.068,-4.0639,-4.0675,-4.0754,-4.0784,-4.0788,-4.0791,-4.0796,-4.0809,-4.0873,-4.0876,-4.0913,-4.1033,-4.1033,-4.1033,-4.1033,-4.1003,-4.0972,-3.5474,-3.6934,-3.776,-3.6818,-3.6504,-3.4999,-2.9446,0.0,0.0,0.0,-2.0346,-2.0478,-2.0497,0.0,0.0,0.0,0.0,0.0,0.0,0.0,0.0,0.0,0.0,0.0,0.0,0.0,0.0,-3.8391,-3.8778,-3.9053,-3.8983,-3.956,-4.0268,-4.1041,-4.1516,-4.1874,-4.2061,-4.2061,-4.2037,-4.2005,-4.1884,-4.1909,-4.2145,-4.2559,-4.2847,-4.3051,-4.3212,-4.349,0.0,-4.3818,-4.4046,-4.4402,-4.4289,-4.426,-4.4289,-4.426,-4.4065,-4.3881,-4.4522,-4.4522,-4.4289,-4.4595,-4.4345,-4.3955,-4.4248,-4.4296,-4.4237,-4.4285,-4.4285,-4.4285,-4.4285,-4.4285,-4.4296,-4.4298,-4.4194,-4.4195,-4.4371,-4.4485,-4.4562,-4.4638,-4.4815,-4.4988,-4.5033,-4.5166,-4.5247,-4.5247,-4.4576,-4.4131,-4.4261,-4.3692,-4.3241,-4.314,-4.248,-4.173,-4.0943,-4.0986,-4.1026,-4.0984,-4.1037,-4.1059,-4.1059,-4.1052,-4.1091,-4.1167,-4.1107,-4.1116,-4.1171,-4.1171,-4.1171,-4.1171,-4.1068,-4.1004,-3.5442,-3.6552,-3.6918,-3.6696,-3.5555,-3.3421,-2.943,0.0,0.0,-2.1191,-2.0434,-2.0497,-2.0444,0.0,0.0,0.0,0.0,0.0,0.0,0.0,0.0,0.0,0.0,0.0,0.0,0.0,0.0,-3.9348,-3.9525,-3.9902,-4.0508,-4.0621,-4.1013,-4.1778,-4.1959,-4.2061,-4.2103,-4.2103,-4.2079,-4.2055,-4.2079,-4.2205,-4.2391,-4.2613,-4.2921,-4.3283,-4.3371,-4.3474,0.0,-4.3974,-4.4114,-4.4053,-4.4192,-4.425,-4.425,-4.425,-4.4004,-4.3781,-4.4495,-4.4541,-4.4279,-4.4613,-4.4532,-4.4364,-4.4496,-4.4468,-4.443,-4.4373,-4.4344,-4.4325,-4.4495,-4.4617,-4.4657,-4.4644,-4.4575,-4.4511,-4.4588,-4.4824,-4.5023,-4.5001,-4.5265,-4.5475,-4.5457,-4.5513,-4.5568,-4.5513,-4.5329,-4.5179,-4.5254,-4.5079,-4.479,-4.43,-4.3494,-4.2646,-4.1811,-4.1753,-4.1559,-4.1091,-4.1088,-4.1104,-4.1109,-4.1101,-4.1113,-4.113,-4.1115,-4.1111,-4.113,-4.113,-4.113,-4.113,-4.1094,-4.1054,-3.4455,-3.5754,-3.6387,-3.6289,-3.4745,-3.243,0.0,0.0,-2.4389,-2.1157,-2.0502,-2.0497,-2.0444,-2.0425,0.0,0.0,0.0,-2.4227,0.0,0.0,0.0,0.0,0.0,0.0,0.0,0.0,-3.9435,-4.0053,-4.0153,-4.0528,-4.1356,-4.1455,-4.1692,-4.2228,-4.2145,-4.2061,-4.2019,-4.2019,-4.2019,-4.2061,-4.2145,-4.2374,-4.2768,-4.2768,-4.2995,-4.3406,-4.3474,-4.3474,0.0,-4.4004,-4.4114,-4.3949,-4.424,-4.4269,-4.421,-4.4327,-4.4125,-4.3875,-4.4522,-4.4595,-4.4439,-4.4667,-4.4685,-4.4605,-4.4578,-4.4524,-4.4458,-4.4401,-4.4393,-4.4486,-4.477,-4.49,-4.4976,-4.5039,-4.4998,-4.4916,-4.496,-4.5187,-4.5399,-4.5361,-4.5563,-4.5738,-4.5709,-4.5706,-4.5703,-4.5671,-4.5752,-4.5841,-4.5879,-4.6007,-4.5871,-4.5306,-4.4689,-4.389,-4.2816,-4.2676,-4.2421,-4.1908,-4.188,-4.1748,-4.1494,-4.1479,-4.1364,-4.1107,-4.1097,-4.1099,-4.1091,-4.1091,-4.1091,-4.1091,-4.1093,-4.1108,-3.2515,-3.4955,-3.6908,-3.5701,-3.4555,-3.2618,0.0,0.0,-2.4394,-2.1158,-2.0506,-2.0507,-2.0507,-2.05,-2.0484,-2.0402,0.0,0.0,0.0,0.0,0.0,0.0,0.0,0.0,0.0,-3.7516,-3.9365,-4.0302,-4.0546,0.0,-4.1192,-4.1874,-4.2246,-4.2103,-4.2103,-4.1977,-4.1797,-4.178,-4.1823,-4.1874,-4.1917,-4.232,-4.3087,-4.3087,-4.3212,-4.3406,-4.3675,-4.3627,0.0,-4.3931,-4.4192,-4.4221,-4.4541,-4.4458,-4.4151,-4.4621,-4.4522,-4.425,-4.4726,-4.4914,-4.487,-4.4821,-4.4712,-4.4578,-4.4515,-4.444,-4.4383,-4.4314,-4.4495,-4.4776,-4.5096,-4.5159,-4.5159,-4.5342,-4.5381,-4.5417,-4.556,-4.5648,-4.57,-4.568,-4.5635,-4.5622,-4.5693,-4.5765,-4.58,-4.58,-4.5859,-4.5959,-4.6091,-4.6098,-4.6144,-4.6277,-4.628,-4.5578,-4.3821,-4.3684,-4.3684,-4.3665,-4.3665,-4.3297,-4.2419,-4.2399,-4.1975,-4.1126,-4.1097,-4.1103,-4.1094,-4.1094,-4.1094,-4.1094,-4.1094,-4.109,-2.9687,-3.0779,-3.1276,-3.0265,-2.9426,-2.82,-2.5717,0.0,-2.3174,-2.0963,-2.0499,-2.0496,-2.0508,-2.0492,-2.048,-2.041,-2.103,0.0,0.0,0.0,0.0,0.0,0.0,0.0,0.0,0.0,-4.0186,-4.0844,-4.1276,-4.1692,-4.2127,-4.2577,-4.2673,-4.2246,-4.2269,-4.2378,-4.2562,-4.2639,-4.2811,-4.3068,-4.3193,-4.3419,-4.3638,-4.359,-4.3754,-4.4004,-4.4053,-4.4011,-4.3931,-4.4317,-4.4345,-4.4121,-4.4199,-4.414,-4.4048,-4.424,-4.424,-4.4181,-4.456,-4.4719,-4.4745,-4.4685,-4.4632,-4.4578,-4.4515,-4.443,-4.4354,-4.4467,-4.4853,-4.5265,-4.5323,-4.5472,-4.5591,-4.5661,-4.5661,-4.57,-4.5715,-4.5715,-4.5712,-4.5747,-4.5747,-4.5761,-4.5822,-4.5852,-4.5863,-4.5863,-4.5959,-4.6033,-4.6041,-4.6143,-4.6238,-4.6226,-4.6273,-4.5831,-4.4699,-4.4582,-4.4328,-4.3743,-4.3704,-4.3587,-4.3294,-4.329,-4.3157,-4.2886,-4.287,-4.2871,-4.2871,-4.2871,-4.2871,-4.2867,-4.2262,-4.1982,0.0,-2.8941,-2.9286,-2.8657,-2.7595,0.0,0.0,0.0,-2.2215,-2.0786,-2.0494,-2.049,-2.0506,-2.0506,-2.0472,-2.041,-2.0758,0.0,0.0,0.0,0.0,0.0,0.0,0.0,0.0,-3.9717,-4.0844,-4.1499,-4.1709,-4.2092,-4.2634,-4.294,-4.2996,-4.277,-4.2772,-4.2848,-4.3068,-4.3139,-4.3332,-4.3601,-4.3684,-4.3849,-4.4035,-4.3836,-4.3962,-4.4346,-4.4279,-4.425,0.0,-4.4532,-4.4477,-4.4248,-4.4248,-4.4248,-4.4258,-4.4317,-4.4345,-4.4402,-4.456,-4.4659,-4.4693,-4.47,-4.4751,-4.4758,-4.4688,-4.4549,-4.4467,-4.4806,-4.5185,-4.5472,-4.5541,-4.5658,-4.5805,-4.5805,-4.5776,-4.5765,-4.577,-4.5746,-4.5752,-4.5789,-4.5822,-4.5852,-4.5889,-4.594,-4.5977,-4.5952,-4.6053,-4.612,-4.608,-4.6184,-4.6265,-4.6249,-4.6284,-4.6083,-4.5536,-4.5492,-4.5258,-4.4716,-4.4677,-4.4521,-4.4208,-4.4196,-4.4042,-4.3709,-4.3691,-4.3709,-4.3709,-4.3707,-4.3704,-4.3698,-4.3132,-4.2893,0.0,0.0,0.0,0.0,0.0,0.0,0.0,0.0,0.0,0.0,-2.0497,-2.0506,-2.0506,-2.0542,-2.0549,-2.0504,-2.0532,0.0,0.0,0.0,0.0,0.0,0.0,0.0,-3.6996,-3.9425,-4.1303,-4.2228,-4.1984,-4.2056,-4.2772,-4.3014,-4.3265,-4.3505,-4.3517,-4.3446,-4.3345,-4.3345,-4.3465,-4.3698,-4.3619,-4.3862,-4.4346,-4.398,-4.4023,0.0,-4.4374,-4.4346,-4.4346,-4.4595,-4.4632,-4.4524,-4.4605,-4.4659,-4.4712,-4.4712,-4.4738,-4.4789,-4.4693,-4.4685,-4.4719,-4.4862,-4.4985,-4.5096,-4.4976,-4.4811,-4.4757,-4.5265,-4.5417,-4.549,-4.5737,-4.5805,-4.581,-4.581,-4.5757,-4.5727,-4.5719,-4.5766,-4.5822,-4.5815,-4.5875,-4.5911,-4.5901,-4.6018,-4.6084,-4.5994,-4.611,-4.6191,-4.6191,-4.6208,-4.6229,-4.6286,-4.6308,-4.6308,-4.6289,-4.6287,-4.6306,-4.6308,-4.6308,-4.5937,-4.5137,-4.5098,-4.4707,-4.3906,-4.3886,-4.3885,-4.3878,-4.3886,-4.3879,-4.3879,-4.3821,-4.3782,-2.6127,0.0,-2.5604,-2.4871,-2.4822,0.0,0.0,0.0,0.0,0.0,0.0,-2.0503,-2.0509,-2.0997,-2.1405,-2.1338,-2.2281,0.0,0.0,0.0,0.0,0.0,0.0,-3.9095,-3.8364,-4.0141,-4.1613,-4.2175,-4.2476,-4.2691,-4.2786,-4.3336,-4.3642,-4.3642,-4.4143,-4.426,-4.4004,-4.4046,-4.4223,-4.4591,-4.4584,-4.4688,-4.49,-4.4758,-4.4758,-4.4852,-4.4802,-4.4751,-4.4751,-4.4821,-4.4821,-4.4815,-4.4821,-4.4815,-4.4789,-4.4789,-4.4719,-4.4659,-4.4632,-4.4578,-4.4578,-4.4745,-4.4985,-4.5203,-4.5323,-4.5285,-4.5246,-4.5361,-4.5558,-4.5723,-4.5776,-4.588,-4.5936,-4.5894,-4.5911,-4.5935,-4.5927,-4.5907,-4.5913,-4.6001,-4.6045,-4.6058,-4.6054,-4.6073,-4.6067,-4.5937,-4.6046,-4.6108,-4.6055,-4.6178,-4.6268,-4.6239,-4.6268,-4.6267,-4.616,-4.6246,-4.6308,-4.6308,-4.6308,-4.6211,-4.5996,-4.5994,-4.5894,-4.5699,-4.5692,-4.5685,-4.5682,-4.5698,-4.5695,-4.5675,-4.5012,-4.4699,-2.5702,-2.5351,-2.4873,-2.438,-2.4327,-2.4157,0.0,0.0,0.0,0.0,0.0,0.0,-2.1574,0.0,0.0,0.0,-2.4454,0.0,0.0,0.0,0.0,0.0,0.0,-3.9646,0.0,-4.0902,-4.1864,-4.2356,-4.2613,-4.2844,-4.3069,-4.3575,-4.3931,-4.4121,-4.4602,-4.4726,-4.4412,-4.4522,-4.4681,-4.4895,-4.4919,-4.4967,-4.5038,-4.4967,-4.501,-4.5038,-4.501,-4.4991,-4.4991,-4.4943,-4.4895,-4.4846,-4.4821,-4.4821,-4.4821,-4.4789,-4.4764,-4.4738,-4.4659,-4.4732,-4.4915,-4.5099,-4.5323,-4.5543,-4.561,-4.5626,-4.5626,-4.5577,-4.5708,-4.586,-4.5848,-4.5906,-4.5949,-4.5946,-4.5947,-4.5956,-4.5956,-4.5975,-4.6006,-4.6002,-4.6052,-4.6072,-4.603,-4.6016,-4.5975,-4.5916,-4.5995,-4.6045,-4.6008,-4.6147,-4.6256,-4.6254,-4.6228,-4.6175,-4.6111,-4.6108,-4.6119,-4.6119,-4.6119,-4.6119,-4.6119,-4.6123,-4.6147,-4.621,-4.6216,-4.624,-4.63,-4.63,-4.63,-4.6292,-4.5824,-4.5586,-2.5668,-2.5897,-2.6013,-2.5761,-2.5146,-2.4581,0.0,0.0,0.0,0.0,0.0,0.0,0.0,0.0,0.0,0.0,0.0,0.0,0.0,0.0,0.0,0.0,0.0,0.0,-4.0635,-4.149,-4.2151,-4.2631,-4.267,-4.2882,-4.332,-4.3721,-4.4084,-4.4477,-4.487,-4.4962,-4.4738,-4.4846,-4.4919,-4.4919,-4.501,-4.5033,-4.5038,-4.4986,-4.501,-4.5125,-4.5084,0.0,-4.5103,-4.5057,-4.4943,-4.4821,-4.477,-4.4821,-4.4895,-4.4789,-4.4796,-4.487,-4.477,-4.5007,-4.5342,-4.5543,-4.5742,-4.586,-4.5814,-4.5847,-4.586,-4.5819,-4.586,-4.5917,-4.5889,-4.592,-4.5952,-4.5994,-4.5977,-4.5924,-4.5924,-4.5994,-4.6033,-4.5914,-4.5991,-4.603,-4.5901,-4.5885,-4.5879,-4.5867,-4.5939,-4.5986,-4.5986,-4.6099,-4.6201,-4.6297,-4.6167,-4.6064,-4.6064,-4.5959,-4.5886,-4.5863,-4.5878,-4.5899,-4.5899,-4.5899,-4.5949,-4.6064,-4.6076,-4.6131,-4.624,-4.6236,-4.6231,-4.6215,-4.6245,-4.6215,-2.5492,-2.6738,-2.7476,-2.6054,-2.5551,-2.5414,0.0,0.0,0.0,0.0,0.0,0.0,0.0,0.0,0.0,0.0,0.0,0.0,0.0,0.0,0.0,0.0,0.0,-4.0463,-3.9992,-4.1273,-4.2418,-4.305,-4.3087,-4.3105,-4.316,-4.3744,-4.4042,-4.4023,-4.4549,-4.4821,-4.4789,-4.4919,-4.5014,-4.508,-4.508,-4.5148,-4.5235,-4.5192,-4.517,-4.517,0.0,-4.5103,-4.5103,-4.5103,-4.5061,-4.5038,-4.5038,-4.5033,-4.4967,-4.4943,-4.4914,-4.4821,-4.491,-4.5142,-4.5417,-4.5555,-4.5703,-4.5814,-4.58,-4.5814,-4.5808,-4.5808,-4.5889,-4.5969,-4.592,-4.6033,-4.6141,-4.61,-4.607,-4.608,-4.608,-4.5995,-4.5916,-4.5899,-4.592,-4.592,-4.5835,-4.5809,-4.5789,-4.5665,-4.5803,-4.593,-4.593,-4.6021,-4.6156,-4.628,-4.6072,-4.593,-4.593,-4.5859,-4.5766,-4.5648,-4.5803,-4.5899,-4.5899,-4.5899,-4.591,-4.593,-4.5919,-4.5938,-4.5959,-4.5889,-4.5847,-4.5805,-4.5979,-4.5998,-2.5453,-2.6619,-2.7571,-2.7679,-2.8273,0.0,0.0,0.0,0.0,0.0,0.0,0.0,0.0,0.0,0.0,0.0,0.0,0.0,0.0,0.0,0.0,0.0,0.0,-4.0079,-4.0531,-4.1311,-4.2092,-4.267,-4.2976,-4.316,-4.325,-4.3899,-4.4279,-4.4336,-4.4751,-4.4943,-4.4943,-4.5014,-4.5014,-4.4991,-4.508,-4.5125,-4.5192,-4.517,-4.5148,-4.5148,0.0,-4.5103,-4.5103,-4.5057,-4.5057,-4.5038,-4.501,-4.4967,-4.4962,-4.4962,-4.4895,-4.4876,-4.5182,-4.5343,-4.5488,-4.5747,-4.5867,-4.5912,-4.5867,-4.591,-4.5958,-4.5959,-4.6016,-4.6049,-4.6014,-4.6046,-4.6087,-4.6097,-4.6033,-4.6005,-4.6072,-4.5996,-4.592,-4.5996,-4.594,-4.5889,-4.5871,-4.5815,-4.5786,-4.5731,-4.5794,-4.5847,-4.5847,-4.5929,-4.6024,-4.6084,-4.5949,-4.5847,-4.5847,-4.5752,-4.5668,-4.5603,-4.5692,-4.5713,-4.5699,-4.5679,-4.5675,-4.5678,-4.5684,-4.5698,-4.5744,-4.5699,-4.5673,-4.5645,-4.5732,-4.5808,-2.5455,-2.6464,-2.7563,-2.8748,0.0,0.0,0.0,0.0,0.0,0.0,0.0,0.0,0.0,0.0,0.0,0.0,0.0,0.0,0.0,-3.8168,-3.798,-3.88,-3.9291,-4.0036,-4.1251,-4.1648,-4.2032,-4.2613,-4.2995,-4.3336,-4.3557,-4.4154,-4.4549,-4.4712,-4.4943,-4.508,-4.508,-4.5057,-4.5033,-4.4943,-4.5057,-4.5103,-4.5103,-4.508,-4.508,-4.508,-4.5057,-4.5038,-4.5057,-4.501,-4.5014,-4.5038,-4.4943,-4.4919,-4.4967,-4.4967,-4.4995,-4.5068,-4.5436,-4.5577,-4.5626,-4.5905,-4.5994,-4.5986,-4.5944,-4.6008,-4.6079,-4.6092,-4.6105,-4.6128,-4.6122,-4.6091,-4.6078,-4.6137,-4.6013,-4.592,-4.6041,-4.5939,-4.5863,-4.5949,-4.5897,-4.584,-4.584,-4.5789,-4.5757,-4.5757,-4.5786,-4.58,-4.58,-4.5835,-4.5867,-4.5908,-4.5783,-4.5708,-4.5708,-4.5599,-4.555,-4.555,-4.555,-4.5531,-4.5476,-4.5476,-4.5475,-4.5468,-4.5451,-4.5466,-4.5542,-4.5491,-4.5459,-4.5464,-4.5497,-4.5565,-2.5453,-2.6874,-2.8099,-2.8026,0.0,0.0,0.0,0.0,0.0,0.0,0.0,0.0,0.0,0.0,0.0,0.0,0.0,0.0,-4.1292,0.0,-4.0916,-4.0976,-4.1208,-4.1438,-4.1725,-4.24,-4.3014,-4.3579,-4.3646,-4.3791,-4.4132,-4.4486,-4.4685,-4.4712,-4.4895,-4.501,-4.501,-4.4962,-4.4967,-4.5103,-4.5103,-4.5103,-4.5103,-4.5033,-4.501,-4.4991,-4.4943,-4.4919,-4.4919,-4.4895,-4.5019,-4.5159,-4.4972,-4.5014,-4.5192,-4.5178,-4.5264,-4.5399,-4.5673,-4.5786,-4.5794,-4.5953,-4.5988,-4.5987,-4.5987,-4.5994,-4.6016,-4.6075,-4.6148,-4.6191,-4.6191,-4.6243,-4.628,-4.6277,-4.6091,-4.5899,-4.591,-4.5756,-4.5618,-4.5635,-4.5618,-4.5618,-4.5618,-4.562,-4.562,-4.562,-4.5712,-4.58,-4.58,-4.5747,-4.5769,-4.5894,-4.5623,-4.5438,-4.5438,-4.5419,-4.5419,-4.5419,-4.5419,-4.5419,-4.5419,-4.5419,-4.5419,-4.54,-4.5341,-4.5319,-4.532,-4.5194,-4.5109,-4.5042,-4.5222,-4.5303,-2.5469,-2.756,-2.9525,-2.9571,0.0,0.0,0.0,0.0,0.0,0.0,0.0,0.0,0.0,0.0,0.0,0.0,0.0,-4.0488,-4.1578,-4.156,-4.1453,-4.1453,-4.1542,-4.1613,-4.177,-4.244,-4.294,-4.3194,-4.3735,-4.4132,-4.425,-4.4541,-4.4712,-4.4712,-4.477,-4.4796,-4.4796,-4.4789,-4.4796,-4.4846,-4.4938,-4.4986,-4.4967,-4.4943,-4.4938,-4.487,-4.4846,-4.4796,-4.4789,-4.4789,-4.4919,-4.5132,-4.5197,-4.526,-4.5321,-4.5322,-4.5687,-4.6244,-4.6468,-4.6892,-4.7303,-4.699,-4.6878,-4.6785,-4.6287,-4.612,-4.6126,-4.615,-4.621,-4.6258,-4.6258,-4.6214,-4.615,-4.6064,-4.5949,-4.5841,-4.5841,-4.5708,-4.5618,-4.5699,-4.5654,-4.5623,-4.5703,-4.5619,-4.5577,-4.5712,-4.5632,-4.5545,-4.5545,-4.5528,-4.5526,-4.5574,-4.5493,-4.54,-4.54,-4.54,-4.54,-4.54,-4.54,-4.54,-4.54,-4.54,-4.536,-4.5279,-4.5256,-4.5192,-4.5125,-4.5061,-4.4991,-4.4943,-4.5019,-4.5113,-2.6539,-2.83,-3.0102,0.0,0.0,0.0,0.0,0.0,0.0,0.0,0.0,0.0,0.0,0.0,0.0,0.0,-4.0446,-4.1941,-4.1788,-4.1788,-4.1744,-4.1604,-4.1675,-4.1762,-4.1909,-4.2537,-4.2996,-4.314,-4.3862,-4.4308,-4.4421,-4.4595,-4.4712,-4.4712,-4.4712,-4.4712,-4.4712,-4.4712,-4.4712,-4.4712,-4.4796,-4.4821,-4.4821,-4.4821,-4.4796,-4.4789,-4.4789,-4.477,-4.4821,-4.4821,-4.4967,-4.5235,-4.5688,-4.5878,-4.5898,-4.6185,-4.6683,-4.7255,-4.7418,-4.7884,-4.8288,-4.7592,-4.7405,-4.7289,-4.6443,-4.621,-4.6228,-4.6228,-4.6258,-4.63,-4.6296,-4.6201,-4.6064,-4.593,-4.5828,-4.5718,-4.5684,-4.558,-4.553,-4.5619,-4.5591,-4.5574,-4.5655,-4.5549,-4.5524,-4.5661,-4.551,-4.54,-4.54,-4.54,-4.54,-4.538,-4.538,-4.538,-4.538,-4.536,-4.5378,-4.5378,-4.538,-4.538,-4.5359,-4.5378,-4.5317,-4.5235,-4.5213,-4.5148,-4.5061,-4.5038,-4.501,-4.4919,-4.4919,-4.4995,-2.8843,-2.906,0.0,0.0,0.0,0.0,0.0,0.0,0.0,0.0,0.0,0.0,0.0,0.0,0.0,0.0,-4.1833,-4.2657,-4.2239,-4.2216,-4.205,-4.1675,-4.1892,-4.2103,-4.2103,-4.2768,-4.3356,-4.3693,-4.4011,-4.4355,-4.4667,-4.4712,-4.4712,-4.4693,-4.4693,-4.4693,-4.4693,-4.4712,-4.4712,-4.4693,-4.4712,-4.4712,-4.4712,-4.4712,-4.4712,-4.4712,-4.4712,-4.4846,-4.5084,-4.5103,-4.5237,-4.5496,-4.6502,-4.6918,-4.702,-4.7863,-4.8288,-4.841,-4.849,-4.8554,-4.8487,-4.7611,-4.7406,-4.7342,-4.6465,-4.6243,-4.63,-4.63,-4.63,-4.6296,-4.6299,-4.6209,-4.6072,-4.5927,-4.575,-4.5568,-4.543,-4.5362,-4.5297,-4.5297,-4.5338,-4.5398,-4.5398,-4.54,-4.54,-4.54,-4.54,-4.54,-4.54,-4.54,-4.5359,-4.5317,-4.5297,-4.5297,-4.5297,-4.5297,-4.5297,-4.5297,-4.5297,-4.5297,-4.5297,-4.5297,-4.5297,-4.5297,-4.5235,-4.5192,-4.5192,-4.5125,-4.508,-4.4991,-4.4991,-4.4967,-2.6638,0.0,0.0,0.0,0.0,0.0,0.0,0.0,0.0,0.0,0.0,0.0,0.0,0.0,0.0,-3.9662,-4.1268,-4.2714,-4.2619,-4.2619,-4.2619,-4.2639,-4.2678,-4.2716,-4.2867,-4.3369,-4.3772,-4.3968,-4.4288,-4.4595,-4.4838,-4.4789,-4.4862,-4.5068,-4.5049,-4.5049,-4.5049,-4.4862,-4.4862,-4.5049,-4.4862,-4.4732,-4.4712,-4.4712,-4.4685,-4.4632,-4.4632,-4.4659,-4.4693,-4.5023,-4.5647,-4.6433,-4.687,-4.7418,-4.7998,-4.8249,-4.8744,-4.9316,-4.934,-4.9794,-5.0125,-4.8739,-4.8346,-4.815,-4.6715,-4.6284,-4.6303,-4.6303,-4.626,-4.6211,-4.6118,-4.5987,-4.5859,-4.5786,-4.5631,-4.5522,-4.5419,-4.5381,-4.5361,-4.5317,-4.5317,-4.5319,-4.5341,-4.53,-4.53,-4.5381,-4.5361,-4.5339,-4.5339,-4.5338,-4.5317,-4.5297,-4.5297,-4.5297,-4.5297,-4.5297,-4.5297,-4.5297,-4.5297,-4.5297,-4.5297,-4.5297,-4.5297,-4.5297,-4.5275,-4.5254,-4.5192,-4.517,-4.5125,-4.4991,-4.5057,-4.4991,-2.9115,0.0,0.0,0.0,0.0,0.0,0.0,0.0,0.0,0.0,0.0,0.0,0.0,0.0,0.0,-4.0615,-4.1756,-4.2903,-4.2977,-4.3032,-4.3014,-4.3032,-4.3032,-4.3069,-4.3176,-4.3656,-4.4011,-4.4154,-4.4503,-4.4783,-4.5007,-4.4985,-4.503,-4.5201,-4.5201,-4.5201,-4.5201,-4.5052,-4.5052,-4.5201,-4.503,-4.4957,-4.4881,-4.4881,-4.4881,-4.4833,-4.491,-4.4915,-4.4934,-4.5668,-4.6334,-4.6995,-4.782,-4.845,-4.8952,-4.9281,-4.9726,-5.0171,-5.0182,-5.0356,-5.0414,-4.9078,-4.8517,-4.8066,-4.6677,-4.626,-4.625,-4.6265,-4.6183,-4.6096,-4.6027,-4.5835,-4.5665,-4.5592,-4.55,-4.54,-4.5298,-4.5279,-4.5279,-4.5235,-4.5235,-4.5256,-4.526,-4.5237,-4.5256,-4.5341,-4.5319,-4.5297,-4.5297,-4.5297,-4.5297,-4.5297,-4.5297,-4.5297,-4.5297,-4.5297,-4.5297,-4.5297,-4.5297,-4.5297,-4.5297,-4.5297,-4.5297,-4.5297,-4.5297,-4.5275,-4.5235,-4.5235,-4.5192,-4.5125,-4.5125,-4.5103,0.0,0.0,0.0,0.0,0.0,0.0,0.0,0.0,0.0,0.0,0.0,0.0,0.0,0.0,-4.2978,-4.26,-4.2867,-4.3177,-4.3338,-4.3424,-4.3353,-4.305,-4.3211,-4.3316,-4.3316,-4.3772,-4.4143,-4.4336,-4.4638,-4.4943,-4.5203,-4.5243,-4.5243,-4.5244,-4.5263,-4.5263,-4.5263,-4.5222,-4.5222,-4.5243,-4.5222,-4.5222,-4.5243,-4.5222,-4.5201,-4.5222,-4.5381,-4.5472,-4.5584,-4.6634,-4.712,-4.7386,-4.9049,-4.9745,-4.99,-5.0635,-5.0906,-5.0887,-5.0825,-5.0399,-4.9755,-4.8794,-4.8084,-4.7424,-4.6484,-4.6201,-4.6201,-4.6189,-4.6099,-4.6005,-4.598,-4.5734,-4.5488,-4.5418,-4.5342,-4.5275,-4.5148,-4.5125,-4.5125,-4.5125,-4.517,-4.5213,-4.5213,-4.5275,-4.5297,-4.5297,-4.5297,-4.5297,-4.5297,-4.5297,-4.5297,-4.5297,-4.5297,-4.5297,-4.5297,-4.5297,-4.5297,-4.5297,-4.5297,-4.5297,-4.5297,-4.5297,-4.5297,-4.5297,-4.5317,-4.5317,-4.5317,-4.5317,-4.5317,-4.5317,-4.5235,-4.5213,0.0,0.0,0.0,0.0,0.0,0.0,0.0,0.0,0.0,0.0,0.0,0.0,0.0,-4.2903,-4.2976,-4.2826,-4.3196,-4.3563,-4.3749,-4.3828,-4.3905,-4.406,-4.4121,-4.4151,-4.4229,-4.4457,-4.465,-4.4682,-4.4943,-4.5203,-4.5418,-4.5436,-4.5507,-4.5677,-4.5665,-4.5668,-4.5668,-4.5456,-4.5438,-4.558,-4.5438,-4.5438,-4.558,-4.5323,-4.5201,-4.5201,-4.5263,-4.5343,-4.5566,-4.6485,-4.7356,-4.8237,-4.9301,-5.0094,-5.0674,-5.0848,-5.0906,-5.0825,-5.0234,-4.9984,-4.9653,-4.8152,-4.7596,-4.7353,-4.6469,-4.6209,-4.6209,-4.6203,-4.6102,-4.5956,-4.5809,-4.5626,-4.5457,-4.5361,-4.5258,-4.5213,-4.5192,-4.5213,-4.5275,-4.5275,-4.5275,-4.5275,-4.5275,-4.5297,-4.5297,-4.5297,-4.5297,-4.5297,-4.5297,-4.5297,-4.5297,-4.5297,-4.5297,-4.5297,-4.5297,-4.5297,-4.5297,-4.5297,-4.5297,-4.5297,-4.5297,-4.5297,-4.5297,-4.5297,-4.5338,-4.5378,-4.5378,-4.538,-4.538,-4.5398,-4.5361,-4.53,0.0,0.0,0.0,0.0,0.0,0.0,0.0,0.0,0.0,0.0,0.0,0.0,-4.2693,-4.2864,-4.2957,-4.292,-4.316,-4.3477,-4.3818,-4.4023,-4.4207,-4.4344,-4.4486,-4.4602,-4.4629,-4.4838,-4.5007,-4.5137,-4.5222,-4.54,-4.5632,-4.5613,-4.5645,-4.5791,-4.5781,-4.575,-4.575,-4.5599,-4.5599,-4.57,-4.5599,-4.5599,-4.568,-4.5528,-4.5437,-4.5437,-4.5475,-4.5545,-4.5706,-4.6571,-4.7272,-4.785,-4.874,-4.9339,-4.9707,-4.9737,-4.9751,-4.9702,-4.9342,-4.8996,-4.856,-4.769,-4.7152,-4.6787,-4.6332,-4.6196,-4.6189,-4.6111,-4.5988,-4.5822,-4.565,-4.5507,-4.5381,-4.5319,-4.5275,-4.5254,-4.5254,-4.5275,-4.5297,-4.5297,-4.5297,-4.5297,-4.5297,-4.5297,-4.5297,-4.5297,-4.5297,-4.5297,-4.5297,-4.5297,-4.5297,-4.5297,-4.5297,-4.5297,-4.5297,-4.5297,-4.5297,-4.5297,-4.5297,-4.5297,-4.5297,-4.5297,-4.5297,-4.5297,-4.5338,-4.5338,-4.5338,-4.536,-4.536,-4.5398,-4.536,-4.5339,0.0,0.0,0.0,0.0,0.0,0.0,0.0,0.0,0.0,0.0,0.0,-4.2616,-4.2616,-4.2826,-4.2995,-4.3032,-4.3142,-4.3355,-4.3767,-4.4073,-4.4266,-4.4354,-4.461,-4.4819,-4.4849,-4.5052,-4.5263,-4.5495,-4.5475,-4.5547,-4.5765,-4.5731,-4.5715,-4.5781,-4.5735,-4.57,-4.57,-4.5684,-4.5684,-4.5684,-4.5684,-4.5684,-4.5684,-4.5684,-4.5684,-4.57,-4.5765,-4.5781,-4.5858,-4.6718,-4.7081,-4.7192,-4.8048,-4.8392,-4.8421,-4.8483,-4.8521,-4.8518,-4.8429,-4.7959,-4.7383,-4.7239,-4.6733,-4.6196,-4.6196,-4.6196,-4.6162,-4.6027,-4.5859,-4.5675,-4.5522,-4.54,-4.5297,-4.5275,-4.5275,-4.5275,-4.5297,-4.5297,-4.5297,-4.5297,-4.5297,-4.5297,-4.5297,-4.5297,-4.5297,-4.5297,-4.5297,-4.5297,-4.5297,-4.5297,-4.5297,-4.5297,-4.5297,-4.5297,-4.5275,-4.5297,-4.5297,-4.5275,-4.5297,-4.5297,-4.5275,-4.5297,-4.5297,-4.5275,-4.5297,-4.5317,-4.5317,-4.5317,-4.5359,-4.5399,-4.5339,-4.5359,0.0,0.0,0.0,0.0,0.0,0.0,0.0,0.0,0.0,0.0,-4.3221,-4.3566,-4.3461,-4.3444,-4.3497,-4.3652,-4.36,-4.3649,-4.3942,-4.4005,-4.417,-4.453,-4.4643,-4.4825,-4.5118,-4.5322,-4.5457,-4.5495,-4.5601,-4.5684,-4.5715,-4.5715,-4.5715,-4.5715,-4.5687,-4.5709,-4.5709,-4.5637,-4.5603,-4.5603,-4.5603,-4.5603,-4.5603,-4.5603,-4.5654,-4.57,-4.5715,-4.5715,-4.5773,-4.6642,-4.7059,-4.7187,-4.7998,-4.8387,-4.8503,-4.8494,-4.8536,-4.8487,-4.7805,-4.7499,-4.7299,-4.6582,-4.6287,-4.6196,-4.6196,-4.6196,-4.6162,-4.6027,-4.5859,-4.5675,-4.5522,-4.54,-4.5275,-4.5148,-4.5125,-4.5148,-4.5256,-4.5297,-4.5297,-4.5297,-4.5297,-4.5297,-4.5297,-4.5297,-4.5297,-4.5297,-4.5297,-4.5297,-4.5297,-4.5297,-4.5297,-4.5297,-4.5297,-4.5235,-4.5148,-4.5235,-4.5235,-4.5148,-4.5254,-4.5254,-4.5125,-4.5254,-4.5254,-4.5125,-4.5297,-4.5398,-4.5398,-4.538,-4.5381,-4.54,-4.5381,-4.538,0.0,0.0,0.0,0.0,0.0,0.0,0.0,0.0,0.0,0.0,-4.2958,-4.3282,-4.3542,-4.3582,-4.3582,-4.3667,-4.3734,-4.38,-4.3929,-4.421,-4.443,-4.4591,-4.4924,-4.5225,-4.5362,-4.551,-4.5618,-4.5618,-4.5635,-4.5671,-4.5706,-4.5671,-4.5671,-4.5706,-4.5673,-4.564,-4.564,-4.5603,-4.5586,-4.5586,-4.5586,-4.5586,-4.5586,-4.5586,-4.562,-4.5654,-4.5687,-4.5706,-4.5726,-4.6105,-4.6306,-4.6424,-4.6757,-4.6978,-4.7106,-4.7131,-4.7177,-4.7155,-4.6834,-4.6725,-4.6677,-4.6326,-4.6196,-4.6196,-4.6196,-4.6146,-4.6047,-4.5871,-4.5722,-4.5555,-4.5419,-4.53,-4.5192,-4.5213,-4.5148,-4.5148,-4.5275,-4.5235,-4.5213,-4.5297,-4.5297,-4.5297,-4.5297,-4.5297,-4.5297,-4.5297,-4.5297,-4.5275,-4.5192,-4.5192,-4.517,-4.5061,-4.508,-4.5038,-4.4991,-4.5038,-4.5057,-4.4991,-4.5038,-4.5057,-4.4991,-4.5038,-4.5057,-4.4991,-4.5213,-4.5338,-4.5338,-4.5339,-4.5341,-4.5341,-4.5341,-4.5339,0.0,0.0,0.0,0.0,0.0,0.0,0.0,0.0,0.0,0.0,-4.2458,-4.2891,-4.3324,-4.3553,-4.3682,-4.3749,-4.3865,-4.3992,-4.4079,-4.443,-4.4676,-4.4781,-4.5206,-4.549,-4.556,-4.5648,-4.57,-4.5684,-4.5637,-4.5622,-4.5657,-4.564,-4.5622,-4.5657,-4.5622,-4.5586,-4.5586,-4.5586,-4.5586,-4.5586,-4.5586,-4.562,-4.5635,-4.5635,-4.5668,-4.568,-4.569,-4.5657,-4.5673,-4.5712,-4.5747,-4.5796,-4.5847,-4.5911,-4.6034,-4.6075,-4.6114,-4.6133,-4.617,-4.621,-4.6201,-4.6196,-4.6196,-4.6196,-4.6154,-4.6084,-4.5956,-4.5722,-4.5571,-4.5473,-4.532,-4.5233,-4.517,-4.5235,-4.5148,-4.5103,-4.5256,-4.5213,-4.517,-4.5275,-4.5275,-4.5254,-4.5254,-4.5213,-4.5192,-4.5192,-4.5192,-4.517,-4.5061,-4.5057,-4.4991,-4.4895,-4.4895,-4.4889,-4.4846,-4.487,-4.4889,-4.4846,-4.487,-4.487,-4.4846,-4.487,-4.487,-4.4846,-4.5125,-4.5254,-4.5254,-4.5254,-4.5275,-4.5297,-4.5297,-4.5297,0.0,0.0,0.0,0.0,0.0,0.0,0.0,0.0,0.0,-4.0494,-4.1837,-4.2976,-4.2943,-4.3472,-4.3961,-4.4226,-4.4116,-4.4151,-4.4617,-4.4572,-4.4713,-4.5285,-4.538,-4.5509,-4.5765,-4.5731,-4.5703,-4.5709,-4.564,-4.5586,-4.5622,-4.5586,-4.5586,-4.5622,-4.5586,-4.5586,-4.5586,-4.5586,-4.5586,-4.5586,-4.5586,-4.5668,-4.58,-4.58,-4.5829,-4.5867,-4.5677,-4.5622,-4.562,-4.5736,-4.5801,-4.5809,-4.5932,-4.603,-4.6105,-4.6091,-4.6131,-4.6195,-4.6211,-4.6196,-4.6203,-4.6196,-4.6196,-4.6181,-4.6056,-4.6007,-4.5933,-4.5607,-4.5507,-4.5473,-4.532,-4.5297,-4.5275,-4.5148,-4.501,-4.4967,-4.5235,-4.5297,-4.5297,-4.5297,-4.5192,-4.5125,-4.5125,-4.4991,-4.4919,-4.4919,-4.4919,-4.4919,-4.4895,-4.4895,-4.4895,-4.4895,-4.4895,-4.4846,-4.4738,-4.4821,-4.4865,-4.4738,-4.4821,-4.4846,-4.4712,-4.4821,-4.4821,-4.4712,-4.4967,-4.5125,-4.5125,-4.5125,-4.517,-4.5297,-4.5297,-4.5297,0.0,0.0,0.0,0.0,0.0,0.0,0.0,0.0,-4.0226,-4.0745,-4.1378,-4.2011,-4.2554,-4.3409,-4.4109,-4.4365,-4.4365,-4.4438,-4.4768,-4.4954,-4.5145,-4.5361,-4.5543,-4.568,-4.5781,-4.5738,-4.569,-4.5709,-4.564,-4.5586,-4.5586,-4.5586,-4.5586,-4.5586,-4.5586,-4.5586,-4.5586,-4.5586,-4.5635,-4.5727,-4.5727,-4.5789,-4.5861,-4.5861,-4.5881,-4.5896,-4.5823,-4.5789,-4.5805,-4.5843,-4.5896,-4.5935,-4.5969,-4.6066,-4.6151,-4.6152,-4.618,-4.6206,-4.6206,-4.6209,-4.6196,-4.6196,-4.6135,-4.6056,-4.6018,-4.5847,-4.5669,-4.5645,-4.553,-4.54,-4.5277,-4.517,-4.5061,-4.4889,-4.487,-4.4919,-4.5014,-4.5038,-4.5038,-4.5038,-4.4991,-4.4967,-4.4967,-4.4919,-4.4895,-4.4895,-4.4895,-4.487,-4.477,-4.477,-4.4738,-4.4659,-4.4632,-4.4632,-4.4597,-4.4605,-4.4632,-4.4578,-4.4605,-4.4632,-4.4578,-4.4712,-4.4764,-4.4712,-4.487,-4.5014,-4.5103,-4.5192,-4.5235,-4.5297,-4.5297,-4.5297,0.0,0.0,0.0,0.0,0.0,0.0,0.0,0.0,-3.9392,-4.045,-4.0967,-4.1409,-4.1998,-4.2888,-4.3724,-4.4203,-4.4512,-4.4806,-4.5063,-4.5246,-4.5399,-4.5526,-4.5665,-4.5765,-4.577,-4.5742,-4.5693,-4.5676,-4.5671,-4.5654,-4.5603,-4.5635,-4.5654,-4.5603,-4.5586,-4.5586,-4.5586,-4.5635,-4.5696,-4.58,-4.5822,-4.588,-4.5967,-4.5974,-4.5988,-4.6026,-4.6035,-4.5981,-4.5913,-4.5949,-4.5982,-4.6039,-4.6075,-4.6151,-4.6223,-4.6223,-4.6228,-4.6236,-4.6236,-4.6226,-4.6209,-4.6164,-4.6115,-4.6046,-4.5959,-4.577,-4.5603,-4.5642,-4.5512,-4.5338,-4.5275,-4.5148,-4.501,-4.4796,-4.484,-4.487,-4.4796,-4.4846,-4.4895,-4.4895,-4.4846,-4.4821,-4.4821,-4.4815,-4.4764,-4.4764,-4.4764,-4.4719,-4.4659,-4.4632,-4.4605,-4.4515,-4.4515,-4.4515,-4.4515,-4.4515,-4.4515,-4.4515,-4.4515,-4.4515,-4.4515,-4.4578,-4.4659,-4.4712,-4.4821,-4.4986,-4.5103,-4.5192,-4.5254,-4.5297,-4.5297,-4.5297,0.0,0.0,0.0,0.0,0.0,0.0,0.0,0.0,-3.7909,-3.9406,-4.0549,-4.1279,-4.1277,-4.1943,-4.2764,-4.3609,-4.4486,-4.5165,-4.5472,-4.5399,-4.5417,-4.5765,-4.5731,-4.57,-4.569,-4.569,-4.5673,-4.562,-4.5727,-4.5742,-4.562,-4.5727,-4.5742,-4.562,-4.5603,-4.5603,-4.5603,-4.5742,-4.5794,-4.5808,-4.5871,-4.5974,-4.6114,-4.6117,-4.6182,-4.6308,-4.6305,-4.6148,-4.5923,-4.6053,-4.6108,-4.6129,-4.6258,-4.63,-4.63,-4.63,-4.6296,-4.6303,-4.6303,-4.6255,-4.6195,-4.6127,-4.613,-4.6138,-4.5889,-4.5808,-4.5751,-4.563,-4.5437,-4.5297,-4.5297,-4.5192,-4.5057,-4.4938,-4.4895,-4.4865,-4.4697,-4.4782,-4.4933,-4.487,-4.477,-4.4693,-4.4693,-4.4578,-4.4515,-4.4515,-4.4515,-4.4515,-4.4515,-4.4515,-4.4515,-4.4515,-4.4515,-4.4515,-4.4515,-4.4515,-4.4515,-4.4515,-4.4515,-4.4515,-4.4515,-4.4496,-4.4551,-4.4712,-4.4821,-4.4967,-4.5084,-4.5103,-4.517,-4.5297,-4.5297,-4.5297,-2.8379,0.0,0.0,0.0,0.0,0.0,0.0,0.0,-3.7308,-3.7635,-3.943,-4.0901,-4.0822,-4.157,-4.2261,-4.2473,-4.3553,-4.4671,-4.5519,-4.5613,-4.5613,-4.5715,-4.5752,-4.5775,-4.5761,-4.5809,-4.5828,-4.5815,-4.5852,-4.5863,-4.5828,-4.5852,-4.5852,-4.5828,-4.5815,-4.5815,-4.5815,-4.5839,-4.591,-4.6018,-4.6039,-4.6108,-4.623,-4.623,-4.6267,-4.6293,-4.6309,-4.6261,-4.619,-4.6225,-4.6241,-4.6258,-4.6287,-4.63,-4.63,-4.63,-4.63,-4.6292,-4.6195,-4.6151,-4.6111,-4.6107,-4.6007,-4.5899,-4.5875,-4.5711,-4.5497,-4.5472,-4.5341,-4.5192,-4.5103,-4.4943,-4.4796,-4.4745,-4.4764,-4.4889,-4.5477,-4.5663,-4.5474,-4.4745,-4.4578,-4.457,-4.457,-4.4524,-4.4515,-4.4515,-4.4515,-4.4515,-4.4515,-4.4515,-4.4515,-4.4515,-4.4515,-4.4515,-4.4515,-4.4515,-4.4515,-4.4515,-4.4515,-4.4515,-4.4515,-4.4578,-4.4659,-4.4712,-4.4821,-4.4919,-4.4962,-4.5148,-4.5256,-4.5297,-4.5297,-4.5297,0.0,0.0,0.0,0.0,0.0,0.0,-3.1737,-3.4478,-3.6929,-3.8239,-3.9742,-4.0779,-4.0706,-4.1153,-4.1673,-4.1981,-4.2731,-4.3622,-4.4654,-4.508,-4.528,-4.528,-4.5607,-4.5847,-4.5847,-4.5891,-4.5909,-4.5909,-4.5944,-4.5986,-4.5986,-4.5927,-4.5909,-4.5909,-4.5909,-4.5909,-4.5909,-4.5967,-4.6014,-4.6108,-4.6158,-4.6211,-4.6301,-4.6297,-4.6309,-4.63,-4.63,-4.63,-4.63,-4.63,-4.63,-4.63,-4.63,-4.63,-4.63,-4.624,-4.6245,-4.6277,-4.6144,-4.6131,-4.6157,-4.6052,-4.593,-4.5828,-4.5783,-4.5611,-4.5395,-4.5399,-4.5282,-4.5201,-4.5447,-4.542,-4.5394,-4.5734,-4.5829,-4.5961,-4.6445,-4.6539,-4.6361,-4.5735,-4.5613,-4.5613,-4.5613,-4.5613,-4.5613,-4.5613,-4.5331,-4.5124,-4.5096,-4.4768,-4.4542,-4.4515,-4.4515,-4.4515,-4.4515,-4.4515,-4.4515,-4.4515,-4.4515,-4.4515,-4.4515,-4.4597,-4.4632,-4.4712,-4.4789,-4.4846,-4.4895,-4.5125,-4.5254,-4.5297,-4.5235,-4.5254,0.0,0.0,0.0,0.0,0.0,0.0,-3.2803,-3.4546,-3.6203,-3.919,-4.0038,-4.0213,-4.0205,-4.0224,-4.0485,-4.1265,-4.1565,-4.2108,-4.3322,-4.4102,-4.4559,-4.4559,-4.5198,-4.5624,-4.5624,-4.5728,-4.5793,-4.5793,-4.5991,-4.6111,-4.6117,-4.6016,-4.5949,-4.5949,-4.5949,-4.5949,-4.5949,-4.6058,-4.6114,-4.6114,-4.6249,-4.63,-4.63,-4.6306,-4.63,-4.63,-4.6277,-4.6273,-4.6273,-4.6269,-4.6249,-4.6273,-4.6273,-4.6273,-4.6249,-4.6144,-4.6181,-4.6277,-4.6144,-4.6176,-4.6236,-4.5987,-4.5891,-4.5842,-4.5655,-4.55,-4.5376,-4.5359,-4.5244,-4.527,-4.6025,-4.6203,-4.6392,-4.7207,-4.7397,-4.7416,-4.7451,-4.747,-4.7462,-4.7502,-4.7343,-4.7183,-4.7183,-4.7183,-4.7164,-4.707,-4.6447,-4.593,-4.5781,-4.5076,-4.4578,-4.4542,-4.4524,-4.4524,-4.4524,-4.4524,-4.4524,-4.4524,-4.4515,-4.4515,-4.4515,-4.4496,-4.457,-4.4685,-4.4685,-4.4745,-4.487,-4.5014,-4.5148,-4.5235,-4.5125,-4.5148,0.0,0.0,0.0,0.0,0.0,0.0,-2.8276,-3.0559,-3.284,-3.3437,-3.5193,-3.6596,-3.6534,-3.6589,-3.6694,-3.6914,-3.8179,-4.0125,-4.3016,-4.3547,-4.3653,-4.3646,-4.3844,-4.3973,-4.3973,-4.4689,-4.5172,-4.5172,-4.5858,-4.6269,-4.6261,-4.623,-4.6226,-4.6226,-4.6226,-4.6226,-4.6226,-4.625,-4.6268,-4.6268,-4.6295,-4.6306,-4.6306,-4.6303,-4.63,-4.63,-4.6181,-4.6138,-4.6138,-4.6013,-4.6049,-4.6138,-4.6138,-4.6138,-4.6138,-4.6105,-4.6181,-4.6277,-4.6144,-4.6091,-4.6049,-4.593,-4.5825,-4.5725,-4.563,-4.5468,-4.5266,-4.5071,-4.5042,-4.527,-4.6025,-4.6203,-4.6392,-4.7207,-4.7397,-4.7586,-4.8287,-4.8439,-4.8602,-4.9246,-4.8191,-4.7183,-4.7183,-4.7183,-4.6976,-4.6315,-4.6089,-4.5749,-4.5025,-4.478,-4.4685,-4.4659,-4.4659,-4.4659,-4.4659,-4.4659,-4.4659,-4.4659,-4.4605,-4.4578,-4.4578,-4.4542,-4.4515,-4.4542,-4.4524,-4.4605,-4.4738,-4.487,-4.4943,-4.4986,-4.4943,-4.4943,0.0,0.0,0.0,-2.6709,0.0,0.0,0.0,-3.0671,-3.2649,-3.3057,-3.451,-3.5686,-3.5661,-3.5675,-3.5708,-3.5737,-3.7278,-3.8727,-3.9508,-4.1518,-4.2908,-4.2896,-4.331,-4.3591,-4.3591,-4.4061,-4.4349,-4.4349,-4.5169,-4.5653,-4.5656,-4.6061,-4.6301,-4.6301,-4.6301,-4.6301,-4.6301,-4.6295,-4.6293,-4.6293,-4.6303,-4.6249,-4.6206,-4.6206,-4.615,-4.6098,-4.6041,-4.6041,-4.6098,-4.6033,-4.5996,-4.6005,-4.6064,-4.6138,-4.6187,-4.6112,-4.6144,-4.6176,-4.6005,-4.594,-4.592,-4.5789,-4.5698,-4.563,-4.5541,-4.5362,-4.5159,-4.5038,-4.4991,-4.5271,-4.6493,-4.679,-4.7112,-4.8344,-4.8647,-4.8761,-4.9197,-4.9292,-4.9405,-4.9803,-4.9162,-4.854,-4.854,-4.8199,-4.7802,-4.7405,-4.663,-4.593,-4.5462,-4.5028,-4.4738,-4.4712,-4.4712,-4.4712,-4.4712,-4.4712,-4.4685,-4.4659,-4.4605,-4.4578,-4.4551,-4.4515,-4.4515,-4.4515,-4.4515,-4.4524,-4.4605,-4.4659,-4.477,-4.4895,-4.4821,-4.484,0.0,0.0,0.0,0.0,0.0,-2.9558,0.0,0.0,0.0,-3.3565,-3.4261,-3.4767,0.0,0.0,0.0,-3.4798,0.0,0.0,0.0,-3.8661,0.0,-4.1128,-4.2357,-4.3056,-4.2695,-4.2818,-4.3119,-4.3602,-4.3997,-4.4426,-4.4929,-4.562,-4.6093,-4.6269,-4.6296,-4.63,-4.63,-4.6273,-4.6269,-4.6269,-4.624,-4.6176,-4.6057,-4.6057,-4.6033,-4.593,-4.5908,-4.5949,-4.6057,-4.6024,-4.5949,-4.5878,-4.6005,-4.6125,-4.6195,-4.6076,-4.6041,-4.6041,-4.5878,-4.5856,-4.5875,-4.5694,-4.5587,-4.5524,-4.5381,-4.5237,-4.5084,-4.508,-4.4991,-4.5318,-4.6961,-4.7397,-4.7813,-4.9481,-4.9898,-4.9898,-4.9898,-4.9898,-4.9898,-4.9898,-4.9898,-4.9898,-4.9898,-4.9216,-4.8628,-4.8458,-4.7169,-4.6102,-4.5899,-4.5256,-4.4815,-4.4745,-4.4738,-4.4738,-4.4738,-4.4738,-4.4712,-4.4632,-4.4632,-4.4578,-4.4524,-4.4515,-4.4515,-4.4515,-4.4515,-4.4515,-4.4515,-4.4515,-4.4605,-4.4821,-4.4712,-4.4738,0.0,0.0,0.0,0.0,-2.9044,0.0,0.0,0.0,-3.0747,-3.0854,0.0,-3.1009,0.0,0.0,0.0,0.0,0.0,0.0,-3.3608,-3.5308,-3.6554,-3.6554,-3.9423,-4.0738,-3.9077,-3.9607,-4.0999,-4.3266,-4.2155,-4.2349,-4.4608,-4.4876,-4.5319,-4.6092,-4.624,-4.63,-4.63,-4.6181,-4.6112,-4.6112,-4.5996,-4.593,-4.592,-4.592,-4.5987,-4.6076,-4.5891,-4.5847,-4.591,-4.5733,-4.5727,-4.5822,-4.5897,-4.5906,-4.5861,-4.5835,-4.5871,-4.592,-4.5899,-4.5886,-4.5886,-4.5808,-4.558,-4.5319,-4.5173,-4.5125,-4.508,-4.4962,-4.501,-4.5437,-4.6986,-4.7397,-4.7813,-4.9481,-4.9898,-4.9898,-4.9898,-4.9898,-4.9898,-4.9898,-4.9898,-4.9898,-4.9898,-4.9216,-4.8439,-4.7662,-4.6771,-4.5918,-4.5141,-4.4946,-4.4889,-4.487,-4.487,-4.487,-4.487,-4.487,-4.4846,-4.477,-4.4719,-4.4659,-4.4578,-4.4524,-4.4515,-4.4515,-4.4515,-4.4515,-4.4515,-4.4515,-4.4515,-4.4542,-4.4542,-4.4542,0.0,0.0,0.0,0.0,0.0,0.0,-2.889,0.0,-3.0256,0.0,0.0,0.0,0.0,0.0,0.0,0.0,-3.2044,-3.2818,0.0,0.0,-3.5718,-3.5791,-3.7053,-3.7999,-3.8218,-3.9442,-4.0694,-4.1801,-4.1675,-4.2024,-4.3132,-4.418,-4.4906,-4.5276,-4.5796,-4.6064,-4.6064,-4.6005,-4.5987,-4.5987,-4.592,-4.5886,-4.5835,-4.5835,-4.5822,-4.5815,-4.5727,-4.5688,-4.5731,-4.5723,-4.5692,-4.5684,-4.5796,-4.5847,-4.5871,-4.5871,-4.5847,-4.5822,-4.5664,-4.5615,-4.5594,-4.553,-4.5419,-4.5297,-4.5235,-4.517,-4.5103,-4.5014,-4.4991,-4.5252,-4.6398,-4.7036,-4.77,-4.8913,-4.9557,-4.9898,-4.9898,-4.9898,-4.9898,-4.9898,-4.9898,-4.9746,-4.9273,-4.8496,-4.7662,-4.6828,-4.5994,-4.5312,-4.4952,-4.4895,-4.4895,-4.4895,-4.4895,-4.4895,-4.4895,-4.4895,-4.4846,-4.4764,-4.4632,-4.4578,-4.4524,-4.4496,-4.4515,-4.4515,-4.4515,-4.4542,-4.4605,-4.4605,-4.4659,-4.4738,-4.4578,-4.4515,-3.0867,0.0,0.0,0.0,0.0,0.0,0.0,0.0,0.0,0.0,0.0,0.0,0.0,0.0,0.0,0.0,0.0,-3.1843,0.0,-3.242,0.0,0.0,0.0,0.0,0.0,-3.8407,-3.9366,-3.9879,-4.0505,-4.1207,-4.1989,-4.3244,-4.4178,-4.4633,-4.5248,-4.5666,-4.5899,-4.5867,-4.5875,-4.5875,-4.584,-4.5783,-4.5742,-4.5742,-4.5696,-4.5601,-4.5549,-4.5563,-4.5603,-4.5658,-4.5642,-4.561,-4.5677,-4.5713,-4.577,-4.5796,-4.5769,-4.5658,-4.5468,-4.5381,-4.5361,-4.5338,-4.5275,-4.5254,-4.5254,-4.5148,-4.5038,-4.5103,-4.5014,-4.5152,-4.6006,-4.6841,-4.7675,-4.8503,-4.9292,-4.9925,-4.9952,-4.9925,-4.9925,-4.9952,-4.9736,-4.9292,-4.8477,-4.7813,-4.7131,-4.6316,-4.5464,-4.4895,-4.4895,-4.4895,-4.4895,-4.4895,-4.4895,-4.4895,-4.4895,-4.487,-4.4815,-4.4685,-4.4551,-4.4515,-4.4515,-4.4515,-4.4515,-4.4515,-4.4515,-4.457,-4.4712,-4.4712,-4.477,-4.4914,-4.4712,-4.4605,0.0,0.0,0.0,-2.974,0.0,0.0,0.0,0.0,-3.039,0.0,0.0,0.0,0.0,0.0,0.0,0.0,0.0,0.0,0.0,0.0,0.0,0.0,0.0,0.0,0.0,-3.51,-3.5883,-3.7577,-3.7904,-3.915,-4.1678,-4.1994,-4.2815,-4.4459,-4.4661,-4.5113,-4.588,-4.5841,-4.5794,-4.5794,-4.5668,-4.5603,-4.5603,-4.5603,-4.5599,-4.5587,-4.5455,-4.5473,-4.5587,-4.5455,-4.5495,-4.5586,-4.5457,-4.54,-4.5419,-4.5549,-4.5531,-4.5419,-4.54,-4.5361,-4.5317,-4.5297,-4.5213,-4.5103,-4.5103,-4.5014,-4.4919,-4.5061,-4.5103,-4.5293,-4.6092,-4.6949,-4.7775,-4.8503,-4.9292,-4.9952,-5.0057,-5.0005,-4.9952,-5.0082,-4.9378,-4.8458,-4.7586,-4.7416,-4.7131,-4.6316,-4.5464,-4.4895,-4.4895,-4.4895,-4.4895,-4.4895,-4.4895,-4.4895,-4.4895,-4.4821,-4.4764,-4.4605,-4.4542,-4.4515,-4.4515,-4.4515,-4.4515,-4.4515,-4.4515,-4.457,-4.4712,-4.4712,-4.477,-4.4895,-4.4895,-4.487,0.0,0.0,-3.5697,-3.1845,0.0,0.0,0.0,0.0,0.0,0.0,0.0,0.0,0.0,0.0,0.0,0.0,0.0,0.0,0.0,0.0,0.0,0.0,0.0,0.0,0.0,0.0,0.0,-3.7559,-3.881,-3.9948,-4.0893,-4.1532,-4.214,-4.2699,-4.3824,-4.4568,-4.4839,-4.5391,-4.5668,-4.5668,-4.562,-4.555,-4.5476,-4.5476,-4.5475,-4.5455,-4.5419,-4.5419,-4.5455,-4.5419,-4.54,-4.54,-4.536,-4.5339,-4.5339,-4.538,-4.538,-4.5319,-4.5237,-4.5129,-4.5033,-4.5033,-4.4991,-4.4967,-4.4967,-4.4938,-4.4895,-4.4943,-4.4967,-4.5043,-4.5309,-4.603,-4.6727,-4.7005,-4.8098,-4.9129,-4.9181,-4.9572,-4.9773,-4.9276,-4.8927,-4.8249,-4.6847,-4.6601,-4.6316,-4.5464,-4.5085,-4.4895,-4.4895,-4.4895,-4.4895,-4.4895,-4.4895,-4.4895,-4.4895,-4.4815,-4.4712,-4.4605,-4.4793,-4.4892,-4.4892,-4.5189,-4.5367,-4.5367,-4.5367,-4.5156,-4.4774,-4.4774,-4.455,-4.4167,-4.4167,-4.4447,-3.6911,-3.7578,0.0,-3.3689,-3.426,0.0,-3.0936,0.0,-3.1418,0.0,0.0,0.0,0.0,0.0,0.0,0.0,0.0,0.0,0.0,-2.9314,0.0,0.0,0.0,0.0,0.0,0.0,-3.6141,-3.7504,-3.8774,-3.9761,-4.0422,-4.0998,-4.1421,-4.1728,-4.3037,-4.3938,-4.4299,-4.5129,-4.5533,-4.5533,-4.5495,-4.5458,-4.5361,-4.5381,-4.5361,-4.5301,-4.5341,-4.5341,-4.5281,-4.5281,-4.53,-4.5297,-4.5254,-4.5213,-4.5235,-4.5297,-4.5275,-4.5213,-4.5125,-4.5014,-4.4895,-4.4962,-4.4943,-4.4895,-4.4895,-4.4895,-4.4895,-4.4943,-4.4967,-4.4967,-4.4967,-4.5594,-4.6215,-4.6209,-4.7226,-4.8257,-4.8308,-4.8681,-4.8863,-4.8403,-4.8055,-4.7453,-4.6392,-4.5937,-4.5539,-4.499,-4.4895,-4.4895,-4.4895,-4.487,-4.487,-4.487,-4.487,-4.489,-4.5025,-4.4963,-4.4946,-4.5039,-4.524,-4.5352,-4.5352,-4.5385,-4.537,-4.537,-4.5095,-4.4761,-4.4376,-4.4376,-4.4198,-4.3782,-4.3738,-4.402]}]]